ECMWFNIL_sfc_temp_000.txt.gz
Temp
73 72 72 71 70 71 69 68 68 69 69 69 69 69 69 71 71 71 72 70 71 70 70 69 70 71 71 70 70 70 70 70 69 69 69 69 69 68 68 68 67 68
71 72 73 71 70 71 69 70 69 69 69 69 69 69 69 71 71 72 71 70 71 71 70 70 70 70 70 70 70 69 69 70 70 71 69 68 69 68 69 69 69 68
71 71 71 70 70 69 69 69 69 69 69 69 69 69 70 71 71 71 70 70 70 70 70 70 70 70 70 70 70 70 70 70 69 70 69 69 69 68 69 70 69 68
70 71 71 70 70 69 69 68 68 68 69 68 68 69 71 71 71 70 69 71 69 69 69 69 70 70 70 70 70 69 69 69 70 70 69 69 69 69 69 69 69 69
70 70 70 70 70 70 69 69 68 68 68 69 69 69 70 70 69 69 69 69 69 69 69 69 69 70 69 69 69 69 69 69 69 68 68 68 69 69 69 69 68 68
71 71 71 70 70 69 68 69 69 68 69 68 69 70 70 70 69 69 69 69 69 70 70 69 69 69 69 69 68 68 69 69 70 69 68 68 69 69 69 69 68 68
71 70 70 70 70 70 70 69 69 70 69 70 69 69 70 69 69 69 69 69 69 70 70 69 69 69 69 68 68 68 68 68 69 69 68 68 68 69 69 68 68 68
72 72 71 70 70 69 70 69 69 69 69 69 69 69 69 70 69 69 69 69 69 69 69 69 68 68 69 68 68 68 68 69 68 68 68 68 68 68 69 69 68 68
73 72 70 69 70 69 71 70 70 69 70 69 70 70 69 69 69 69 69 69 69 69 69 68 68 68 68 68 68 68 68 68 68 68 68 68 68 69 69 69 68 67
72 72 71 71 72 71 71 71 71 70 70 70 70 70 69 69 69 69 70 69 69 69 68 68 68 68 68 67 67 67 67 67 68 68 68 68 68 69 69 68 68 67
73 73 71 72 73 72 72 72 72 72 71 71 70 70 70 69 69 69 69 68 68 69 68 68 68 68 68 67 67 67 67 68 68 68 68 68 68 68 69 68 68 67
73 73 72 73 73 72 72 72 72 71 71 72 71 71 70 70 69 69 70 68 69 69 69 69 69 68 68 68 69 68 68 67 68 68 68 68 68 68 68 68 68 68
73 72 71 73 73 71 71 72 72 73 72 72 72 72 71 70 69 69 69 70 69 69 69 69 69 69 67 67 68 67 67 67 67 67 68 68 68 68 69 68 68 68
70 70 71 70 71 70 70 71 71 71 70 71 71 71 71 71 70 69 69 69 69 69 69 69 69 68 67 67 67 67 67 67 67 68 68 68 68 68 68 68 68 68
73 73 71 70 69 68 69 69 69 69 70 70 70 71 71 71 71 70 68 68 68 69 69 69 68 68 68 68 67 67 67 67 68 68 68 68 68 68 68 67 67 68
71 69 67 67 67 67 67 67 68 69 70 69 69 70 70 70 69 69 69 69 68 68 68 68 68 69 68 66 67 70 69 68 68 68 67 67 67 68 68 68 67 68
67 67 67 66 67 66 67 67 68 68 69 69 68 69 69 69 69 68 69 69 69 69 69 68 69 69 66 64 65 66 69 69 68 68 68 67 67 67 67 68 68 67
67 67 67 67 67 68 67 67 67 68 67 67 68 68 68 69 68 68 68 68 69 69 69 70 70 67 63 64 65 65 66 69 69 68 69 68 67 67 67 67 67 67
67 67 67 67 67 67 67 67 66 66 67 67 67 68 69 68 67 68 68 68 68 68 69 70 70 67 64 63 64 64 64 66 69 69 68 68 67 66 66 66 65 65
67 67 67 67 67 67 66 67 67 67 68 68 68 68 67 67 68 68 68 68 68 68 68 70 70 66 63 62 62 63 63 65 67 68 68 67 67 67 66 65 64 63
68 67 67 67 66 66 65 66 66 66 67 67 67 67 67 67 67 68 68 69 69 69 69 69 70 64 62 61 60 60 61 63 66 66 66 66 66 65 65 65 64 63
68 67 66 66 65 65 66 65 65 65 64 66 67 66 67 67 67 68 69 69 69 69 69 68 71 64 61 60 60 60 61 64 65 65 65 65 65 64 63 62 63 62
68 67 66 66 66 65 65 65 66 65 66 67 66 66 66 66 67 68 68 68 69 68 68 67 68 65 60 59 59 59 60 64 64 64 63 63 63 63 62 62 62 62
67 67 66 66 65 65 65 65 65 66 66 67 65 65 66 67 68 67 67 67 68 67 67 67 67 65 59 57 56 57 59 63 63 62 63 62 62 61 60 61 61 63
67 67 66 65 67 66 65 65 65 66 67 67 68 68 67 66 67 67 66 65 65 66 67 67 65 63 59 58 58 57 59 63 61 61 62 61 59 59 58 60 60 60
67 66 66 66 65 66 65 66 67 68 67 67 67 67 66 65 66 66 66 65 64 65 65 64 64 63 64 59 58 56 56 61 60 61 62 62 59 59 61 61 60 59

ECMWFNIL_sfc_temp_003.txt.gz
Temp
83 83 82 82 82 82 81 80 80 80 80 81 80 80 80 81 82 81 81 81 81 81 81 81 81 80 81 80 80 79 79 79 80 80 79 79 78 79 78 79 78 77
82 82 82 82 81 81 81 81 80 80 79 80 81 81 81 81 81 81 81 81 81 81 81 81 80 80 80 80 80 79 79 79 79 80 78 78 78 79 79 79 78 79
82 82 81 81 81 81 81 81 80 80 80 81 81 81 81 81 81 81 81 81 80 81 80 80 80 80 80 80 80 79 79 78 78 80 78 78 79 78 78 80 79 78
81 81 81 82 82 81 81 79 79 79 81 80 80 81 81 81 81 80 80 80 80 80 80 80 80 81 80 80 80 79 79 79 80 80 79 78 78 78 78 79 79 79
80 80 81 81 81 81 80 79 80 79 80 80 81 80 79 79 79 80 80 79 79 80 80 79 80 80 80 80 80 79 79 79 80 79 78 78 79 78 79 78 78 78
80 80 79 80 80 80 79 79 79 79 80 80 79 80 79 79 79 79 79 79 80 80 79 80 79 80 81 80 79 79 79 80 80 79 78 78 79 80 79 79 78 77
80 79 79 80 80 80 79 78 78 79 80 80 79 77 78 78 77 77 78 78 79 78 79 78 78 79 80 79 78 78 78 78 79 79 78 78 78 78 80 78 77 77
81 80 80 80 79 78 77 77 78 79 79 78 77 77 77 77 76 77 77 77 78 77 77 78 79 79 80 79 78 78 78 79 79 78 78 78 78 77 78 79 78 77
80 80 79 79 78 78 78 78 78 77 76 76 76 76 75 76 76 76 76 76 76 76 77 77 77 78 78 78 78 78 78 79 79 78 78 77 77 78 78 79 78 77
78 77 78 79 78 76 75 74 73 75 75 74 74 75 73 74 75 75 75 74 75 76 76 76 76 77 77 78 78 78 78 78 78 78 78 78 78 78 79 78 78 77
77 78 78 78 78 77 76 75 75 75 73 73 73 72 72 72 72 74 74 74 75 75 76 76 77 77 76 77 78 78 78 78 78 78 78 78 78 78 77 78 78 78
77 80 80 77 77 76 76 76 78 75 73 72 72 71 71 71 72 72 73 74 75 76 77 77 77 77 76 77 79 79 78 78 78 77 78 78 78 78 78 78 78 78
80 80 76 75 75 74 73 73 74 75 73 71 70 70 69 69 70 71 72 74 75 76 76 77 77 77 76 77 78 78 77 77 77 77 77 78 78 79 80 79 79 78
80 75 75 75 74 72 72 74 73 73 71 70 69 69 69 69 69 70 71 74 75 75 75 76 76 76 76 76 77 77 77 77 77 77 78 78 78 79 80 80 79 79
78 77 76 76 74 73 72 71 70 69 68 69 69 68 68 69 71 71 72 72 73 74 75 76 76 76 77 77 76 77 77 78 78 78 78 78 78 79 79 78 78 79
77 77 76 75 73 73 72 70 70 68 68 68 69 69 69 69 71 72 73 73 73 73 74 75 75 75 71 67 69 77 78 78 77 77 77 77 77 77 77 78 79 80
77 76 76 74 74 74 72 72 70 67 66 67 68 69 70 71 71 72 73 73 73 74 73 73 73 73 67 64 64 66 74 77 77 77 77 77 77 76 76 77 79 79
76 75 75 74 74 73 72 71 69 67 67 68 68 69 70 71 70 71 72 73 73 74 74 73 73 69 64 63 64 64 66 73 76 76 76 76 76 76 77 77 77 77
75 75 74 73 72 70 70 69 68 68 68 68 67 68 69 68 69 70 70 70 71 71 71 72 73 68 64 63 63 63 63 67 74 75 75 75 76 76 77 76 76 74
74 73 71 69 68 69 68 69 69 68 68 68 68 67 67 67 68 69 69 69 69 69 69 71 71 67 63 62 62 62 62 64 72 72 73 74 75 75 76 75 75 73
73 71 68 68 69 71 71 70 69 70 70 70 70 68 67 67 69 69 70 70 69 69 69 69 72 65 62 60 59 59 59 64 70 71 72 72 73 74 74 73 72 72
73 70 68 69 70 70 70 71 71 71 71 71 71 70 70 71 71 71 68 68 70 71 71 70 73 64 61 60 59 58 59 68 71 71 71 72 72 72 72 70 69 70
74 72 71 71 71 71 71 72 72 71 72 72 71 72 72 71 72 72 71 71 71 71 70 70 71 63 58 57 57 57 61 70 70 70 70 70 70 70 70 69 69 70
75 73 72 73 72 72 72 72 72 73 73 72 71 72 73 74 74 73 72 73 72 72 75 74 75 65 55 56 56 57 62 70 70 69 68 67 68 69 68 68 69 66
75 74 74 73 72 73 73 72 72 72 72 73 74 74 75 75 75 75 75 73 75 74 69 73 74 67 56 56 55 57 65 70 68 65 64 65 67 68 68 69 69 66
75 74 74 74 74 74 74 73 72 73 73 74 75 76 75 76 77 77 75 75 75 72 70 72 71 71 66 55 59 60 61 67 66 65 65 66 68 68 69 69 68 68

ECMWFNIL_sfc_temp_006.txt.gz
Temp
88 88 88 88 88 88 88 87 87 87 86 88 88 87 87 87 87 87 87 86 85 85 85 84 84 84 84 84 83 83 83 83 83 84 83 82 82 82 82 82 82 81
88 88 88 89 88 88 88 88 87 87 87 87 88 88 87 87 87 87 86 86 85 85 84 85 84 84 83 84 83 83 82 82 82 84 82 81 81 81 82 81 81 82
88 88 88 88 89 88 89 89 88 88 88 88 88 87 87 87 86 86 86 86 85 85 84 84 84 83 84 83 83 83 83 82 81 85 83 81 82 81 82 84 83 82
88 88 88 89 90 89 89 88 88 87 88 87 86 87 87 87 87 86 85 85 84 84 84 84 84 84 83 83 83 82 83 82 83 83 83 82 81 82 81 82 82 82
88 88 89 89 90 89 89 88 89 88 88 88 87 86 85 85 85 86 85 85 84 84 84 84 84 84 83 83 83 82 82 83 83 82 81 81 82 82 82 82 81 81
88 88 88 88 88 87 87 88 88 88 88 89 86 87 86 86 85 86 85 85 85 85 85 84 84 84 84 83 82 82 82 83 84 83 81 81 82 83 84 83 81 80
88 87 88 89 88 88 87 87 87 87 88 88 86 86 86 86 85 84 83 83 84 84 84 83 82 82 83 83 82 81 81 81 82 82 81 81 81 81 82 82 81 80
88 89 88 88 88 88 87 87 87 86 87 87 86 85 86 86 84 84 82 81 82 82 82 82 81 80 82 82 81 81 81 82 82 81 80 80 81 80 81 82 81 80
87 87 88 87 87 88 89 89 88 87 87 86 87 87 86 85 83 82 80 80 80 80 80 80 80 80 81 80 80 80 80 81 82 81 80 80 80 80 81 81 81 80
86 87 88 89 89 89 89 91 91 89 87 87 87 87 85 84 84 81 79 78 77 77 77 77 78 79 80 81 80 80 80 80 81 81 81 81 81 81 81 81 80 80
87 88 88 88 89 91 90 90 90 91 88 88 87 85 83 81 79 77 75 75 74 73 74 75 77 78 79 80 80 80 80 81 81 81 81 81 81 81 80 81 81 81
87 89 89 89 89 89 87 89 89 87 87 88 86 83 79 77 76 74 73 72 72 73 74 76 77 78 79 80 81 81 80 80 80 81 81 81 82 82 82 82 81 81
89 88 87 89 88 87 87 84 85 87 87 86 85 79 75 73 75 74 73 73 74 74 75 76 77 78 79 80 81 81 80 80 80 80 81 81 82 83 84 83 82 81
89 87 87 86 82 80 80 77 78 78 77 76 77 76 77 76 75 73 73 74 75 76 76 77 78 79 79 79 79 80 80 80 80 80 80 81 82 83 83 83 83 83
87 87 85 78 77 74 73 73 73 73 73 73 73 74 75 75 75 74 73 73 74 75 76 77 78 79 79 78 77 78 78 78 79 80 80 80 81 83 83 83 82 83
86 86 80 77 75 72 71 72 71 71 71 72 71 72 73 74 74 74 75 74 75 76 77 77 77 78 74 69 72 78 78 77 78 79 79 80 80 80 81 82 83 84
85 81 77 75 72 71 72 71 70 72 72 72 71 71 72 73 73 74 75 76 76 77 77 78 78 77 68 66 67 69 76 77 77 77 77 78 79 78 78 79 80 81
83 80 75 73 73 73 75 76 76 74 73 74 74 74 74 75 75 75 75 77 78 79 79 79 80 70 65 65 66 65 67 74 76 76 77 77 77 77 78 78 79 79
82 80 75 74 75 76 77 78 78 77 76 77 77 77 77 76 76 77 77 77 79 78 79 81 82 70 64 64 64 64 64 68 73 74 75 75 76 76 77 76 76 76
82 81 77 76 76 77 77 77 78 77 77 78 79 78 76 77 77 76 77 77 78 78 78 80 81 69 63 62 62 62 63 66 71 72 72 73 73 74 75 76 76 76
81 81 78 77 76 77 76 77 77 78 78 78 79 79 77 77 77 76 77 77 78 78 79 79 80 64 62 61 60 60 61 66 71 72 72 72 73 75 76 77 77 76
82 80 79 78 78 77 77 77 78 78 78 79 79 80 80 80 79 79 78 78 78 78 76 75 77 62 61 60 59 60 61 68 71 71 72 74 75 77 78 78 77 76
81 80 80 78 78 78 78 78 77 77 78 80 79 79 80 79 79 79 78 78 77 74 72 72 74 66 60 59 60 59 63 73 74 74 75 76 77 78 77 77 77 76
81 81 81 80 79 79 79 79 79 78 78 79 78 79 80 81 79 77 76 76 74 73 75 74 76 67 59 59 58 57 66 76 75 76 76 76 77 77 76 74 73 72
81 81 80 80 79 80 80 80 79 79 79 79 78 77 76 77 77 77 76 75 76 76 70 74 78 71 58 57 56 56 67 78 77 76 76 75 75 76 76 75 71 70
81 80 80 80 79 79 79 80 81 80 80 79 79 79 78 78 78 77 77 78 79 79 78 79 80 80 69 55 56 55 60 76 78 75 75 74 75 72 72 71 72 71

ECMWFNIL_sfc_temp_009.txt.gz
Temp
90 89 89 89 89 90 89 89 90 89 88 90 89 88 87 87 89 89 89 88 87 87 86 85 85 85 85 85 84 84 84 84 84 85 84 84 84 84 83 83 83 83
90 90 89 90 89 89 89 90 89 89 88 88 89 89 88 88 90 89 88 88 88 87 86 86 85 84 84 85 84 83 83 83 83 85 84 83 83 83 83 83 82 82
90 90 90 89 90 90 91 90 89 89 89 89 89 89 89 89 89 88 88 88 87 87 86 85 85 84 84 84 84 83 83 82 82 85 83 82 83 82 82 85 84 84
90 90 90 91 91 90 90 90 89 88 89 89 89 90 90 89 88 88 87 87 86 86 86 85 84 85 84 83 83 83 83 82 83 83 83 83 83 83 82 82 82 83
90 90 91 91 91 91 90 90 90 89 90 90 90 89 88 87 87 87 87 86 85 86 85 84 84 84 83 81 81 81 82 83 83 82 81 82 82 83 83 82 82 82
90 90 90 90 91 90 90 90 90 90 90 91 89 90 88 88 87 87 87 86 87 86 86 86 84 84 84 82 80 79 80 81 83 82 81 81 82 83 85 84 82 81
91 90 91 91 91 91 90 90 89 90 90 90 89 88 88 87 87 86 86 86 86 85 84 82 81 81 82 82 80 78 79 80 82 82 81 81 81 81 83 82 81 81
91 92 91 91 91 90 90 90 90 89 89 89 89 88 88 88 86 87 86 85 86 84 83 83 82 82 83 81 80 79 79 81 81 80 80 80 81 80 81 82 82 80
92 91 91 90 90 91 92 91 91 90 89 88 88 90 88 87 86 86 85 84 84 84 83 83 82 82 81 80 79 79 78 80 82 81 81 80 80 80 80 81 81 80
91 91 92 92 92 91 91 92 92 91 89 87 88 91 88 86 85 84 84 83 82 82 82 82 82 82 81 80 80 79 78 79 80 81 81 81 81 81 81 81 81 80
92 93 92 91 91 93 93 93 93 93 90 89 89 90 87 85 83 83 82 82 81 81 81 80 80 80 79 80 80 80 80 80 80 80 81 81 81 80 81 81 81 81
92 92 92 91 91 92 93 94 93 91 90 91 91 89 85 84 81 81 80 80 80 80 80 80 79 79 79 79 81 82 81 81 81 81 81 81 81 81 81 81 80 80
92 91 90 91 91 91 91 92 93 92 93 92 91 89 86 83 82 81 81 81 80 80 80 80 80 80 79 79 80 81 81 81 81 81 81 81 81 82 82 81 81 79
92 90 90 89 89 88 89 91 90 89 90 89 89 86 85 84 83 82 81 82 81 81 81 81 80 80 79 79 80 81 81 81 81 81 81 80 79 80 80 81 80 82
91 90 89 88 88 88 88 88 88 87 87 87 86 85 85 84 84 84 82 81 82 82 81 81 80 80 80 80 80 80 81 81 81 80 80 79 78 78 78 78 79 81
89 88 88 87 87 86 87 87 87 86 86 85 84 84 83 83 83 83 84 82 81 81 81 80 80 81 76 70 73 81 81 81 81 80 80 79 78 77 77 79 79 80
89 87 87 86 86 85 85 85 85 85 85 84 84 83 83 82 82 82 84 83 82 81 80 80 81 81 70 67 68 70 79 81 80 80 80 79 78 77 77 78 79 79
85 84 84 84 84 84 84 84 85 84 83 83 84 83 82 82 81 81 82 82 81 82 81 81 82 72 66 66 67 67 71 79 81 80 80 78 77 77 77 78 78 78
82 83 83 83 83 84 84 84 84 83 83 83 83 83 82 80 80 81 80 81 81 80 81 82 84 70 65 65 65 65 66 73 81 81 79 77 76 76 77 77 77 76
82 82 82 83 83 83 84 83 83 83 83 84 84 83 81 81 81 80 80 79 80 80 80 82 84 68 64 63 64 64 66 69 79 79 77 76 77 77 78 77 76 75
81 82 82 82 82 83 83 83 83 83 83 83 84 83 81 80 80 79 79 79 80 81 81 82 85 65 63 63 62 63 63 67 75 76 75 75 76 77 76 76 76 77
81 82 82 82 81 82 82 82 82 82 82 83 83 85 84 84 82 81 79 80 80 80 81 80 83 60 62 62 61 61 62 71 73 73 74 74 76 77 76 76 77 78
82 81 81 80 80 80 80 81 81 82 83 84 83 84 84 84 83 83 81 81 80 80 80 80 82 63 60 58 59 59 63 71 73 75 76 76 76 77 77 76 77 79
83 81 80 79 79 79 80 81 83 83 82 82 81 82 83 85 85 83 83 82 81 81 82 80 82 65 56 57 57 58 64 73 74 76 76 76 76 75 77 76 77 76
84 82 81 80 79 80 80 80 80 80 81 81 82 82 82 82 83 81 81 80 82 81 73 78 80 68 55 57 57 56 66 76 77 77 76 72 71 70 71 76 76 76
84 83 82 81 80 80 81 82 82 82 81 80 81 82 81 81 81 81 81 80 80 79 78 79 79 79 69 56 56 55 59 74 77 76 75 72 72 69 73 76 76 76

ECMWFNIL_sfc_temp_012.txt.gz
Temp
86 86 86 85 85 86 85 85 85 85 84 84 84 84 83 85 85 84 84 84 83 83 82 81 82 82 82 81 80 80 79 80 80 79 79 79 78 79 80 80 81 78
86 86 85 86 85 85 85 86 85 85 84 84 84 84 84 85 86 85 84 83 83 83 82 83 81 81 80 80 79 79 79 79 79 82 79 79 79 80 81 80 79 79
87 86 86 86 86 87 89 87 86 86 85 86 86 85 85 85 85 85 84 84 83 83 82 81 81 80 80 80 79 79 78 77 77 81 79 78 79 78 79 81 80 79
86 87 87 88 87 87 87 86 86 86 86 85 86 86 86 86 85 85 84 84 82 82 82 82 81 81 80 80 79 78 78 77 78 78 78 78 78 79 78 78 79 79
87 87 87 88 88 87 87 86 87 86 87 86 87 85 84 83 84 84 83 83 82 82 81 81 81 81 79 79 79 77 78 78 78 78 77 77 78 78 79 78 77 77
87 87 87 87 87 86 87 87 87 87 87 87 86 86 85 84 84 84 83 83 84 84 83 82 81 81 81 79 78 78 78 78 79 78 77 77 78 79 80 78 77 76
87 87 88 88 88 88 87 86 87 86 87 87 86 85 85 85 84 83 83 83 83 82 82 80 79 80 80 79 77 77 77 78 78 78 77 76 76 77 79 79 78 78
88 89 88 88 88 88 87 87 87 86 86 86 86 85 85 86 84 84 83 83 83 81 81 81 80 79 81 79 77 77 77 79 78 77 77 77 77 76 77 78 78 76
89 88 88 88 88 89 90 90 88 87 87 86 86 87 85 85 84 84 83 82 82 81 80 80 79 79 79 79 77 77 76 77 78 77 77 77 77 77 77 78 77 76
88 88 89 90 90 90 90 91 91 89 88 87 87 87 86 84 84 84 83 81 81 80 80 80 79 79 79 79 78 78 77 76 77 77 77 77 77 77 78 77 77 76
89 90 89 89 90 91 91 92 92 91 89 88 88 87 86 85 83 84 82 81 81 80 80 79 79 79 78 79 79 79 78 78 77 77 77 78 78 77 78 77 77 77
89 90 90 90 90 90 91 92 92 90 90 89 89 88 86 86 84 83 82 81 81 80 80 80 79 79 78 79 80 79 78 78 78 78 78 78 78 78 78 78 77 77
90 89 88 90 89 89 90 90 91 92 91 90 90 89 87 85 84 83 82 82 81 81 81 80 79 79 78 78 78 78 77 77 78 78 78 78 78 79 79 79 78 77
90 88 88 88 88 87 88 89 89 89 88 87 87 87 87 86 85 83 83 82 81 81 80 80 79 79 78 78 77 77 77 77 77 78 78 78 78 78 79 80 79 78
88 89 88 88 87 87 87 87 87 87 87 86 85 85 86 86 86 84 82 81 81 81 80 80 80 79 79 78 77 77 77 77 77 78 78 77 77 78 78 78 78 77
88 88 88 87 86 86 85 86 86 86 86 85 85 85 85 85 85 83 83 82 81 80 80 80 79 79 74 69 72 77 77 78 78 77 77 77 77 76 77 77 77 78
88 87 87 86 86 86 85 85 85 85 85 84 84 84 84 83 83 82 83 82 81 80 80 79 79 79 68 66 69 72 77 77 77 77 77 77 77 76 75 75 75 75
88 87 86 86 86 85 85 85 85 85 84 84 84 84 83 83 83 82 82 82 81 81 80 80 80 70 64 66 68 68 72 78 78 78 78 77 77 76 75 75 74 74
87 87 86 85 85 85 85 85 84 84 84 84 84 83 82 81 81 81 81 81 81 80 80 80 81 66 65 65 66 66 67 72 79 78 77 77 77 77 75 73 73 73
87 86 86 85 85 85 85 84 84 83 84 84 84 82 81 80 81 80 80 80 79 79 78 79 80 65 64 63 65 65 66 69 77 78 77 77 77 76 75 74 73 73
86 86 85 85 84 84 83 83 83 83 83 83 84 82 80 79 80 79 79 80 80 79 79 79 81 63 62 62 63 64 65 68 76 77 77 76 76 76 74 74 74 75
84 84 84 83 83 83 83 82 83 82 82 82 83 83 82 82 81 81 79 79 79 78 79 77 79 61 63 62 63 63 64 70 74 75 75 75 75 74 74 74 75 75
84 83 82 83 83 82 82 82 82 82 82 82 82 82 83 81 80 81 79 79 78 78 78 77 77 62 61 61 62 62 63 71 74 74 74 73 73 74 74 75 75 76
84 83 82 82 81 81 81 81 83 82 82 82 82 82 82 83 82 80 79 79 78 78 79 77 79 64 58 59 61 60 64 72 73 73 72 72 73 74 74 73 74 76
84 83 83 82 81 81 82 81 82 82 83 83 82 82 82 82 82 81 80 79 80 79 75 77 80 66 55 58 57 57 65 73 72 72 71 72 73 72 71 72 71 71
84 83 82 82 81 81 81 82 82 82 82 82 81 81 80 81 81 81 80 81 81 79 78 79 79 70 61 55 55 55 61 73 72 71 71 72 73 72 70 70 71 70

ECMWFNIL_sfc_temp_015.txt.gz
Temp
82 81 81 81 81 80 80 79 79 79 79 79 78 79 79 80 80 79 80 79 77 77 77 76 76 75 76 74 74 75 74 74 73 73 73 72 71 72 72 72 71 70
82 82 82 82 80 81 80 81 80 80 79 79 79 79 79 80 80 80 80 78 77 77 77 76 76 75 74 74 74 73 73 73 73 75 73 72 72 72 73 72 72 71
82 82 82 81 81 81 81 81 81 80 80 80 80 80 79 81 79 80 79 78 77 77 76 76 75 75 74 73 73 74 73 72 72 75 73 72 72 73 72 73 73 72
82 82 82 82 82 82 82 81 81 80 81 80 80 81 81 80 80 80 79 80 77 76 77 76 76 75 74 73 73 72 72 71 72 72 72 73 73 72 72 71 72 71
82 82 83 83 83 83 82 81 81 81 81 81 81 81 80 80 80 79 79 78 77 77 76 76 76 75 74 73 73 72 72 71 71 72 70 71 72 73 72 72 70 71
82 82 82 83 82 82 82 82 82 82 82 81 81 81 81 81 80 79 79 78 78 78 77 77 76 75 75 73 73 72 72 72 72 72 71 70 71 73 74 73 71 70
82 82 82 83 83 83 82 82 82 82 82 82 81 80 81 80 80 79 78 78 78 77 77 76 75 75 75 73 72 72 72 72 72 72 71 70 71 71 73 72 72 71
83 83 83 83 83 82 82 82 82 82 82 82 81 81 81 81 80 80 79 78 78 77 76 76 75 75 75 74 72 72 72 73 72 72 71 70 70 70 70 72 71 70
83 83 83 82 83 83 83 83 83 82 82 82 82 82 81 81 80 80 79 78 78 77 76 76 75 75 75 74 73 72 72 73 73 72 72 71 70 71 71 71 70 70
83 83 83 83 83 83 83 84 84 83 83 82 82 82 81 80 80 80 78 78 78 77 76 76 75 75 74 74 74 73 72 72 72 72 71 72 72 71 71 71 71 70
83 83 83 83 84 84 84 85 85 84 83 83 82 82 81 80 79 80 78 77 77 77 76 75 75 75 74 74 74 74 73 73 72 72 71 71 72 72 73 71 71 71
83 83 83 83 84 84 85 85 85 84 84 83 83 82 81 81 79 79 79 77 78 77 77 76 76 76 75 74 75 74 74 73 73 72 72 72 71 71 72 71 71 70
83 83 83 84 84 84 85 85 85 86 85 84 84 83 81 80 80 79 79 78 77 77 77 76 76 76 75 75 74 74 73 73 73 73 72 72 72 73 73 73 72 72
84 84 84 84 84 84 84 84 84 84 84 83 83 82 82 81 80 79 79 78 78 77 77 77 76 75 75 75 75 74 73 73 73 73 72 72 72 72 73 74 73 73
84 84 84 84 84 83 83 83 83 83 83 83 82 82 82 82 81 80 78 78 78 77 77 77 76 75 75 75 74 74 73 73 73 72 72 72 71 72 72 72 72 73
84 84 84 84 83 83 83 83 83 83 83 82 81 82 81 81 80 79 79 78 77 77 77 76 76 76 72 68 71 74 73 73 72 72 72 71 71 71 71 72 72 73
84 83 84 83 83 83 83 82 82 83 82 81 81 80 80 79 79 79 79 79 78 77 76 76 76 76 67 65 68 70 73 72 72 72 71 71 71 71 71 71 71 71
84 84 83 83 83 82 82 82 82 82 81 79 79 79 78 78 78 78 78 78 78 77 76 76 76 69 64 65 66 67 71 73 72 72 72 71 71 71 71 71 70 70
84 84 83 83 83 83 83 82 81 80 80 79 78 78 77 77 77 76 77 77 77 76 76 76 77 66 63 64 65 66 68 72 72 71 72 72 72 71 71 70 70 69
84 84 83 83 83 83 82 81 81 80 79 79 78 77 77 77 76 76 76 76 76 76 76 76 76 63 63 62 64 64 66 70 72 73 72 73 73 72 71 71 70 69
84 83 83 83 82 82 81 81 80 79 79 78 79 78 77 76 76 76 75 76 76 76 75 75 75 60 61 61 62 63 65 69 73 74 73 73 73 73 71 71 71 71
84 83 83 82 82 82 81 80 80 79 78 78 77 77 76 76 75 76 75 75 74 74 73 73 69 59 61 61 61 62 64 70 73 72 71 71 72 72 72 72 72 70
84 84 82 82 82 81 80 80 79 78 78 77 76 76 76 76 75 76 75 75 73 73 73 72 68 61 60 60 61 61 64 72 72 72 71 70 69 70 71 71 70 70
85 84 82 82 81 80 80 79 80 79 78 78 77 76 75 76 76 74 74 75 74 74 75 74 71 62 58 59 60 60 65 72 71 71 71 70 69 70 70 69 71 75
84 84 83 81 80 80 80 79 79 78 77 78 78 77 76 75 75 74 74 74 75 75 71 75 73 63 56 58 59 59 65 71 70 70 70 70 69 68 69 69 68 73
84 82 82 81 80 80 80 79 79 78 77 77 77 77 75 76 75 74 74 74 75 74 74 76 72 67 60 57 58 58 61 71 70 69 69 69 69 68 67 67 67 67

ECMWFNIL_sfc_temp_018.txt.gz
Temp
80 79 79 79 78 79 78 78 77 77 76 77 76 76 76 77 77 77 77 77 76 75 75 75 74 73 74 73 72 72 71 71 72 71 70 69 69 69 69 68 67 67
79 80 79 79 78 79 79 79 78 78 77 77 77 77 77 77 77 78 77 77 76 75 74 75 74 73 73 73 72 71 70 71 71 72 71 69 69 69 70 68 68 67
80 79 79 78 79 78 79 79 79 78 78 78 78 78 77 78 77 77 77 77 76 76 74 75 74 72 72 72 72 72 71 70 71 71 70 69 68 69 70 69 67 69
80 80 80 80 80 79 79 79 78 78 78 77 77 78 78 78 78 77 77 78 76 75 74 75 75 73 72 72 72 72 71 71 71 70 70 70 69 70 69 68 69 69
80 80 80 80 80 80 80 79 79 79 78 78 79 78 78 77 77 77 77 77 76 75 74 74 75 73 72 71 71 71 71 71 70 70 69 69 69 70 70 70 69 69
80 80 80 80 80 80 79 79 79 79 79 79 78 79 78 78 77 77 77 76 76 76 75 75 74 74 73 71 71 71 71 70 70 70 70 69 69 70 71 70 69 69
80 80 80 81 80 80 80 80 80 79 79 80 79 78 78 78 77 77 77 77 76 76 75 75 74 73 73 72 71 70 70 71 70 69 70 69 69 69 70 70 69 69
80 81 81 81 80 80 80 80 80 80 80 79 79 79 79 78 77 78 78 77 76 75 75 75 74 74 73 72 71 70 70 71 70 69 69 68 68 69 69 70 70 69
81 80 80 80 80 80 80 81 80 80 80 79 79 79 79 79 78 78 77 77 76 75 75 75 74 74 74 72 72 71 71 71 71 70 70 69 68 69 69 68 68 69
80 80 80 80 80 81 81 81 81 81 80 80 80 80 79 79 79 78 77 76 76 75 75 75 74 74 73 73 72 72 71 71 71 71 71 70 70 69 68 68 68 67
80 81 80 80 80 81 81 82 82 82 81 80 80 79 79 78 78 78 77 76 76 75 75 74 74 74 73 73 73 72 72 72 71 70 70 70 70 69 70 68 68 68
80 81 80 80 81 81 81 82 82 82 81 81 81 80 79 79 78 78 77 76 76 76 75 75 74 74 74 73 73 73 72 72 71 70 70 70 70 69 69 69 69 68
81 80 81 81 81 81 82 81 82 82 82 81 81 81 79 78 78 77 78 77 76 76 75 75 74 74 73 73 73 72 72 71 71 70 70 70 69 69 70 69 69 69
81 81 81 81 81 81 81 81 81 81 81 81 81 80 80 79 78 77 78 77 77 76 76 75 74 74 73 73 73 73 72 71 71 70 70 69 69 68 69 70 70 70
81 81 81 81 81 81 80 80 80 81 81 81 80 80 80 80 79 78 77 76 76 76 76 75 74 74 74 74 73 72 72 71 71 70 70 69 69 68 68 69 69 70
81 81 81 81 80 80 80 80 80 80 80 80 79 80 79 79 78 77 77 76 76 75 75 75 74 74 71 66 69 73 72 72 71 71 70 70 69 68 68 69 70 70
81 81 81 80 80 80 80 80 80 80 79 79 79 79 79 78 77 77 77 77 76 76 75 75 75 74 66 64 66 69 72 72 71 70 70 70 69 69 68 69 69 69
81 81 80 80 80 80 80 80 80 79 79 79 78 78 78 78 77 77 77 77 76 76 75 75 75 69 64 64 66 66 70 73 72 71 70 70 70 69 70 70 69 69
81 80 80 80 80 80 80 80 79 79 78 78 78 78 78 77 77 77 76 77 76 75 75 76 76 68 63 63 65 65 67 71 72 72 71 70 70 70 70 70 69 69
81 81 80 80 80 80 80 79 79 78 79 79 78 77 77 77 77 76 77 76 76 76 75 76 76 65 62 62 63 64 66 69 73 72 72 71 71 71 71 71 70 70
81 81 80 80 80 80 80 79 79 79 79 79 78 77 77 76 77 76 76 76 76 76 76 75 76 61 61 61 62 62 64 68 73 73 72 72 72 72 72 72 71 71
82 81 80 80 80 80 79 79 79 79 78 78 78 78 78 77 77 77 76 76 76 76 75 74 72 59 61 60 61 61 63 71 73 72 72 72 72 72 72 72 71 69
82 81 80 80 80 79 79 79 79 78 79 78 77 77 77 77 77 77 77 76 75 75 74 73 67 60 59 59 59 60 63 72 73 73 72 71 71 71 72 71 70 69
83 82 81 80 80 80 79 80 80 80 79 78 78 77 77 77 77 76 75 75 75 74 74 71 68 61 57 57 58 59 64 72 73 72 71 71 70 70 70 69 70 73
84 83 82 81 80 80 81 80 80 79 79 78 79 78 77 76 75 74 73 73 74 74 69 71 70 62 56 57 57 58 65 73 72 72 70 69 69 68 68 68 69 73
84 82 82 82 81 81 81 81 81 80 78 78 78 78 76 74 74 73 72 72 72 72 71 73 71 67 60 56 57 57 60 72 71 69 68 67 67 67 66 66 67 68

ECMWFNIL_sfc_temp_021.txt.gz
Temp
79 78 78 77 77 77 77 76 76 76 76 76 75 75 75 75 76 75 75 75 75 74 74 73 73 72 72 71 71 70 70 70 70 69 68 68 67 67 68 66 64 65
78 78 78 78 77 77 77 77 77 76 76 76 76 76 76 75 75 75 75 74 75 74 74 74 73 72 71 71 70 70 69 69 69 70 68 67 67 66 68 67 66 65
79 78 78 77 77 77 77 77 77 77 77 76 76 76 76 76 75 75 75 75 74 74 74 74 73 72 71 70 70 70 70 68 69 69 69 68 67 67 68 67 66 66
78 79 79 78 78 77 78 77 77 77 77 76 76 76 76 76 76 75 75 76 75 74 74 74 73 72 71 71 70 70 70 69 70 69 68 68 68 68 68 66 66 66
79 79 79 79 79 78 78 77 77 77 77 77 77 76 76 76 75 75 75 75 75 74 74 73 73 72 71 70 70 70 69 69 68 68 68 68 68 68 67 67 66 66
79 79 79 79 79 78 78 77 78 78 77 76 76 77 76 76 76 75 75 75 75 75 74 73 73 72 71 70 70 70 70 69 69 68 68 68 67 67 69 67 66 66
79 79 78 79 79 78 78 78 78 78 78 78 77 76 76 76 76 76 75 75 75 75 74 73 72 72 71 70 69 69 69 69 69 68 68 67 67 66 67 67 67 67
79 79 79 79 78 78 78 78 78 78 78 77 77 77 77 76 76 76 76 75 75 74 74 73 73 72 71 70 69 69 69 70 69 68 68 67 66 67 66 68 67 66
80 79 79 78 78 78 78 78 78 78 78 77 77 77 77 77 76 76 76 75 75 75 74 73 73 73 72 71 70 70 69 69 70 69 68 68 67 67 67 66 66 66
79 79 79 79 78 79 78 79 79 79 79 78 78 78 77 77 77 76 76 75 75 74 74 73 73 73 72 71 71 71 70 69 69 69 69 69 69 68 67 67 67 66
79 79 79 78 78 79 79 79 80 80 79 78 78 78 77 77 76 76 76 75 75 74 74 73 73 73 72 72 72 71 71 71 70 69 69 69 69 68 69 67 67 67
79 79 79 79 79 79 79 80 80 79 79 79 79 78 77 77 76 76 76 75 75 75 74 74 73 73 73 73 72 72 71 71 70 70 69 69 68 68 68 67 68 67
79 79 79 79 79 79 79 79 79 80 80 79 79 79 78 77 76 76 76 76 75 75 75 74 73 73 73 73 72 72 71 71 70 69 69 68 68 68 68 68 67 67
80 80 79 79 79 79 79 79 79 79 79 79 79 78 78 77 76 76 76 76 75 75 75 75 74 73 73 73 72 72 71 71 71 70 69 68 68 68 68 68 68 68
80 80 80 79 79 79 78 78 78 79 79 79 78 78 78 78 77 77 76 75 75 75 75 75 74 73 73 73 72 71 71 71 70 70 69 68 68 67 67 67 68 68
80 80 79 79 79 78 78 78 78 78 78 78 78 78 78 77 77 76 76 75 74 74 74 74 74 74 70 65 68 73 71 71 70 70 69 69 68 67 67 67 68 69
79 79 79 78 79 78 78 78 78 78 77 77 77 77 77 77 77 76 76 76 75 74 74 74 74 74 66 64 65 68 71 71 71 70 69 69 68 68 67 67 68 69
79 79 79 78 78 78 78 78 78 77 77 77 77 76 76 77 76 75 76 76 76 75 74 74 74 68 64 63 64 65 68 72 71 71 70 69 69 69 69 69 69 69
79 79 78 78 78 78 78 78 77 77 77 76 76 77 77 76 75 75 75 76 76 75 75 75 75 67 63 62 63 64 65 70 72 72 71 70 70 69 69 69 68 68
79 79 78 78 79 78 78 77 77 77 77 77 77 76 76 76 75 75 75 75 75 75 75 75 75 65 62 61 62 63 64 68 73 72 71 71 71 70 70 69 69 69
79 79 79 78 78 78 78 77 77 77 77 77 77 76 76 75 75 75 75 75 75 76 75 74 76 64 61 60 60 61 63 65 73 72 71 71 71 70 70 70 70 69
80 79 79 78 78 78 77 77 77 77 76 77 77 77 77 77 76 76 75 75 75 75 75 74 75 62 60 59 59 60 62 68 72 72 72 71 71 70 71 69 69 69
80 80 79 78 78 78 77 77 77 77 77 77 76 76 76 76 76 76 76 76 75 75 74 74 74 62 59 58 58 59 61 70 71 72 72 71 71 70 69 69 68 68
81 80 79 78 78 78 77 78 78 78 78 78 77 76 76 76 77 76 76 76 75 75 75 74 75 62 57 57 58 58 62 70 71 71 71 71 70 68 68 68 69 73
81 81 80 79 78 78 79 78 78 78 78 78 78 78 77 77 76 76 76 76 76 76 70 73 75 62 55 57 57 57 63 71 70 70 70 69 69 68 68 67 67 72
82 81 80 80 79 79 79 79 79 79 78 78 78 78 77 77 76 76 75 75 75 76 74 75 73 65 59 56 56 56 59 70 71 69 68 68 68 67 66 66 66 68

ECMWFNIL_sfc_temp_024.txt.gz
Temp
78 78 77 77 77 77 77 76 76 76 76 76 76 76 76 77 77 77 76 76 76 76 76 75 75 75 74 73 73 72 72 72 72 72 71 71 71 71 71 70 69 70
78 78 78 78 77 77 77 77 77 76 76 76 77 77 77 77 77 77 76 76 76 76 76 76 75 74 74 73 72 72 71 71 71 72 71 70 71 70 72 71 70 69
78 78 78 77 78 77 78 78 77 77 77 77 77 77 77 77 77 77 77 76 76 76 76 75 75 74 73 73 72 72 72 71 71 72 71 70 71 70 71 72 70 70
78 78 78 79 78 78 78 77 77 77 78 77 77 77 77 77 77 77 76 77 76 76 76 76 75 74 73 73 72 72 72 71 72 71 71 71 70 70 70 70 71 70
78 78 79 79 79 78 78 77 78 77 77 77 78 77 77 76 76 76 76 76 76 76 76 75 75 74 73 72 72 71 71 71 71 71 70 70 70 70 70 70 70 70
78 78 78 78 78 78 77 78 78 78 78 78 77 77 77 77 76 76 76 76 76 76 76 76 75 75 73 72 71 72 72 71 71 70 70 70 70 70 71 70 70 70
78 78 78 79 79 78 78 78 78 78 78 78 78 77 77 77 76 76 76 76 76 76 76 75 74 74 73 72 71 71 71 71 71 70 70 70 70 69 70 70 70 70
79 79 79 79 79 78 78 78 78 78 78 78 77 77 77 77 76 77 76 76 76 75 75 75 74 74 73 72 71 71 71 71 71 70 70 70 70 70 70 70 70 69
79 79 79 79 79 79 79 79 79 78 78 78 78 78 77 77 77 77 76 76 76 75 75 75 74 74 73 72 72 72 72 71 72 71 70 70 69 70 70 70 69 69
79 79 79 80 79 79 79 80 80 79 79 78 78 78 77 77 77 77 76 76 75 75 75 75 74 74 73 73 72 72 72 72 71 71 71 71 71 71 71 70 70 69
79 80 79 79 79 80 80 80 80 80 79 79 79 78 77 77 77 77 76 76 75 75 75 75 75 74 74 73 73 73 73 73 72 71 71 71 71 71 71 70 70 70
79 80 80 79 79 80 80 80 81 80 80 79 79 78 77 77 77 76 76 76 76 76 76 75 75 74 74 74 74 73 73 73 72 72 72 71 72 71 72 71 71 71
80 79 79 80 79 79 80 80 80 81 80 79 79 79 78 77 77 76 77 76 76 76 76 76 75 75 74 74 73 73 72 72 72 72 72 71 72 72 72 72 72 71
80 79 79 79 79 79 79 79 79 79 79 79 79 78 78 77 77 76 77 77 77 76 76 76 75 75 74 74 74 73 73 72 72 72 72 71 71 72 72 72 72 72
79 80 79 79 79 78 78 78 78 78 79 78 78 78 78 78 78 78 77 76 77 76 76 76 76 75 75 74 73 73 73 73 72 72 72 71 71 71 71 71 71 72
79 79 79 79 78 78 78 78 78 78 78 78 78 78 78 78 78 77 77 77 76 76 76 76 76 76 71 65 68 74 73 73 72 72 72 72 71 70 70 70 71 72
79 79 79 78 78 78 78 78 77 78 77 77 77 77 77 77 77 77 77 77 77 76 76 76 76 75 66 64 65 67 73 73 72 72 72 72 71 71 70 70 71 71
79 78 78 78 78 78 78 78 78 77 77 77 77 77 77 78 77 77 77 77 77 77 76 76 76 68 64 63 64 65 68 74 73 73 72 72 72 71 71 72 71 71
79 78 78 78 78 78 78 78 77 77 77 77 77 77 77 76 76 77 76 77 77 76 76 77 77 68 63 62 63 64 65 70 74 74 73 72 72 71 72 71 71 71
78 78 78 78 78 78 78 77 77 77 77 78 78 77 77 76 77 77 77 76 76 76 75 77 77 67 62 61 62 62 64 67 75 74 73 73 72 72 72 72 71 69
78 78 78 78 78 78 77 77 77 77 77 78 78 77 77 76 76 76 76 76 77 77 76 76 78 64 60 60 60 61 62 65 74 74 73 73 73 72 72 72 70 69
79 78 78 78 78 78 77 77 77 77 77 77 77 78 78 78 78 78 77 76 77 77 76 75 78 62 59 59 59 59 61 68 73 73 73 72 72 72 72 71 69 69
79 79 78 78 78 77 77 77 77 77 77 78 77 77 78 77 77 78 77 77 76 76 76 76 77 64 58 58 58 58 61 70 72 73 72 72 72 72 71 70 69 70
79 79 78 78 78 77 77 78 78 78 78 78 77 77 77 78 78 78 78 77 77 76 77 76 77 65 56 57 57 57 62 71 71 72 71 71 71 70 69 69 70 71
80 80 79 79 78 78 79 78 78 78 79 79 79 78 78 78 78 77 77 77 79 78 70 75 78 67 55 57 56 56 63 72 71 71 70 70 70 69 69 69 69 72
80 79 79 79 79 79 79 79 79 79 79 79 79 79 78 78 78 77 77 77 78 78 77 77 77 72 60 55 55 55 59 71 71 70 69 69 69 68 67 68 69 70

ECMWFNIL_sfc_temp_027.txt.gz
Temp
82 82 82 82 82 83 83 82 83 83 83 84 84 84 84 84 85 84 85 85 84 85 85 84 84 84 84 83 82 82 81 81 82 82 81 81 81 82 81 81 81 81
82 82 82 83 82 83 83 83 83 83 83 83 84 85 85 85 85 85 84 84 84 84 84 84 84 83 83 83 83 82 82 81 80 83 81 80 81 81 82 81 81 81
83 82 82 82 83 83 85 84 83 83 84 84 85 85 85 85 85 84 84 84 84 84 84 84 84 83 83 83 82 82 82 81 80 83 80 80 81 81 82 84 82 81
82 83 83 84 84 84 84 84 83 83 84 84 84 85 85 85 85 84 84 83 83 83 84 84 84 85 83 83 82 81 81 80 81 81 80 80 81 81 81 81 82 81
82 83 84 84 84 84 84 83 84 84 84 84 85 85 84 83 83 84 84 83 83 84 83 83 84 84 83 82 82 81 81 81 81 80 80 79 80 80 81 80 80 80
83 83 83 83 84 83 83 84 84 85 85 86 84 85 85 84 84 84 84 84 84 84 84 84 84 84 83 82 82 81 81 82 81 79 79 79 80 81 81 80 79 79
83 83 83 84 84 84 83 83 84 84 85 85 85 84 85 84 83 83 84 84 84 83 84 83 83 83 83 82 81 81 80 80 81 79 78 79 80 79 80 80 79 79
84 85 84 84 84 84 83 84 84 84 84 84 84 84 84 85 83 84 84 84 84 83 83 84 83 83 85 83 81 80 80 80 80 79 78 79 79 78 79 79 79 78
84 84 84 84 84 85 86 86 86 85 85 84 85 86 84 85 84 85 83 83 83 83 83 83 82 83 84 83 81 80 79 80 80 80 79 79 79 78 79 79 78 78
83 84 85 86 86 86 86 87 88 87 85 85 85 86 85 84 84 84 83 82 82 82 83 82 82 83 83 82 80 80 80 79 80 79 80 80 80 79 80 79 79 78
85 85 85 85 86 87 87 88 88 88 87 86 86 86 85 84 83 84 83 82 82 82 82 82 83 83 83 82 81 81 81 81 80 79 79 80 80 80 79 80 79 79
84 86 86 86 86 87 88 88 89 88 88 87 87 86 85 85 83 83 83 82 82 83 83 83 83 83 82 81 83 82 81 81 81 80 80 80 80 80 80 80 80 80
86 85 84 86 85 86 87 87 88 89 89 87 87 87 86 85 84 83 83 83 82 83 83 82 83 83 82 81 81 81 81 80 81 81 80 80 80 81 82 81 81 81
85 84 84 84 85 84 85 86 86 86 86 86 86 85 86 85 84 83 83 83 83 83 83 83 83 83 82 81 81 81 81 80 80 80 81 80 80 81 82 82 81 82
84 85 84 84 84 84 84 84 84 85 85 85 84 84 85 85 85 85 83 83 83 83 83 83 83 82 82 82 81 81 81 81 80 80 80 80 79 80 80 81 81 82
84 84 83 83 83 82 82 83 83 84 84 83 83 84 84 84 84 84 85 84 83 83 83 83 83 83 75 67 71 81 81 81 80 80 80 80 79 79 80 80 81 82
84 83 83 83 83 83 83 83 83 83 83 83 83 83 83 83 83 84 85 85 84 84 83 83 84 83 67 65 66 68 78 81 80 79 80 79 79 78 78 78 80 80
84 83 83 82 83 82 82 83 83 83 82 82 82 83 82 83 83 82 83 84 84 84 84 83 84 72 65 64 65 65 69 80 81 81 80 79 80 79 79 79 79 79
84 83 83 82 82 83 83 83 82 82 82 82 82 83 83 81 81 82 82 83 84 83 84 85 85 72 64 63 64 64 64 72 82 81 80 80 80 79 80 79 79 79
84 83 83 82 83 83 82 82 82 81 82 83 83 83 82 82 82 82 82 82 83 83 82 85 85 71 63 62 62 62 63 68 82 81 81 81 80 80 80 79 79 78
84 83 83 83 83 82 82 82 82 82 82 83 84 83 82 81 82 81 82 82 83 84 83 84 86 68 61 61 60 60 61 65 80 81 80 80 80 80 80 80 79 79
84 83 83 83 83 82 82 82 82 81 81 82 83 84 85 84 83 84 83 82 83 83 83 83 86 65 61 60 59 59 60 72 78 79 80 80 80 80 80 79 80 79
85 84 83 83 82 82 82 82 81 81 82 83 83 83 84 84 83 84 83 84 83 82 82 83 85 70 60 59 58 57 62 75 77 79 79 79 79 80 79 79 79 79
84 84 83 82 82 82 82 82 83 83 83 83 83 83 84 85 85 84 84 84 84 83 84 84 85 72 57 58 57 56 64 76 77 78 79 79 79 79 79 78 78 73
85 84 84 83 82 82 83 83 83 83 84 84 84 84 84 85 85 84 84 84 86 86 74 81 86 75 56 58 56 55 65 77 78 78 77 79 79 78 79 79 78 74
86 84 83 83 83 83 84 84 84 84 84 84 85 85 85 86 85 85 84 84 85 84 84 84 84 83 66 56 55 55 59 76 79 78 78 78 79 79 78 77 77 77

ECMWFNIL_sfc_temp_030.txt.gz
Temp
87 87 87 87 88 89 88 88 89 89 88 90 90 90 90 90 91 91 91 90 90 90 90 89 89 88 89 88 88 87 87 86 87 87 86 87 87 87 87 87 87 87
87 87 87 88 87 88 88 89 88 89 88 89 90 91 91 91 91 91 90 90 90 90 90 90 89 88 88 89 88 87 86 86 86 89 87 86 86 87 88 87 87 87
88 87 87 87 89 88 91 90 89 89 90 90 91 91 91 92 91 90 90 90 90 91 89 89 89 88 88 88 88 87 86 85 85 90 87 86 87 86 87 89 88 87
87 88 89 89 89 89 90 89 89 89 90 90 90 92 92 92 91 91 90 89 89 89 90 90 89 90 88 88 87 87 87 86 87 87 87 86 86 87 86 87 88 87
87 88 89 89 90 89 89 89 90 90 90 90 91 91 90 90 90 91 90 89 89 89 89 89 89 89 88 88 87 87 88 87 87 86 85 85 86 86 87 87 86 86
88 88 88 88 89 89 89 89 89 90 90 92 90 91 91 90 90 90 90 90 90 90 91 90 90 90 90 88 87 87 88 89 89 86 85 85 86 87 88 87 85 85
88 88 89 90 90 89 89 89 89 90 91 91 91 90 91 90 89 89 90 90 91 89 90 89 88 88 89 88 87 86 87 87 88 87 85 86 85 86 87 86 84 84
89 90 89 89 89 89 89 90 90 90 90 90 91 90 91 92 90 91 90 90 91 89 89 89 88 87 90 89 87 86 87 88 88 86 85 85 85 84 85 86 85 84
90 90 89 89 90 91 92 92 92 90 91 90 91 93 91 91 91 91 89 89 89 89 88 88 88 88 88 88 88 87 86 87 88 87 86 85 85 85 85 85 84 84
89 90 92 92 92 92 92 93 94 93 91 91 91 93 92 90 91 90 89 88 88 88 88 87 87 88 88 88 88 87 86 86 87 87 87 86 86 86 86 85 85 84
91 92 92 91 92 94 94 95 95 95 93 92 93 93 93 91 89 90 89 88 88 88 87 87 88 88 87 89 89 89 87 87 87 86 86 86 86 86 84 85 85 85
91 92 93 92 93 93 95 95 96 96 95 94 93 92 92 93 90 89 89 88 88 88 88 88 88 88 87 88 90 90 88 88 88 87 87 86 87 87 87 86 86 86
92 91 90 93 92 93 94 94 95 97 97 95 94 93 93 92 91 89 89 89 88 88 89 88 88 88 87 87 88 88 88 87 88 88 87 87 87 88 89 88 88 87
92 90 90 90 91 90 91 93 93 93 93 94 93 92 93 92 92 89 89 90 89 89 89 89 88 88 88 87 87 88 87 87 87 88 88 87 87 88 89 90 89 89
90 91 90 90 90 90 89 90 91 91 92 92 91 91 92 93 93 92 90 89 90 89 89 89 89 88 89 89 88 87 88 87 87 88 88 87 87 88 88 88 89 89
90 89 89 89 88 88 88 89 90 90 90 90 90 91 90 91 91 91 92 90 89 89 89 89 89 89 80 71 75 87 87 88 87 87 87 87 86 86 87 87 89 91
89 88 88 87 87 88 88 88 88 89 89 89 89 89 89 89 89 90 92 91 90 90 90 89 90 88 71 68 68 71 84 87 87 86 87 87 87 85 85 86 87 88
89 88 87 87 87 87 87 87 88 88 88 88 88 89 88 90 89 89 89 91 91 91 91 90 90 75 67 66 66 67 72 86 88 87 87 87 87 86 86 86 86 87
88 88 87 87 87 87 87 87 87 87 87 88 88 88 89 87 87 88 88 89 90 89 90 91 92 73 66 65 65 66 66 76 88 88 87 87 87 86 86 86 86 86
88 88 87 87 87 87 87 87 86 86 87 88 89 88 87 87 88 87 87 87 88 88 88 91 91 73 65 63 63 63 65 70 87 88 88 87 87 87 87 86 85 85
88 88 87 87 87 87 86 86 86 86 87 88 90 89 87 87 87 87 87 87 89 89 89 90 92 71 64 62 61 61 63 67 84 87 87 87 87 87 86 87 86 86
89 88 87 87 87 87 86 86 86 86 86 87 88 90 90 90 89 89 88 88 88 89 89 88 92 70 63 61 60 60 61 75 82 83 85 86 86 86 86 86 86 86
90 88 87 87 87 86 86 86 86 86 87 88 87 89 90 90 89 91 89 90 88 88 88 88 91 76 62 59 59 59 64 79 81 83 84 85 85 86 86 86 86 86
90 89 88 87 87 86 86 87 88 88 88 88 88 88 90 91 91 90 90 90 90 89 90 89 90 78 60 59 58 57 66 80 81 82 83 84 84 86 86 85 85 77
91 90 89 88 87 87 88 88 88 88 89 89 90 89 90 90 91 91 91 90 93 93 77 85 91 81 59 59 56 56 67 81 82 83 82 83 84 84 85 86 85 78
91 89 88 88 88 88 88 89 90 90 90 90 90 91 90 91 91 91 90 91 93 91 92 91 90 91 74 56 56 55 60 80 83 83 82 82 84 84 84 84 85 86

ECMWFNIL_sfc_temp_033.txt.gz
Temp
89 89 89 89 90 90 90 90 91 90 90 92 92 91 91 92 92 93 93 92 91 91 91 90 90 89 90 89 89 89 89 88 89 89 88 88 88 89 88 88 88 88
89 89 89 90 89 90 90 91 90 90 90 90 92 93 92 92 93 93 93 92 92 91 91 91 90 89 89 90 89 88 88 88 87 90 88 88 88 88 89 88 89 89
89 89 90 90 91 91 93 92 91 91 92 92 92 93 94 94 93 92 92 93 92 92 91 91 90 90 90 90 89 89 89 87 87 90 88 87 89 88 88 91 89 89
89 89 91 91 92 91 92 91 91 91 92 92 92 94 95 95 93 93 92 91 91 91 91 91 91 91 90 90 89 89 89 88 89 89 88 88 88 89 88 89 89 89
89 90 91 91 92 91 91 91 92 92 92 93 94 93 92 92 92 93 92 91 91 92 91 91 91 91 89 89 89 88 89 89 88 87 88 88 87 88 89 88 88 88
90 90 90 91 91 91 91 92 92 93 93 94 93 94 94 93 93 93 92 92 93 93 93 93 91 92 91 89 88 88 89 90 89 88 87 87 88 89 90 88 87 86
91 90 91 92 92 92 91 91 91 92 94 94 93 93 94 93 92 92 92 92 92 91 93 91 90 90 90 89 88 87 88 88 89 88 86 87 87 87 89 88 86 86
92 93 92 92 92 92 91 92 92 92 93 93 94 93 93 94 92 93 92 92 93 91 91 92 90 89 92 90 88 88 88 90 89 88 86 86 86 86 87 88 86 85
93 92 92 92 93 94 94 94 94 93 93 93 94 95 93 93 93 93 91 91 91 91 90 91 90 90 90 90 89 88 88 89 89 89 87 87 87 86 87 87 86 85
92 92 94 94 94 95 95 96 97 95 94 94 94 96 95 93 93 93 92 90 91 90 90 90 90 90 90 90 89 89 88 88 88 88 89 89 88 87 87 87 86 85
94 95 94 94 95 96 97 97 98 97 95 95 95 96 96 94 92 93 91 90 90 90 90 90 90 90 89 90 90 90 89 89 88 88 88 88 88 88 86 87 86 86
93 95 95 95 96 96 97 98 98 97 97 96 96 95 95 96 93 92 91 90 90 90 90 90 90 90 89 90 92 92 90 90 89 89 89 88 89 89 88 88 87 86
95 94 94 96 95 96 97 97 98 99 99 98 97 96 96 96 95 92 91 91 90 91 91 90 90 90 89 89 90 90 90 89 90 89 89 89 89 89 90 89 89 88
95 93 93 93 94 93 94 96 96 97 97 97 96 95 96 95 96 93 92 92 91 91 91 91 90 90 89 89 89 90 90 90 89 89 89 89 89 89 91 91 90 90
93 94 93 93 93 93 93 94 94 94 95 95 94 94 95 95 96 96 92 91 92 91 91 92 91 90 90 90 89 89 90 90 89 89 89 88 88 89 90 90 90 91
92 92 92 92 92 91 91 92 93 93 94 93 94 94 93 93 94 94 95 93 91 91 91 91 91 91 82 73 77 89 89 90 90 89 88 89 88 88 89 90 91 93
91 91 91 90 90 91 91 91 91 93 92 92 93 93 93 91 92 94 95 94 93 92 92 91 92 91 72 69 70 74 86 89 89 88 88 88 89 87 87 88 90 91
92 91 90 90 90 90 90 90 91 91 91 91 92 93 92 93 92 92 92 94 93 93 93 92 93 77 68 68 69 69 75 89 90 89 89 89 89 89 88 89 89 90
91 90 90 90 89 90 90 90 89 90 90 91 91 92 93 90 90 91 91 92 93 91 93 93 94 75 67 66 68 68 69 79 91 90 89 89 89 88 89 88 88 89
91 90 90 89 90 89 90 89 89 89 90 91 92 91 90 90 91 90 90 90 91 91 90 93 94 74 65 65 66 66 67 73 90 90 89 89 89 89 89 89 88 88
90 90 89 89 89 89 89 88 88 88 89 90 92 92 90 89 90 90 90 90 92 92 92 93 96 71 63 63 64 64 65 70 88 90 89 89 89 89 89 89 89 88
91 90 89 89 89 88 88 88 88 88 88 89 91 93 92 92 91 92 91 90 91 91 91 91 95 69 62 63 62 62 64 77 86 87 88 89 89 89 89 88 89 88
92 91 89 89 89 88 88 88 88 88 89 90 90 91 93 92 91 93 91 91 90 90 90 90 94 75 60 61 61 61 66 81 84 86 86 87 88 89 89 89 88 89
92 91 90 89 89 88 88 89 90 90 90 90 90 91 93 94 93 92 92 92 92 91 92 91 93 78 58 59 59 59 68 82 84 85 85 85 86 88 88 88 87 78
93 92 91 90 89 89 90 90 90 90 91 91 92 92 92 93 93 92 93 92 95 94 79 88 93 82 58 60 57 58 68 83 84 85 84 84 85 85 87 88 88 81
93 91 90 90 90 90 90 91 92 92 92 92 92 93 92 94 94 93 93 93 94 94 94 93 92 93 74 57 57 57 60 81 85 84 84 84 85 85 86 86 87 88

ECMWFNIL_sfc_temp_036.txt.gz
Temp
86 85 85 85 85 86 86 86 87 87 86 87 87 87 86 87 88 88 88 88 87 87 87 87 87 87 87 86 86 86 85 85 85 84 84 84 83 85 84 84 84 82
86 86 85 86 85 85 86 87 87 86 86 86 87 87 87 88 89 89 88 88 87 87 87 88 87 86 86 86 86 85 84 85 84 87 84 84 83 84 85 84 84 83
86 86 86 86 87 87 89 88 87 87 88 88 89 88 89 90 89 88 88 88 88 89 87 87 87 86 87 86 85 85 85 84 84 87 84 83 84 83 84 87 85 85
86 86 87 88 88 88 88 87 87 87 89 88 88 90 91 91 89 89 88 88 87 87 88 88 87 88 86 86 85 85 85 84 85 85 84 84 84 84 84 84 85 84
86 86 88 88 88 88 87 87 89 89 89 89 90 89 88 88 88 89 88 88 87 88 87 87 87 87 86 86 86 84 85 85 85 84 83 83 83 84 85 84 83 83
86 86 86 87 87 87 88 88 88 89 89 91 89 90 90 89 89 89 89 89 90 90 89 89 88 88 88 86 86 85 85 86 86 84 84 83 84 85 86 84 83 82
87 87 88 89 89 89 88 88 88 88 90 90 89 89 90 90 89 89 89 89 89 88 89 87 86 87 87 86 85 84 84 85 85 84 83 83 83 83 86 84 82 82
88 89 88 88 89 89 88 89 89 89 89 89 90 89 90 91 89 90 90 89 90 88 87 88 87 86 88 86 85 84 85 86 86 84 83 83 83 82 83 84 83 81
89 89 88 89 90 90 91 91 91 90 90 89 91 92 90 90 90 91 88 88 88 88 87 88 86 87 87 86 85 84 84 85 86 85 83 83 83 83 83 84 83 82
88 89 90 91 90 91 91 92 93 92 91 91 91 93 91 90 90 90 88 87 88 87 87 87 87 87 87 87 85 85 84 84 84 85 85 84 84 84 84 83 83 82
90 91 90 90 91 92 92 93 93 93 92 92 92 92 92 90 89 89 88 87 88 87 87 87 87 87 86 87 87 86 85 85 85 85 85 85 84 84 84 83 83 83
90 91 91 91 91 92 93 94 94 94 93 92 92 92 92 92 89 89 88 87 87 88 88 87 87 87 86 87 88 88 86 86 86 85 85 85 85 85 85 84 84 83
91 91 90 92 91 92 93 93 94 95 95 93 93 93 92 93 91 89 88 88 87 88 88 87 87 87 86 86 87 87 86 86 86 86 85 85 86 86 87 86 85 85
92 90 90 90 90 89 90 92 93 93 93 93 92 91 92 92 92 89 89 89 89 88 88 88 87 87 87 86 86 87 86 86 86 86 86 86 86 86 88 88 87 86
89 90 90 89 89 89 89 90 90 90 90 91 90 91 92 92 93 93 90 89 89 88 88 89 88 88 88 87 86 86 87 87 86 86 86 85 85 86 86 87 87 87
89 89 89 89 88 87 87 89 89 89 90 89 90 90 90 90 90 91 92 90 89 89 89 89 88 89 81 73 77 86 86 87 86 86 85 85 84 84 86 86 87 88
88 88 88 87 87 88 87 88 88 89 89 88 89 89 89 88 89 91 93 92 90 90 89 89 89 89 73 69 71 74 84 86 86 85 85 85 85 84 83 85 86 87
89 88 88 88 87 87 87 87 88 88 88 88 89 90 88 90 90 89 89 91 91 91 90 89 89 77 69 68 69 70 75 86 87 86 86 85 85 85 85 85 85 86
89 88 88 88 87 88 88 88 87 87 88 89 89 89 90 88 88 89 89 90 91 89 90 90 90 76 68 66 68 68 69 78 88 87 86 86 85 85 85 84 84 85
89 89 88 88 88 88 88 87 87 87 89 90 90 89 88 88 89 88 88 88 89 89 88 90 90 76 66 65 66 66 68 73 88 87 87 87 86 86 86 85 85 84
89 88 88 88 88 88 87 87 87 87 88 89 91 91 88 87 89 88 88 88 90 90 89 90 92 73 65 63 63 64 66 69 85 87 86 86 86 86 86 86 85 85
90 88 88 88 88 87 87 87 87 86 86 88 89 92 91 91 90 90 89 89 89 90 90 89 93 72 64 62 62 63 64 73 82 84 85 86 86 86 86 85 86 85
91 89 88 88 88 87 87 87 87 86 87 88 88 90 91 91 90 91 90 90 89 88 88 88 91 77 63 61 61 61 64 76 80 84 84 85 85 86 86 86 86 86
90 89 88 88 87 87 87 87 89 88 89 88 88 89 91 92 92 90 91 90 90 89 90 89 90 79 60 59 59 59 66 77 80 82 83 83 84 85 85 85 85 78
91 90 89 88 87 87 88 88 88 88 89 89 90 90 90 90 90 90 91 90 93 92 79 86 90 82 60 59 57 58 65 78 80 81 82 82 83 83 85 85 85 79
91 89 88 88 88 88 88 88 89 90 89 89 90 90 90 91 91 91 90 91 92 91 91 89 89 90 75 56 57 57 59 77 81 81 81 81 83 83 83 84 84 85

ECMWFNIL_sfc_temp_039.txt.gz
Temp
82 81 81 81 81 81 81 81 82 82 80 81 80 81 81 82 83 83 82 82 82 82 81 81 81 81 82 81 81 80 80 80 80 79 79 79 77 77 78 77 75 75
81 82 82 82 81 81 81 82 82 82 81 80 81 81 82 82 83 84 82 82 82 82 82 82 82 81 81 81 80 80 79 79 79 81 79 79 78 78 78 77 77 75
82 81 82 81 82 81 82 82 82 82 82 83 82 82 81 83 83 83 83 82 82 83 82 82 82 81 81 81 80 80 80 79 79 81 79 79 78 78 78 79 77 76
81 82 82 82 83 82 83 82 81 82 83 82 82 83 84 84 83 83 83 83 82 82 83 83 82 82 82 81 81 80 80 79 80 80 79 78 79 79 78 78 79 78
82 82 83 83 83 83 83 82 82 82 83 83 84 83 83 83 83 83 83 83 82 82 82 82 82 82 82 81 81 80 80 79 79 79 78 78 78 79 79 78 77 78
82 82 82 83 83 82 82 82 83 83 83 83 84 85 83 84 84 84 83 83 83 83 83 83 82 83 82 81 81 80 81 80 80 80 78 78 79 80 81 79 77 77
82 82 82 83 83 83 83 83 83 83 84 84 84 84 85 83 83 84 84 84 83 83 83 82 82 82 82 82 81 80 80 80 80 80 79 78 78 78 81 79 78 77
83 83 83 83 83 83 83 83 83 83 84 84 83 84 85 85 83 84 84 84 84 83 83 83 82 82 82 82 81 80 80 81 80 79 79 79 78 78 79 80 78 77
83 83 83 83 83 84 84 84 84 84 84 84 84 85 85 86 85 84 83 84 84 83 83 83 82 82 82 82 81 80 80 80 81 80 79 79 78 78 79 79 78 77
83 83 83 84 83 84 84 85 85 85 85 84 85 86 84 85 85 85 83 83 83 83 83 83 82 82 82 82 81 81 80 80 80 80 80 80 80 79 79 79 79 78
83 84 83 83 84 85 85 86 86 86 86 85 85 85 86 85 84 85 84 82 83 83 83 83 83 83 82 83 82 82 81 81 81 80 80 80 80 80 81 79 79 79
83 84 84 84 84 85 86 86 87 87 86 86 86 86 86 86 84 84 84 83 83 83 83 83 83 83 83 83 83 83 82 82 81 81 81 80 80 80 81 80 80 80
84 84 84 85 84 85 86 86 87 88 88 87 87 87 86 85 85 84 84 84 84 84 84 83 83 83 83 83 83 83 82 81 81 81 81 81 81 81 81 81 81 81
85 84 84 84 85 85 85 86 86 87 87 87 86 86 86 86 85 84 84 84 84 84 84 84 84 83 83 83 83 83 82 81 81 81 81 81 81 81 82 82 81 82
85 85 85 85 85 84 84 85 85 86 86 86 85 86 86 87 87 86 85 84 84 84 84 84 84 84 84 83 83 82 83 82 82 81 81 81 81 81 81 82 82 82
85 85 84 84 84 83 83 84 85 85 85 85 85 85 86 86 86 86 86 85 84 84 84 84 84 84 79 72 75 83 83 83 82 82 81 81 80 80 81 81 82 83
85 84 84 83 83 84 83 83 84 85 85 84 84 85 85 85 85 86 86 86 85 84 84 84 84 84 72 68 69 72 81 83 82 81 82 81 81 80 80 81 81 82
85 84 84 83 83 83 83 83 84 84 84 84 84 84 84 85 85 85 85 86 85 85 85 84 85 75 69 67 68 68 72 83 83 82 82 81 81 81 81 81 81 82
85 84 84 84 83 83 83 83 83 83 83 84 84 85 85 84 84 85 85 85 85 85 85 85 85 74 68 66 66 67 67 75 84 83 82 82 82 82 81 81 81 81
85 85 84 84 83 83 83 83 83 83 84 85 85 85 84 84 84 84 84 84 85 85 84 86 85 75 67 65 65 65 66 70 84 83 83 82 82 82 82 82 81 81
85 85 84 84 84 83 83 83 83 83 83 84 85 85 84 84 84 84 84 84 86 86 85 85 87 73 66 64 63 63 65 67 82 83 83 82 82 82 82 82 82 82
86 85 84 84 84 83 83 83 83 83 83 84 85 86 86 86 85 86 85 84 85 86 86 85 87 71 65 63 62 62 63 72 79 81 82 82 82 82 82 83 83 82
86 85 85 84 84 83 83 83 83 83 83 84 84 85 86 86 85 86 86 86 85 85 84 85 86 74 63 61 60 60 63 75 78 80 81 82 82 82 82 82 82 82
86 86 85 84 84 84 83 84 84 84 85 84 84 85 85 87 87 86 86 86 86 85 86 85 86 76 60 59 58 59 65 76 78 79 80 81 82 82 82 81 82 77
86 86 86 85 84 84 85 84 84 84 85 85 85 86 86 87 86 86 86 86 87 87 79 83 86 79 60 58 57 58 64 77 78 79 79 80 80 81 81 82 82 78
87 85 85 85 85 85 85 85 85 85 85 85 85 86 85 86 86 86 86 87 86 86 86 85 85 85 74 56 56 56 59 75 78 78 78 79 80 80 80 81 81 82

ECMWFNIL_sfc_temp_042.txt.gz
Temp
80 79 79 79 78 79 79 79 79 79 78 78 78 78 78 79 80 80 80 80 80 79 79 79 79 78 79 78 78 78 77 77 77 76 76 76 74 74 74 72 71 72
79 80 80 79 78 78 79 80 79 79 78 78 79 79 79 79 80 80 79 79 80 80 79 79 79 79 79 78 78 77 77 77 77 78 77 76 76 75 75 73 72 72
80 79 79 79 79 79 79 79 79 79 79 79 79 79 79 80 80 80 80 80 79 80 79 79 79 79 79 79 78 78 77 77 77 78 77 76 76 75 75 75 73 73
79 80 80 80 80 80 80 79 79 79 80 78 79 80 80 81 80 80 80 81 79 79 80 80 79 80 79 79 78 78 78 77 78 78 77 77 77 77 76 75 75 73
80 80 80 80 81 80 80 79 79 79 80 80 80 80 80 80 80 80 80 80 79 79 79 79 79 80 79 79 79 78 78 77 78 77 77 76 76 77 77 75 74 74
80 80 80 80 80 80 80 80 80 80 80 80 80 80 80 80 80 80 80 80 80 80 80 80 79 80 80 79 79 79 78 77 77 77 77 77 77 77 78 76 75 74
80 80 80 80 80 80 80 80 80 80 81 82 81 80 80 80 80 80 80 80 80 80 80 79 79 79 80 79 78 78 78 78 77 76 77 77 76 76 78 77 76 75
80 80 80 80 80 80 80 80 80 80 80 81 81 81 81 81 80 81 81 81 81 80 80 80 79 79 80 79 78 78 78 79 78 76 76 76 76 76 76 77 76 75
81 80 80 80 80 80 80 81 81 81 80 80 81 82 82 82 82 82 81 80 80 80 80 80 79 80 80 79 79 78 78 78 79 78 77 76 76 76 76 77 76 76
80 80 80 80 80 81 81 81 82 82 81 81 81 82 81 82 82 82 81 80 80 80 80 80 80 80 80 80 79 79 78 78 78 78 78 78 77 77 77 77 77 76
80 81 80 80 80 81 81 82 82 82 82 82 82 81 82 82 81 81 81 80 80 80 80 80 80 80 80 80 80 80 79 79 79 78 78 78 78 78 78 77 77 77
80 81 81 81 81 81 82 82 83 82 82 82 82 82 82 82 81 81 81 80 81 81 81 81 80 80 80 80 81 80 80 80 79 79 79 78 78 78 78 78 77 77
81 81 81 81 81 81 82 82 83 83 83 83 83 83 82 82 82 81 81 81 81 81 81 81 81 81 80 80 80 80 80 79 79 79 79 79 79 79 79 79 78 78
81 81 81 81 81 81 81 82 82 82 83 83 82 82 82 82 82 81 82 82 82 81 82 82 81 81 80 80 80 80 80 80 79 79 79 79 79 79 79 79 79 79
81 82 82 81 81 81 81 81 81 82 82 82 82 82 82 83 83 83 82 81 82 82 81 82 81 81 81 81 80 80 81 80 79 79 79 78 78 79 79 79 79 79
81 81 81 81 81 80 80 81 81 81 81 81 81 82 82 82 82 82 83 82 81 81 82 81 81 82 77 70 73 81 80 81 80 79 79 79 78 78 78 79 79 80
81 81 81 80 80 80 80 80 80 81 81 81 81 81 81 81 82 82 83 83 82 82 81 81 82 82 71 68 68 70 79 81 80 79 79 79 78 78 77 78 79 79
81 81 80 80 80 80 80 80 80 80 80 80 81 81 81 82 82 82 82 83 82 82 82 82 82 74 69 67 67 66 70 81 81 80 80 79 79 79 79 79 79 79
82 81 81 81 80 80 80 80 80 80 80 80 81 81 82 80 81 81 81 82 82 82 82 83 83 73 68 66 66 66 66 72 82 81 80 80 79 79 79 79 79 78
82 82 81 81 81 81 81 80 80 80 80 81 82 81 81 81 81 81 81 81 82 82 82 83 82 73 67 65 64 64 65 68 81 81 81 80 80 80 80 79 79 79
82 82 81 81 81 81 80 80 80 80 80 81 82 82 81 81 81 81 81 81 82 83 82 82 84 72 66 63 62 62 63 65 78 81 81 81 81 80 80 80 80 79
83 82 81 81 81 81 80 80 80 80 80 81 82 83 83 83 82 82 82 81 82 82 82 82 85 70 64 63 62 61 62 70 76 79 80 81 81 80 80 80 80 80
84 83 82 81 81 81 80 80 80 80 81 82 81 82 82 82 82 83 83 82 82 82 81 82 83 73 63 61 60 60 62 72 75 77 79 80 81 81 81 81 80 81
84 84 82 82 82 81 81 81 82 82 82 82 82 82 82 83 84 83 83 83 83 82 82 82 83 75 61 59 58 59 64 74 76 77 78 79 80 80 81 80 81 76
85 84 84 83 82 82 82 82 82 82 83 83 83 83 83 84 83 83 84 84 84 83 78 81 83 76 58 59 57 58 64 75 77 77 77 78 78 79 80 80 81 78
85 84 84 84 83 83 83 83 83 83 83 83 83 84 83 84 84 83 83 84 84 83 83 82 82 82 67 57 57 57 59 74 77 77 77 77 78 79 79 80 80 80

ECMWFNIL_sfc_temp_045.txt.gz
Temp
79 78 78 77 77 77 77 76 76 76 76 76 75 76 76 77 77 77 77 77 77 77 77 77 77 77 77 76 76 76 75 75 76 75 74 74 73 73 72 71 69 69
78 78 78 78 77 77 77 77 77 76 76 76 76 76 76 76 77 77 77 77 77 77 77 77 77 77 76 76 76 75 75 75 75 76 75 74 74 73 73 72 71 70
78 78 78 77 77 77 77 77 77 77 77 77 77 76 76 77 77 77 77 77 77 77 77 77 77 77 77 76 76 76 76 75 75 76 75 74 74 74 74 73 71 71
78 78 78 78 78 77 78 77 77 77 77 75 76 77 78 78 77 77 77 78 77 77 77 77 77 77 77 77 76 76 76 76 76 76 75 75 75 75 74 73 73 72
78 78 79 79 79 78 78 77 77 77 77 77 77 77 77 76 76 77 77 77 77 77 77 77 77 77 77 77 76 76 76 75 75 75 75 74 75 74 75 74 72 72
78 78 78 78 78 78 77 77 77 77 77 77 77 78 77 77 77 77 77 77 77 77 77 77 77 77 77 77 76 76 76 75 75 75 75 74 75 75 76 74 73 72
78 78 78 79 78 78 78 78 78 78 78 79 77 77 77 77 77 77 77 77 77 77 77 77 77 77 77 77 76 76 76 76 76 75 75 75 75 74 75 75 74 73
79 79 79 78 78 78 78 78 78 78 78 78 77 77 77 78 78 78 78 78 77 77 77 77 77 77 77 77 76 76 76 77 76 75 75 75 74 74 74 75 75 73
79 79 78 78 78 78 78 79 78 78 78 78 78 78 78 78 78 78 78 77 77 77 77 77 77 77 77 77 76 76 76 76 77 76 75 75 74 75 75 75 74 74
78 79 79 79 78 79 79 79 80 79 78 78 79 79 78 78 79 79 78 77 77 77 77 77 77 77 77 77 77 77 76 76 76 76 76 76 76 75 75 75 75 74
79 79 78 78 78 79 79 80 80 80 79 79 79 79 79 78 78 78 78 77 77 77 77 77 77 77 77 77 77 78 77 77 77 76 76 76 76 76 77 75 75 75
79 79 79 79 79 79 79 80 80 80 80 79 79 79 79 79 78 78 78 77 78 78 78 78 78 77 77 77 78 78 77 77 77 77 77 77 77 77 76 76 76 75
79 79 79 79 79 79 80 80 80 81 81 80 80 80 79 79 79 78 79 79 78 78 78 78 78 78 78 77 78 78 77 77 77 77 77 77 77 77 77 77 76 76
79 79 79 79 79 79 79 80 80 80 80 80 80 79 79 79 79 79 79 79 79 79 79 79 78 78 78 78 78 78 78 77 77 77 77 77 77 77 77 77 77 77
79 80 79 79 79 79 79 79 79 79 79 79 79 79 79 80 80 80 79 78 79 79 79 79 79 79 79 79 78 77 78 77 77 77 77 77 77 77 77 77 77 78
79 79 79 79 78 78 78 78 79 79 79 79 79 79 79 79 79 79 80 79 79 79 79 79 79 80 75 69 71 79 78 78 78 77 77 77 76 76 76 77 77 78
79 79 79 78 78 78 78 78 78 78 78 78 78 78 78 78 79 79 79 80 79 79 79 79 80 80 70 66 66 68 77 78 78 77 77 77 77 76 76 76 77 77
79 79 78 78 78 78 78 78 78 78 78 78 78 78 78 79 78 78 79 79 80 80 79 79 80 72 68 66 65 65 68 78 79 78 78 77 77 77 77 77 77 77
79 79 78 78 78 78 78 78 77 77 77 77 77 78 79 77 78 78 78 79 79 79 79 80 80 71 67 65 65 64 64 70 79 79 78 78 77 77 77 77 77 77
79 79 78 78 78 78 78 78 77 77 78 79 79 78 78 78 78 78 78 78 79 79 79 80 80 72 66 64 63 63 63 66 77 79 79 79 78 78 78 78 77 77
79 79 79 79 79 78 78 78 77 78 78 78 79 79 78 77 78 78 78 78 79 79 79 79 81 70 65 63 61 61 62 63 74 77 79 79 79 79 79 79 78 78
80 79 79 79 79 78 78 77 78 78 77 78 79 79 80 79 79 79 79 78 79 79 79 79 81 69 65 63 61 60 61 67 72 75 77 78 79 79 79 79 79 79
81 80 79 79 79 78 78 78 78 78 78 79 78 79 79 79 79 79 80 79 79 79 78 79 80 72 64 61 60 60 61 70 72 74 76 77 78 79 79 79 79 79
82 81 80 80 79 78 78 79 79 80 79 80 79 79 79 80 80 80 80 80 80 79 80 79 80 74 63 60 59 58 63 71 73 74 75 76 77 78 79 79 80 75
83 82 81 80 79 79 80 79 79 79 80 80 80 80 80 81 80 80 80 81 81 81 76 78 80 76 63 60 58 57 63 73 74 74 74 75 76 77 78 79 79 77
84 82 82 81 80 80 81 81 81 81 80 80 80 81 80 80 81 80 80 81 81 80 81 80 80 80 73 59 57 56 58 72 75 74 74 75 76 76 77 78 78 79

ECMWFNIL_sfc_temp_048.txt.gz
Temp
78 78 77 77 77 77 76 76 76 76 75 76 76 76 76 77 77 78 78 78 78 78 78 77 78 78 78 78 78 77 77 77 77 77 76 76 76 76 75 75 74 73
78 78 78 78 77 77 77 77 76 76 75 75 76 76 77 77 78 78 78 77 78 78 78 78 78 78 78 78 77 77 77 77 77 78 76 76 76 76 76 76 75 74
78 78 78 77 78 77 78 78 77 76 76 77 77 77 77 78 77 77 78 78 78 78 78 78 78 78 78 78 77 77 77 76 76 78 77 76 77 76 76 77 76 75
78 78 79 79 79 78 78 77 76 76 77 76 76 77 78 78 78 77 77 78 78 78 78 78 78 78 78 78 77 77 78 77 78 77 77 77 77 77 77 76 76 76
78 78 79 79 79 78 78 77 77 77 77 77 78 77 77 77 77 77 77 77 78 78 78 78 78 78 78 78 77 77 77 77 78 77 76 76 77 77 77 76 75 75
78 78 78 78 78 78 77 77 77 77 77 77 77 78 78 77 77 77 77 77 78 78 78 78 78 78 78 78 77 77 77 77 78 77 77 76 77 77 77 77 76 75
78 78 78 79 79 78 78 77 78 78 78 78 77 77 77 77 77 77 77 78 78 78 78 77 77 77 78 78 77 77 77 77 77 77 77 77 76 76 77 77 76 76
79 79 79 79 79 78 78 78 78 78 78 78 77 77 77 78 78 78 78 78 78 78 77 78 78 77 78 78 77 77 77 78 77 77 76 76 76 76 76 77 77 76
79 79 78 78 78 79 79 79 79 78 78 78 78 78 78 78 78 78 78 77 77 77 77 77 77 78 78 78 77 77 77 77 78 77 76 76 76 76 77 77 76 76
78 78 79 79 78 79 79 79 80 79 79 78 79 79 78 78 79 78 78 77 77 77 77 77 77 77 77 78 78 77 77 77 77 77 77 77 77 77 77 77 76 76
79 79 78 78 79 80 79 80 80 80 79 79 79 79 79 78 78 78 77 77 77 77 77 77 77 78 77 78 78 78 78 78 78 77 77 77 77 77 78 77 77 77
79 79 79 79 79 79 80 80 81 80 80 79 79 79 79 79 78 78 78 77 78 78 78 78 78 78 77 78 78 78 78 78 78 78 78 78 78 78 78 78 78 77
79 79 78 79 79 79 80 80 80 81 81 80 80 80 79 79 79 78 78 78 78 78 78 78 78 78 78 78 78 78 78 78 78 78 78 78 78 78 79 79 79 78
79 79 78 78 79 78 79 79 80 80 80 80 79 79 79 79 79 78 79 79 79 79 79 79 78 78 78 78 78 78 78 78 78 78 78 78 78 79 79 79 79 79
78 79 79 78 78 78 78 78 78 78 79 79 79 79 79 80 80 80 79 78 79 79 79 79 79 79 79 78 78 78 78 78 78 78 78 78 78 79 79 79 79 80
78 78 78 78 78 77 77 78 78 78 78 78 78 79 78 79 79 79 80 79 79 79 79 79 79 79 75 68 70 78 78 79 78 78 78 78 78 77 78 79 79 80
78 77 78 77 77 77 77 77 77 78 78 77 78 78 78 78 78 78 79 80 79 79 79 79 80 79 69 65 66 68 77 78 78 78 78 78 78 77 77 78 79 79
78 77 77 77 77 77 77 77 77 77 77 77 77 78 77 78 78 78 78 79 79 80 80 79 80 71 67 65 64 64 67 78 79 78 78 78 78 78 78 78 78 79
78 77 77 77 77 77 77 77 77 77 77 77 77 78 78 77 77 78 78 78 79 78 79 80 80 70 66 64 64 64 63 69 80 79 79 79 78 78 78 78 78 78
78 77 77 77 77 77 77 77 77 76 77 78 78 78 77 77 78 77 78 77 78 78 78 80 80 71 65 63 63 62 63 65 77 79 79 79 79 79 79 79 79 78
78 78 77 77 77 77 77 77 77 77 77 78 79 78 77 77 77 77 77 78 79 79 79 79 81 69 64 62 61 61 61 63 75 78 79 79 79 80 79 80 79 79
79 78 78 78 77 77 77 77 77 77 77 78 78 79 79 79 79 79 78 78 78 79 79 78 81 68 64 62 60 60 61 68 73 75 76 78 79 79 80 79 80 80
79 79 78 78 78 77 77 77 77 77 77 78 78 78 79 79 79 79 79 79 79 78 78 78 80 71 63 61 60 59 61 71 73 74 75 76 77 79 79 80 80 80
80 79 79 78 78 77 77 78 79 79 79 79 78 78 79 80 80 79 80 80 79 79 80 79 79 73 62 59 59 58 63 72 73 74 75 75 77 78 79 79 80 75
81 80 80 79 78 78 79 79 79 79 79 80 80 80 79 80 80 79 80 80 81 81 75 77 80 75 62 59 58 57 63 74 74 74 74 75 76 77 78 79 79 77
82 80 80 80 79 79 79 80 80 80 80 80 80 80 80 80 80 80 79 80 81 81 81 80 80 80 74 59 58 56 58 73 75 74 74 75 76 76 77 78 78 79

ECMWFNIL_sfc_temp_051.txt.gz
Temp
83 83 83 83 83 84 83 83 84 84 83 85 85 85 85 85 85 85 85 85 85 85 85 84 84 84 85 84 84 84 84 84 85 86 85 85 85 85 85 85 85 84
82 83 83 83 83 83 84 84 84 84 83 84 85 86 85 85 86 86 85 85 85 85 85 85 84 84 84 85 84 84 84 84 84 86 84 84 84 85 86 85 86 85
83 83 83 83 84 84 86 85 84 84 85 85 85 85 86 86 86 85 85 85 85 86 85 85 85 84 84 85 84 84 85 83 83 87 84 84 85 85 85 88 87 86
83 83 84 85 85 85 85 84 84 84 85 85 85 86 86 87 86 85 85 84 85 85 86 85 85 86 85 85 84 84 85 84 85 85 84 84 84 85 85 85 86 86
83 83 84 85 85 85 85 84 85 85 85 85 86 85 84 84 84 86 85 85 84 85 85 85 85 85 84 84 84 84 84 85 85 84 83 83 84 84 85 85 84 84
83 83 83 84 85 84 84 85 85 85 85 86 85 86 86 85 85 85 85 85 86 86 86 87 86 86 86 85 84 84 85 86 86 84 83 83 84 86 87 85 84 83
84 84 84 85 85 85 84 84 85 85 86 86 86 85 86 86 85 85 85 85 86 85 86 85 84 85 85 85 84 83 83 83 84 84 83 83 83 84 86 85 84 83
85 85 85 85 85 85 84 85 85 85 85 85 85 85 86 86 85 86 85 85 86 85 85 85 84 84 86 85 84 83 84 85 84 83 82 83 83 83 84 85 84 83
85 85 85 85 85 86 87 87 86 85 86 85 86 87 86 86 86 87 85 84 85 84 84 84 84 84 85 85 84 84 83 85 85 84 83 83 83 83 84 84 84 83
84 85 86 86 86 87 87 88 88 87 86 86 86 88 86 85 86 86 85 84 84 83 84 84 84 84 85 85 84 84 84 83 84 84 84 84 84 85 85 84 84 83
85 86 86 86 87 88 88 88 89 89 87 87 87 87 87 86 85 85 84 83 84 83 83 83 84 84 84 85 85 85 85 85 84 84 84 84 84 84 84 84 84 84
85 86 86 86 87 88 88 89 89 89 88 87 88 87 87 87 85 85 84 83 84 84 84 84 84 84 84 84 86 87 85 85 85 85 85 85 85 85 85 85 85 85
86 86 85 87 86 87 88 88 89 89 89 88 88 87 87 87 87 84 84 84 84 84 85 84 84 84 84 84 84 85 85 85 85 85 85 85 85 86 87 87 86 86
86 85 85 85 86 85 86 87 87 88 87 87 87 86 87 87 87 85 85 85 85 85 85 85 84 84 84 84 84 84 85 85 85 85 85 85 85 86 87 88 87 87
85 85 85 85 85 84 84 85 85 85 85 85 85 85 86 87 88 87 86 85 86 85 85 85 85 85 85 85 84 84 85 85 85 85 85 85 85 86 86 86 87 88
84 84 83 83 83 82 83 84 84 84 84 84 84 85 85 85 86 86 87 86 85 85 85 85 85 86 79 71 74 84 85 85 85 84 84 84 84 84 86 86 87 88
83 83 83 82 82 82 82 83 83 83 83 83 83 84 84 83 84 85 86 87 86 86 86 85 86 85 71 66 67 69 81 85 84 84 84 84 84 83 83 85 86 87
83 83 82 82 82 82 82 82 83 83 82 82 83 83 83 84 84 84 84 86 86 87 87 86 87 75 67 65 66 65 69 83 85 85 85 85 84 84 85 85 85 87
83 82 82 82 82 82 82 82 82 82 82 83 83 83 84 82 82 83 83 84 85 84 86 87 88 73 65 64 64 64 64 73 85 86 85 85 85 85 85 84 84 85
82 82 82 82 82 82 82 81 81 81 83 84 84 83 82 83 83 83 83 83 84 84 84 86 87 74 64 63 63 62 63 67 84 85 85 85 85 85 85 85 84 84
82 82 82 82 82 82 81 81 81 81 82 83 85 84 83 82 83 83 83 83 85 85 85 86 88 70 63 62 61 60 61 65 82 84 84 84 85 85 85 85 85 85
83 82 82 82 82 82 81 81 81 81 81 82 83 85 85 85 84 85 84 84 84 85 85 84 88 69 62 61 60 60 60 74 80 81 82 84 84 85 85 85 85 85
84 83 82 82 82 81 81 82 81 81 82 83 83 84 85 85 85 86 85 85 84 84 83 84 87 74 62 60 59 58 63 78 80 81 81 82 83 84 85 85 85 85
84 84 82 82 82 81 82 82 83 84 83 83 83 84 85 86 86 85 86 86 86 85 86 84 86 76 60 59 58 57 65 79 80 80 81 81 82 84 84 84 85 79
85 84 84 83 82 83 83 83 83 83 84 85 85 85 85 86 86 86 86 86 88 87 78 83 87 79 61 60 57 57 66 80 81 81 80 81 82 82 83 84 84 81
85 84 84 84 83 83 84 84 85 85 85 85 85 86 86 86 86 86 85 86 88 87 87 86 86 86 76 58 58 56 59 78 81 80 80 80 82 82 83 83 84 84

ECMWFNIL_sfc_temp_054.txt.gz
Temp
87 87 87 87 88 89 89 88 90 90 89 92 92 91 91 91 91 92 92 91 90 91 90 89 89 89 90 89 89 88 89 89 90 91 89 89 89 90 90 90 90 90
87 87 87 88 88 88 89 90 89 89 89 89 92 93 92 92 92 92 91 91 91 91 90 91 89 89 89 90 89 88 88 89 88 92 89 88 89 90 91 90 91 91
88 88 88 88 89 89 91 90 89 90 91 91 92 92 93 92 92 91 91 91 91 92 90 90 90 89 90 90 89 89 89 87 88 92 89 88 90 90 90 93 92 91
87 88 89 90 90 90 90 90 90 89 91 91 91 93 93 94 92 92 90 90 91 90 92 91 90 91 90 90 89 89 89 88 89 89 88 89 89 90 90 90 92 92
88 88 89 90 90 90 90 90 91 91 91 91 93 92 91 90 91 92 91 90 90 91 91 90 90 91 90 89 89 88 89 89 89 88 87 87 88 89 91 90 90 90
88 88 88 89 89 89 90 90 90 92 91 93 92 93 92 91 91 92 92 92 92 92 93 93 91 92 92 90 89 89 90 91 91 88 88 87 89 90 92 91 89 88
89 88 89 90 91 90 90 90 90 91 92 93 92 92 92 92 91 91 91 91 92 92 93 91 90 90 91 90 88 88 88 89 90 88 87 88 88 88 91 90 88 88
90 91 90 90 91 91 90 91 91 90 91 92 92 91 92 93 91 92 92 91 92 91 91 92 90 89 92 91 89 88 88 91 90 88 87 87 88 87 88 90 89 88
91 91 90 90 91 92 93 93 92 92 92 91 93 94 92 92 92 93 90 90 90 90 90 90 89 90 90 91 90 88 88 90 91 89 88 88 88 87 88 89 89 88
90 91 92 92 92 93 93 94 95 94 92 92 93 95 93 91 92 92 91 89 89 89 89 89 89 90 90 91 90 89 89 88 89 89 89 89 89 89 89 89 89 88
92 93 92 92 93 95 95 95 96 96 94 93 94 94 94 93 91 92 90 89 89 89 89 89 89 89 89 91 91 91 90 90 89 89 89 89 89 89 89 89 89 89
91 93 93 93 93 95 96 96 97 96 96 94 94 93 93 94 92 91 90 89 89 89 89 89 89 89 89 90 92 93 91 91 91 90 90 89 90 90 90 90 90 90
93 93 92 94 93 95 96 96 96 97 97 95 95 94 94 94 93 90 90 90 89 90 90 89 89 90 89 89 90 91 91 90 91 91 90 90 91 91 93 92 92 91
93 92 91 91 93 92 93 95 95 96 95 95 93 93 94 94 94 91 91 91 90 90 90 90 89 90 89 89 89 90 91 90 90 90 91 91 91 92 93 94 93 94
91 92 91 91 91 90 91 92 93 93 93 93 92 92 94 95 95 94 92 91 91 90 90 91 91 90 90 90 89 89 90 91 90 90 90 90 91 92 92 92 93 94
90 90 90 90 89 89 89 90 91 91 92 91 91 91 92 92 92 93 94 92 91 91 91 91 91 92 84 75 79 89 90 91 91 90 90 90 89 89 91 92 93 95
89 89 89 88 88 88 88 89 89 90 90 89 90 90 90 89 91 92 93 93 92 92 92 92 92 92 74 68 70 73 87 90 90 89 89 89 89 88 88 90 93 93
89 88 87 87 87 87 87 88 89 89 88 88 89 89 88 91 90 90 90 93 93 93 93 93 93 80 68 67 68 68 74 89 91 90 91 90 89 90 90 90 91 93
88 88 87 87 87 87 87 87 87 87 88 88 89 89 90 88 88 89 89 90 92 91 93 94 94 75 66 66 66 66 67 77 91 92 91 91 91 90 90 90 90 90
87 87 87 86 87 87 87 87 87 86 88 89 90 89 88 88 89 88 88 88 89 90 89 93 94 75 65 63 65 64 65 70 89 90 91 91 90 91 91 90 89 89
87 87 86 87 86 86 86 86 86 86 87 89 91 90 88 87 88 88 88 89 90 91 90 92 96 69 63 62 62 62 63 68 86 88 89 89 89 90 89 90 90 90
88 87 86 87 86 86 86 86 86 86 86 88 89 92 91 91 90 90 90 89 89 90 90 90 94 68 61 62 61 61 62 78 84 85 86 88 89 89 89 89 90 89
89 88 87 87 86 86 86 86 86 86 87 88 88 90 92 91 90 91 90 91 90 89 89 90 93 75 60 60 59 59 65 83 84 86 85 86 87 88 89 89 89 89
89 89 87 87 86 86 86 87 88 88 88 88 89 90 92 93 92 91 91 91 91 90 91 90 92 78 59 59 58 57 69 83 85 85 85 85 86 87 88 88 89 83
90 89 89 88 86 87 88 88 88 88 89 89 91 91 91 92 92 91 92 92 95 94 82 88 93 82 59 60 56 56 69 84 85 85 84 85 86 86 87 88 88 85
90 88 88 88 87 87 88 88 89 90 90 91 91 92 92 93 93 92 91 92 94 93 94 92 91 92 74 57 57 56 60 82 86 85 85 85 86 86 88 88 88 89

ECMWFNIL_sfc_temp_057.txt.gz
Temp
89 89 89 90 90 91 90 90 92 91 91 93 93 92 92 92 93 93 93 92 91 91 91 90 90 90 91 90 90 90 90 90 91 91 90 90 90 91 92 92 92 91
89 89 89 90 90 90 91 92 91 91 90 91 93 93 93 93 94 93 92 92 91 91 91 91 90 90 90 90 90 89 89 90 89 93 90 90 90 91 92 92 92 92
89 89 90 90 91 91 94 93 91 92 93 93 94 94 95 94 93 92 92 92 91 92 91 91 91 90 90 90 89 89 89 88 89 93 90 89 91 91 91 94 93 93
89 90 91 92 92 92 93 92 92 91 93 93 94 96 96 97 94 93 92 91 91 91 92 92 91 91 90 90 90 90 90 89 90 90 90 90 90 91 91 92 93 94
90 90 91 92 93 92 92 92 93 93 93 93 95 94 93 93 92 93 92 92 91 92 92 91 91 91 90 90 90 89 90 90 90 89 89 89 89 90 92 92 91 91
90 90 90 91 92 91 92 92 93 94 93 95 94 95 95 95 93 93 92 93 93 94 94 93 92 92 92 90 89 89 90 92 92 89 89 88 90 91 93 92 90 90
91 91 91 93 93 93 92 92 92 93 94 95 94 94 95 94 93 93 92 93 93 92 94 92 90 91 91 90 89 88 89 90 91 89 88 89 89 90 92 92 90 90
92 92 92 92 93 93 92 93 93 93 94 94 95 94 95 95 93 95 94 93 94 92 92 93 91 90 93 92 89 89 89 92 91 89 88 88 89 88 89 91 91 89
93 92 92 92 94 94 95 95 95 94 95 94 96 96 95 95 94 95 93 93 93 92 91 93 91 92 92 92 90 89 89 91 92 90 89 88 89 88 89 90 90 89
92 93 94 95 95 95 95 96 96 96 95 95 96 97 95 94 95 94 93 91 92 92 92 92 92 92 92 92 91 90 89 89 90 90 90 90 90 90 90 90 90 89
94 95 94 94 95 96 96 97 98 98 96 95 96 97 97 95 93 94 92 91 92 92 91 91 92 92 91 93 93 92 91 91 90 90 90 90 90 90 90 90 90 90
94 95 95 95 96 97 98 98 99 99 97 96 97 96 96 97 94 94 93 91 91 92 92 91 91 91 91 92 94 94 92 92 92 91 91 91 91 91 91 91 91 90
95 95 94 96 95 97 98 98 98 99 99 97 97 96 96 97 96 93 93 92 91 92 92 91 91 92 90 90 92 93 92 91 92 92 91 91 91 92 93 93 93 92
95 95 94 94 95 94 95 98 98 98 97 97 96 95 96 97 97 94 94 94 92 92 92 92 91 92 91 90 91 92 93 92 92 92 92 92 92 92 94 95 94 94
93 95 94 94 94 93 94 95 95 96 96 96 94 95 96 98 98 97 94 93 93 92 92 93 93 92 92 91 90 91 92 93 92 92 92 92 92 93 93 94 95 96
92 92 92 93 92 91 91 93 95 94 95 94 94 95 94 94 94 95 96 94 93 92 93 94 93 94 87 79 82 91 91 94 93 91 91 91 91 91 93 94 95 97
92 92 92 91 91 91 91 92 93 94 93 93 93 93 93 92 94 95 96 95 94 94 93 94 95 95 77 71 73 77 89 91 92 91 91 91 92 90 90 92 94 95
92 91 90 90 91 90 90 91 92 93 92 92 93 93 92 94 94 94 93 96 95 95 95 95 95 82 69 70 71 71 77 91 93 93 92 91 91 92 91 92 93 95
90 91 90 90 90 90 90 90 90 91 91 92 93 93 93 91 91 93 93 94 95 93 94 95 96 76 67 68 69 69 69 80 94 94 93 93 92 91 92 91 91 92
90 90 90 89 90 90 90 89 90 90 92 93 94 92 90 91 92 91 92 91 93 93 92 95 97 74 66 65 68 66 68 73 92 94 94 94 93 93 93 92 91 91
90 90 89 89 89 89 89 89 89 89 91 92 94 93 90 90 91 91 91 92 94 95 94 95 100 68 65 63 64 64 66 71 89 92 93 92 93 93 92 92 92 92
91 90 89 89 89 88 88 88 89 88 89 91 92 95 94 93 92 93 92 92 92 93 94 92 96 62 65 62 63 63 64 80 86 87 88 90 91 92 92 91 92 91
91 90 89 89 88 88 88 89 88 88 89 91 91 94 94 93 92 94 92 93 92 92 92 91 95 68 62 61 62 61 67 84 86 87 86 87 89 90 91 91 91 91
91 91 89 89 88 88 88 89 91 91 91 91 92 93 95 95 95 93 94 94 93 92 93 93 95 74 58 60 60 59 71 85 85 86 86 86 87 89 90 90 90 87
92 91 90 90 88 89 90 90 90 90 91 92 94 94 94 95 94 94 95 94 97 96 85 91 96 81 57 60 58 57 72 86 86 86 85 86 87 88 89 90 89 87
92 90 90 90 89 89 90 90 91 92 92 92 93 94 95 97 96 95 94 95 97 96 95 94 95 92 70 58 57 56 63 85 87 86 85 86 87 87 88 89 89 90

ECMWFNIL_sfc_temp_060.txt.gz
Temp
86 85 86 85 85 86 86 86 87 87 85 88 87 87 86 87 88 88 89 88 87 88 88 87 87 87 89 88 87 86 85 86 87 87 86 87 86 87 88 88 87 86
86 86 85 86 85 85 86 87 86 86 85 86 87 87 87 88 90 89 88 88 88 88 88 88 87 87 87 87 87 86 86 86 86 91 87 87 86 88 89 88 88 87
87 87 87 87 88 88 91 89 87 88 88 89 89 88 89 90 89 88 88 88 88 89 88 87 87 87 87 87 86 86 86 85 86 89 87 86 87 86 87 91 89 89
86 87 88 89 89 89 90 88 88 87 89 88 89 92 91 93 90 89 88 88 87 87 88 88 87 88 87 87 86 85 86 85 86 87 86 87 86 87 87 87 89 89
87 87 88 89 89 88 89 89 90 89 90 89 91 89 88 88 88 89 88 88 87 88 87 87 88 88 87 86 86 85 86 86 86 86 85 85 86 86 88 87 87 87
87 87 87 88 88 88 89 90 90 90 90 92 90 91 91 90 89 90 89 89 90 90 89 89 88 89 88 86 86 85 86 87 87 85 85 85 86 87 89 88 86 86
88 88 89 90 90 90 89 89 89 90 91 92 90 90 91 91 90 89 88 89 90 88 90 87 86 87 87 86 85 85 85 85 86 85 84 85 85 86 89 88 86 86
89 90 89 89 91 91 90 90 90 90 90 90 91 90 91 92 90 91 90 89 90 88 88 89 87 86 89 87 85 85 85 88 87 85 84 84 85 84 85 88 87 85
89 89 89 90 91 91 92 92 92 92 91 91 92 93 91 91 91 92 88 88 89 88 87 88 86 87 88 87 86 85 85 87 88 87 85 85 85 84 86 86 86 85
89 89 90 91 91 92 92 93 93 93 92 92 93 94 92 91 91 91 89 87 88 87 87 87 87 87 88 88 86 86 85 85 86 86 86 86 86 86 86 86 86 85
90 91 90 90 92 93 93 94 94 94 93 93 93 94 93 92 90 90 88 87 88 88 87 87 88 87 87 89 88 88 87 87 86 86 86 86 86 86 87 85 85 86
90 91 91 91 92 93 93 94 95 94 94 93 94 93 93 93 91 90 89 88 88 88 88 87 87 87 87 88 90 90 88 88 87 87 87 87 87 87 87 87 87 86
91 91 91 92 92 93 94 94 94 95 94 94 94 94 94 93 93 90 89 89 88 89 89 88 88 88 87 87 88 88 88 87 88 87 87 87 88 88 89 88 88 88
91 91 90 90 91 90 91 94 94 94 93 93 93 93 94 94 93 91 91 91 90 89 89 89 88 88 87 87 87 88 88 88 88 88 88 88 88 88 89 90 89 90
90 91 91 90 90 89 90 91 92 92 92 91 90 92 94 95 95 93 91 90 91 89 89 90 90 89 89 88 87 87 88 89 88 88 88 87 87 89 89 89 90 91
88 89 89 89 89 87 88 89 91 90 91 90 90 91 91 91 91 91 93 91 90 89 90 90 90 91 85 78 81 88 88 90 88 87 87 87 86 86 88 89 90 92
88 88 88 87 87 87 88 88 89 90 90 89 89 90 89 88 90 91 93 92 91 91 90 90 92 91 77 71 73 78 87 87 87 86 87 86 87 85 85 88 89 90
88 88 87 87 87 87 87 88 89 89 88 88 89 90 88 91 91 90 90 92 92 91 91 90 91 82 71 70 71 72 78 88 89 88 88 87 87 87 87 87 88 90
88 88 87 87 87 87 87 87 87 88 88 90 91 90 90 88 88 90 90 91 91 89 90 91 91 78 68 69 69 70 71 82 90 89 89 88 88 87 87 86 86 86
88 88 87 87 87 87 87 87 87 87 90 92 92 90 88 88 90 89 89 88 90 89 88 91 92 75 66 66 68 68 69 74 89 90 89 89 88 88 89 87 86 86
88 88 87 87 87 87 87 87 87 87 89 90 93 92 88 87 89 89 89 89 91 91 90 92 95 70 65 64 65 66 68 72 86 89 89 88 87 88 87 88 87 87
89 88 87 87 87 87 87 87 87 86 87 89 91 94 92 91 90 91 90 90 90 91 92 89 94 65 64 63 64 65 67 78 84 85 86 87 87 88 87 87 87 87
90 89 88 87 87 87 87 87 86 86 88 89 90 92 92 91 90 92 90 91 90 89 90 89 92 68 63 62 63 63 68 80 83 84 84 85 85 86 87 87 88 87
90 89 88 87 87 87 87 88 89 89 90 90 90 91 92 93 92 91 91 91 91 90 92 89 92 71 59 61 62 61 70 81 82 83 83 83 84 85 86 85 87 88
91 90 89 88 87 88 89 88 88 88 90 90 92 92 92 91 90 90 91 91 94 93 84 89 93 75 56 61 60 59 70 82 82 83 82 82 83 83 85 85 86 85
91 88 88 88 87 88 88 88 89 91 90 91 91 92 92 93 92 91 90 92 93 92 91 92 92 85 64 59 58 57 63 82 83 81 81 82 83 83 83 84 85 86

ECMWFNIL_sfc_temp_063.txt.gz
Temp
81 80 81 80 79 81 81 79 78 79 79 79 80 80 81 81 83 83 82 82 82 81 81 82 81 82 83 80 80 81 81 81 82 81 81 81 80 81 82 81 79 78
81 81 81 81 79 79 80 81 80 80 78 79 80 79 80 81 82 83 82 82 82 82 81 82 81 81 81 80 80 80 78 80 80 84 81 80 80 81 82 81 81 80
82 81 81 81 81 80 82 82 81 81 81 81 81 81 81 83 82 82 82 82 82 83 82 81 82 81 81 80 80 80 80 78 79 82 81 80 80 81 80 83 81 81
81 82 82 83 83 82 82 82 81 82 82 80 81 83 84 85 83 82 82 83 82 82 82 82 82 82 81 81 80 79 80 79 79 79 79 80 81 81 81 80 80 82
82 82 83 83 83 83 83 82 83 82 83 83 83 83 83 83 82 82 82 82 82 82 82 81 81 82 81 80 80 80 80 79 79 79 78 78 80 81 81 80 79 80
82 83 83 83 83 83 83 83 83 83 84 84 84 84 84 84 84 84 82 82 83 83 83 83 82 82 82 81 80 80 81 80 81 79 79 78 79 81 84 82 79 79
83 83 83 84 84 84 84 84 83 84 84 85 84 84 84 84 84 84 83 83 83 83 83 82 81 81 82 81 80 79 79 80 80 80 79 78 78 79 82 81 80 79
84 84 84 84 84 84 84 84 84 84 85 85 84 85 85 85 84 86 85 84 84 83 83 83 82 81 82 81 80 79 80 82 80 79 79 79 78 78 79 81 80 79
84 84 84 84 85 85 85 85 86 86 85 85 85 86 86 86 85 86 84 84 84 83 82 82 81 82 82 81 81 80 80 81 82 80 79 79 79 79 79 79 79 78
84 84 85 85 85 86 86 86 87 87 86 86 86 87 86 86 85 86 84 83 83 83 82 82 82 82 82 82 81 81 80 80 81 80 80 80 80 79 80 79 80 78
84 85 85 85 85 87 87 87 88 88 87 87 87 87 87 86 85 85 84 83 83 83 83 82 82 82 82 82 82 82 81 81 81 80 80 80 80 80 81 79 79 79
85 85 85 85 86 86 87 88 88 88 88 88 88 87 87 87 86 85 84 83 84 84 83 83 82 83 82 83 83 83 82 82 81 81 81 80 81 80 81 80 80 79
85 85 85 86 86 87 88 88 88 89 89 88 88 89 88 87 87 85 84 84 84 84 84 83 83 83 82 82 83 83 82 81 82 81 81 81 81 81 82 81 81 81
86 85 85 85 86 86 87 88 88 88 88 88 88 88 88 87 87 86 85 85 85 85 85 84 83 83 82 82 83 83 82 82 82 81 81 81 81 81 82 83 82 82
85 86 86 85 85 85 86 86 87 87 87 87 87 87 88 88 88 87 86 85 85 85 85 85 84 84 83 83 83 82 83 82 82 82 82 81 81 81 82 82 83 84
85 85 85 85 85 84 84 86 87 87 87 86 86 87 87 87 87 87 87 86 85 84 85 85 84 85 81 76 78 84 83 84 82 82 82 81 81 80 81 82 84 85
84 84 85 83 84 84 84 85 85 86 86 85 85 86 86 86 86 87 87 87 86 85 85 85 86 86 75 70 72 76 83 82 82 81 81 81 81 80 80 81 83 83
85 84 84 83 83 83 84 84 85 86 85 85 85 85 85 87 86 86 86 87 87 86 85 86 86 79 70 69 70 71 76 83 83 82 82 81 81 81 81 82 82 83
84 84 84 83 83 83 84 84 84 84 85 85 85 86 86 85 84 84 85 86 86 85 85 86 86 76 68 68 69 69 70 79 84 83 82 82 82 81 81 81 81 81
84 84 84 83 83 83 83 83 84 84 85 86 86 86 85 85 86 84 84 84 86 85 84 86 86 76 67 66 67 67 68 73 85 84 83 83 82 83 83 81 81 81
85 84 84 83 83 83 83 83 83 84 85 86 87 86 85 84 85 85 84 84 86 86 85 86 88 72 65 65 64 65 67 70 83 84 83 82 82 83 82 83 81 81
86 84 84 84 83 83 83 83 83 83 83 85 86 87 86 86 86 87 86 84 85 86 86 85 88 69 65 64 64 64 66 75 81 82 82 82 81 81 82 83 83 82
86 85 84 84 83 83 83 83 83 83 84 85 86 86 86 85 86 87 86 86 85 85 85 85 86 71 64 62 62 63 66 78 80 81 81 81 81 81 81 82 83 83
87 86 85 84 84 83 83 84 85 85 86 86 86 86 86 86 87 87 87 87 86 85 85 85 87 73 61 62 61 61 68 79 80 80 81 81 81 79 79 80 82 85
88 87 86 85 84 84 85 84 85 85 86 86 87 88 87 87 86 86 87 87 88 88 81 84 87 76 59 62 60 60 67 80 80 80 79 80 80 80 80 79 78 81
88 86 86 86 85 85 85 85 86 86 86 86 87 88 88 88 87 86 86 87 87 87 87 86 86 81 66 59 59 59 62 79 80 79 79 79 80 80 80 80 80 80

ECMWFNIL_sfc_temp_066.txt.gz
Temp
78 77 78 79 79 78 77 76 75 77 77 78 78 78 78 78 80 80 80 80 79 79 79 79 79 78 79 79 78 78 78 78 79 78 78 77 76 76 78 76 74 74
78 78 78 79 78 78 76 77 76 76 77 77 78 78 78 78 79 80 79 79 80 79 79 79 79 79 78 78 78 78 77 78 78 80 78 77 77 77 78 76 76 75
79 78 78 78 80 79 80 78 76 76 77 78 78 78 78 79 79 79 79 80 80 80 79 79 79 79 79 78 78 79 78 77 77 79 78 78 78 78 77 78 77 77
79 80 80 80 80 80 81 79 76 76 77 76 77 79 80 81 79 79 78 81 79 80 80 79 79 80 79 79 78 78 78 77 78 78 78 78 78 78 78 77 77 77
80 80 80 80 80 80 80 80 79 78 77 78 79 78 79 79 78 79 78 79 79 80 79 79 79 79 79 78 78 77 77 77 76 77 77 77 77 78 79 78 76 77
80 80 80 80 80 79 80 80 80 80 79 79 78 79 79 79 79 79 79 79 79 80 80 80 79 80 79 78 78 78 78 77 78 76 76 76 77 78 80 79 77 76
80 80 80 81 81 80 80 80 81 81 81 82 80 79 80 80 79 79 79 80 80 80 80 80 79 79 79 79 77 77 77 77 77 77 76 76 76 77 78 79 78 77
81 81 81 81 81 81 80 80 80 81 81 81 80 80 81 81 80 81 80 80 80 80 80 80 79 79 80 79 78 77 77 79 78 77 77 76 76 76 76 78 78 77
81 81 81 81 81 81 81 82 81 81 81 81 81 82 81 82 82 82 81 80 80 80 79 80 79 79 79 79 79 78 78 78 79 77 77 77 76 76 77 77 76 76
81 81 81 81 81 82 82 83 83 83 82 82 82 83 82 81 82 82 81 80 80 80 79 80 79 79 79 79 79 79 78 78 78 78 78 78 78 78 77 77 77 76
81 82 81 81 81 82 83 83 84 84 83 82 83 82 83 82 81 82 81 80 80 80 80 79 80 80 79 79 80 80 79 79 79 78 78 78 78 78 79 78 77 77
82 82 82 82 82 82 83 84 84 84 84 83 83 83 83 83 82 82 81 80 81 81 81 80 80 80 80 80 80 80 80 79 79 79 78 78 78 78 78 78 78 78
82 82 82 82 82 83 84 84 84 85 85 84 84 84 83 83 83 82 82 81 81 81 81 81 80 80 80 80 80 80 79 79 79 78 78 78 78 78 79 78 78 79
83 83 82 82 83 82 83 84 84 84 84 84 84 83 84 83 83 83 82 82 82 82 82 82 81 80 80 80 80 80 79 79 79 79 78 78 78 78 78 79 79 79
82 83 83 83 82 82 82 82 83 83 83 84 83 84 84 85 85 84 83 82 82 82 82 82 82 81 81 80 80 79 80 79 79 79 79 78 78 78 78 78 79 80
82 82 82 82 82 81 81 82 83 83 83 83 83 83 84 84 84 84 84 83 82 82 82 82 82 82 79 73 75 80 80 81 80 79 79 78 78 77 78 78 80 80
74 80 82 81 81 81 81 81 81 82 82 82 82 83 83 83 83 83 84 84 83 82 82 82 83 83 74 69 70 73 80 80 79 78 79 78 78 77 77 78 79 79
72 72 77 81 81 81 81 81 82 82 81 82 82 83 82 83 83 83 83 84 84 83 83 83 83 77 70 68 68 68 73 81 80 80 79 78 79 78 78 78 78 79
74 74 76 79 81 81 81 81 81 81 81 82 82 83 83 82 82 83 83 83 84 83 83 83 83 75 68 67 67 67 68 76 81 81 79 79 79 79 79 79 78 78
75 76 77 79 81 81 81 81 81 80 82 83 83 83 82 82 83 82 83 82 83 83 82 84 83 75 67 65 65 66 67 70 82 81 80 80 79 80 80 79 79 78
76 76 77 80 81 81 81 80 81 81 81 83 84 83 82 82 82 82 83 83 84 84 83 83 85 73 66 64 64 64 65 68 80 82 81 80 80 80 80 80 79 79
77 77 78 80 81 81 81 80 81 80 81 82 83 84 84 84 83 84 83 83 83 84 83 83 85 70 65 63 63 63 64 72 77 80 80 80 80 79 79 80 80 80
79 78 79 80 81 81 81 81 81 81 81 83 82 84 84 83 83 84 84 84 83 83 83 83 84 73 63 62 62 62 64 74 77 79 80 80 80 79 79 79 80 80
80 80 80 81 81 81 81 82 82 83 83 83 83 83 83 84 85 84 85 85 84 83 84 83 84 76 62 61 60 60 66 76 77 78 79 79 80 80 79 78 79 83
82 82 82 82 82 82 83 82 82 83 83 84 84 84 84 85 84 84 85 85 85 85 80 82 85 78 61 61 60 59 65 77 78 78 78 78 79 79 79 78 78 80
83 82 83 83 83 83 83 83 84 84 84 84 84 85 85 85 85 84 84 85 85 84 85 84 84 84 71 59 59 58 60 76 78 78 77 78 79 79 79 78 78 78

ECMWFNIL_sfc_temp_069.txt.gz
Temp
76 76 75 74 74 74 74 74 74 75 74 75 75 75 76 77 77 77 78 77 77 77 77 77 77 77 77 76 76 76 76 76 76 76 75 75 74 74 75 73 71 71
76 76 77 76 74 75 74 75 75 75 75 75 76 76 76 76 77 77 77 77 78 78 77 77 77 76 76 76 75 75 75 76 76 78 76 75 75 74 75 74 73 72
77 76 76 75 76 75 76 75 75 75 76 76 76 76 76 77 76 76 77 77 77 78 77 77 77 76 76 76 75 76 76 75 75 76 76 75 75 75 75 75 73 73
77 77 77 77 78 77 77 75 74 74 75 74 75 77 77 78 77 76 76 78 77 77 77 77 77 77 76 75 75 75 76 75 76 76 76 76 76 75 75 74 74 74
78 77 77 78 78 77 77 76 75 75 75 76 76 75 76 75 75 76 76 76 76 77 77 77 77 77 76 75 75 75 75 75 75 75 75 75 76 75 76 74 73 74
78 78 77 77 77 77 77 77 76 75 75 76 76 76 76 76 76 76 76 76 77 77 77 77 77 77 77 76 75 75 76 75 76 75 75 75 76 76 77 75 74 73
78 78 78 78 77 77 77 77 77 77 76 77 75 75 76 76 76 76 76 77 77 77 77 77 77 77 77 76 75 75 75 75 75 74 75 75 75 75 75 75 75 74
79 79 79 78 77 77 77 77 77 77 76 75 75 76 76 77 77 77 77 76 77 76 77 77 77 77 77 77 76 75 75 76 76 74 74 74 74 74 75 76 75 74
79 79 79 78 78 78 78 78 78 78 77 76 76 77 76 77 77 77 76 76 76 76 76 77 77 77 77 77 77 76 76 76 76 75 75 74 74 74 75 74 74 74
79 79 79 79 79 79 79 79 80 79 78 77 78 78 76 77 77 77 76 75 76 76 75 76 76 77 77 77 77 77 77 76 76 75 75 75 75 75 75 74 74 74
79 80 79 79 79 80 80 80 80 80 79 79 78 78 78 77 76 76 76 75 76 76 76 75 76 77 77 77 78 78 78 77 77 76 75 76 76 76 77 75 75 75
80 80 80 80 80 80 80 81 81 81 80 80 79 79 78 78 77 77 77 76 76 76 76 76 76 77 77 77 78 78 78 77 77 76 76 76 76 75 75 75 75 75
80 80 80 80 80 80 81 81 81 82 82 81 81 80 80 79 79 77 77 77 77 77 77 77 77 77 77 77 78 78 77 77 77 76 76 76 76 76 76 75 76 76
81 81 80 80 81 80 80 81 81 81 81 81 81 80 80 80 80 79 78 78 78 78 78 78 77 77 77 77 77 78 77 77 77 77 76 76 76 76 76 76 76 76
80 81 81 80 80 80 79 80 80 80 80 80 80 80 81 81 81 81 79 78 79 78 78 78 78 78 78 78 77 77 77 77 77 77 76 76 76 76 76 76 76 77
80 80 80 80 79 79 79 79 80 80 80 79 80 80 80 80 80 80 81 80 79 78 78 79 79 79 77 72 73 78 77 78 77 77 76 76 76 75 75 75 76 77
79 79 79 79 79 79 79 79 79 80 79 79 79 79 79 79 80 80 81 81 80 80 79 79 80 81 72 67 68 71 77 77 77 76 76 76 76 75 75 76 76 76
77 77 78 79 78 78 78 78 79 79 79 79 79 79 79 80 80 79 80 81 81 80 80 80 80 74 69 66 67 67 71 78 78 77 77 76 76 76 76 76 76 76
76 77 78 78 79 79 79 79 78 78 78 79 79 80 80 78 78 79 79 80 81 80 80 81 81 73 67 66 66 66 66 74 79 78 77 77 76 76 76 76 76 76
76 76 76 78 79 79 79 78 78 78 79 80 80 80 79 79 79 79 79 79 80 80 80 81 80 74 67 64 64 64 65 68 79 79 78 78 77 77 77 76 76 75
76 76 77 78 78 78 78 78 78 79 79 80 81 80 79 79 79 79 80 80 80 81 80 81 83 72 66 63 62 62 64 66 77 79 78 78 78 77 77 77 77 77
76 76 77 78 77 78 78 78 78 78 78 80 80 81 81 81 80 81 80 80 80 81 81 80 83 70 65 63 62 61 63 69 74 76 78 78 78 77 77 77 78 77
76 76 77 77 77 77 77 78 78 78 79 80 79 80 81 81 81 81 81 81 80 80 80 81 82 73 64 62 61 60 63 71 73 75 76 77 78 78 77 78 78 78
77 77 77 77 77 77 77 78 80 80 80 80 80 80 80 81 82 81 82 82 81 81 81 81 82 75 63 61 60 59 65 72 73 74 75 76 77 78 78 77 78 81
78 78 78 78 77 78 79 79 80 80 81 81 81 81 81 82 82 82 82 82 83 82 78 80 82 77 63 61 59 58 64 74 75 75 75 76 76 77 78 78 77 79
79 79 79 78 78 78 79 80 81 81 81 81 81 82 81 82 82 82 81 82 82 82 82 81 82 82 73 59 59 57 60 74 76 75 75 75 76 76 77 77 77 77

ECMWFNIL_sfc_temp_072.txt.gz
Temp
75 75 74 74 74 74 74 74 75 76 75 76 76 76 76 77 78 78 78 78 78 78 78 78 78 78 79 78 78 77 77 77 78 78 77 77 77 77 78 77 76 76
76 75 75 75 74 75 74 75 75 75 75 75 76 76 76 77 78 78 78 78 78 79 78 78 78 78 78 78 77 77 77 77 77 79 77 77 77 77 78 78 78 76
76 76 75 75 75 75 76 75 75 75 76 76 76 76 77 78 77 78 78 78 78 79 78 78 78 78 78 78 77 78 78 77 77 79 78 77 78 77 78 79 78 77
76 76 77 77 76 76 76 74 74 74 76 75 76 77 77 78 77 77 77 79 78 78 79 78 78 79 78 78 77 77 77 77 78 78 78 78 78 78 78 78 78 78
77 77 77 77 77 76 75 75 75 75 75 76 77 76 76 76 76 77 77 78 78 78 78 78 78 79 78 78 77 77 77 77 78 77 77 77 78 78 78 78 77 78
77 77 77 77 76 75 75 75 75 75 76 76 76 77 77 77 77 77 77 77 78 79 79 79 79 79 79 78 77 77 78 78 78 77 77 77 78 78 79 78 78 77
78 77 77 78 77 76 76 75 75 76 76 77 76 76 76 76 76 77 77 77 78 78 79 78 78 78 78 78 77 77 77 77 77 77 77 77 77 78 79 78 78 77
78 79 78 78 78 77 77 76 76 76 76 76 76 76 76 77 77 77 77 77 78 78 78 79 78 78 79 78 77 77 77 78 77 77 76 77 77 77 78 78 78 77
79 78 78 78 78 78 78 79 77 77 76 76 77 77 76 77 77 78 77 77 77 78 77 78 78 78 78 78 78 77 77 77 78 77 77 77 76 77 78 78 77 77
78 78 79 79 78 79 79 79 80 79 77 77 77 78 77 77 77 77 77 76 77 77 77 77 78 78 78 78 78 78 77 77 77 77 78 78 78 78 78 77 78 77
79 79 79 79 79 80 80 80 80 80 78 78 78 77 77 77 76 77 76 76 76 77 77 77 78 78 77 78 78 79 78 78 78 78 78 78 78 78 78 78 78 78
79 79 79 79 79 80 80 81 81 80 80 79 79 78 77 77 77 76 77 76 76 77 77 77 77 78 77 78 79 79 78 79 79 78 78 78 78 78 78 79 78 78
80 79 79 80 80 80 81 81 81 81 81 80 80 79 78 78 77 76 76 77 76 77 77 77 77 78 77 77 78 78 78 78 79 78 78 78 78 79 79 79 79 79
80 80 79 79 80 79 79 80 81 81 80 80 79 79 79 79 78 77 77 77 77 77 77 77 77 77 77 77 78 78 78 78 78 78 78 78 78 78 79 79 79 80
79 80 80 79 79 78 78 79 79 79 79 79 78 79 80 80 80 80 78 77 78 77 77 78 77 77 78 78 77 77 78 78 78 78 79 78 78 79 78 78 79 80
79 79 79 79 78 77 77 78 79 78 79 78 78 79 78 78 78 79 80 79 78 77 78 78 78 79 76 71 73 79 78 79 79 78 78 78 78 77 78 78 79 80
78 78 78 77 77 78 77 77 78 78 78 77 77 78 77 77 78 78 80 80 80 79 78 78 79 80 71 67 67 70 77 78 78 78 78 78 78 78 77 78 78 79
77 78 77 78 78 77 77 77 78 78 77 77 78 78 77 79 79 78 78 80 80 80 80 80 80 74 68 66 67 66 70 79 79 79 79 78 78 78 78 79 79 79
77 78 77 78 77 78 78 78 77 77 77 78 78 79 79 77 77 78 78 79 80 79 80 81 81 72 66 65 65 66 66 73 80 79 79 79 78 78 78 78 78 78
76 77 77 77 78 78 78 77 77 77 79 80 80 79 77 78 79 78 78 77 78 79 78 81 81 73 66 64 64 64 65 68 79 80 80 80 79 79 79 79 78 78
76 76 77 77 78 78 77 77 77 77 78 79 80 80 78 77 78 78 78 78 80 80 80 81 83 71 65 63 62 62 63 66 77 80 80 79 79 79 79 79 79 79
76 76 76 77 77 78 77 77 77 77 77 78 79 81 81 80 79 80 79 79 80 80 80 80 83 69 65 63 62 61 63 70 75 77 78 79 79 79 79 79 79 79
75 76 76 77 77 77 77 78 77 77 78 79 79 80 80 80 80 81 80 80 80 79 79 79 81 72 64 62 61 60 63 72 74 76 77 78 79 79 79 79 79 79
75 76 76 76 77 77 77 78 79 80 80 80 79 80 80 81 82 81 81 81 81 80 81 80 81 75 63 60 59 59 65 73 74 75 76 77 78 79 79 79 79 80
76 76 76 76 76 77 78 78 79 79 80 80 81 81 80 81 81 81 81 81 83 83 77 79 82 77 63 60 59 58 64 75 75 75 75 76 77 77 79 79 79 79
74 75 76 76 76 77 78 78 80 80 80 81 81 81 81 82 82 81 81 82 83 82 83 82 82 82 75 60 59 57 59 74 76 75 75 75 77 77 77 78 79 79

ECMWFNIL_sfc_temp_075.txt.gz
Temp
83 83 83 83 83 84 84 84 85 85 84 86 86 85 85 85 85 85 86 86 85 85 85 84 84 85 86 85 85 85 85 85 86 86 85 86 86 87 87 87 86 87
83 83 82 83 82 83 83 85 84 84 84 84 86 86 86 85 86 86 85 85 85 86 85 86 85 85 85 86 85 85 85 85 85 88 85 85 86 87 87 87 87 87
83 83 83 83 84 84 86 85 85 85 86 86 86 85 86 86 86 85 85 86 86 87 85 85 85 85 86 86 85 85 86 84 85 88 86 85 87 86 87 89 89 87
83 83 85 85 86 85 85 84 84 84 86 85 86 87 87 88 86 85 85 85 85 86 86 86 86 87 86 86 85 86 86 85 87 86 85 85 86 87 87 87 88 88
84 84 85 85 86 85 85 84 86 85 86 86 87 86 84 84 85 86 85 85 85 86 86 85 86 87 86 85 85 85 86 86 86 85 84 84 85 86 87 87 86 86
84 83 83 84 85 84 85 85 85 86 86 87 86 87 86 85 85 86 86 86 87 87 87 87 87 87 87 86 85 85 87 88 88 85 84 84 86 87 89 87 86 85
85 84 84 85 86 85 84 84 85 85 86 87 86 86 86 86 85 85 85 86 87 87 88 86 85 86 87 86 85 84 85 85 86 85 84 85 85 86 88 86 85 85
86 86 85 85 86 86 85 85 85 85 85 85 86 86 86 87 86 87 87 86 87 86 86 87 85 84 87 87 85 84 85 87 86 84 84 85 85 84 85 86 85 85
86 86 85 85 86 87 87 88 87 86 86 85 87 88 86 87 87 88 85 85 86 86 85 86 85 86 86 86 85 84 85 86 87 86 85 85 85 85 86 86 86 85
85 86 87 87 87 87 87 88 89 88 87 86 87 89 87 86 87 87 86 84 85 85 85 85 85 86 86 86 85 85 85 85 85 85 86 86 86 86 87 86 86 85
86 87 87 87 87 88 88 89 89 90 88 87 88 88 88 87 85 86 84 84 85 85 85 85 85 86 85 86 87 87 86 86 86 85 86 86 86 86 86 86 86 86
86 87 87 87 87 88 89 89 90 90 89 88 88 87 87 88 86 86 85 84 84 85 85 85 85 85 85 86 88 88 87 87 87 86 86 86 87 87 87 87 87 86
87 87 86 88 87 88 89 89 89 90 90 89 88 88 87 88 88 85 85 85 85 85 86 85 85 86 85 85 86 87 86 86 87 87 86 87 87 88 89 89 88 88
87 87 86 86 87 86 86 88 89 89 88 89 88 87 88 88 88 87 86 87 86 86 86 86 85 86 85 85 85 86 86 86 86 87 87 87 87 87 89 89 89 89
85 87 86 86 85 85 85 85 86 87 87 87 86 87 88 89 89 89 87 86 87 86 86 87 87 87 87 86 85 85 86 87 86 86 87 86 86 88 88 87 88 90
83 83 84 84 84 83 83 84 85 85 86 85 85 86 86 85 86 87 88 87 86 86 86 87 87 88 81 74 76 86 86 88 87 86 86 86 85 85 87 88 89 90
83 83 83 82 83 83 83 83 83 84 84 83 84 84 84 84 85 85 87 88 87 87 86 87 88 88 74 68 68 71 83 86 86 85 85 85 86 84 84 86 88 88
83 83 82 82 82 82 82 82 83 83 83 83 84 85 83 85 85 85 84 87 88 88 88 88 88 78 70 67 67 66 71 84 87 87 87 86 86 86 86 86 87 88
83 83 82 82 82 82 83 83 82 82 83 84 84 85 86 83 83 84 84 85 87 85 87 88 89 76 68 66 66 66 65 74 87 87 87 87 87 86 86 86 86 86
83 83 83 82 83 82 82 82 82 82 84 86 86 85 83 83 85 84 84 83 84 85 84 87 88 77 67 65 65 64 64 68 84 87 87 87 87 87 87 86 85 85
80 81 81 82 83 83 82 82 82 82 83 85 87 86 84 82 84 84 84 84 86 86 86 87 90 73 66 64 63 62 63 66 82 85 86 86 86 87 86 87 86 86
80 80 80 81 82 82 82 82 82 82 82 84 85 87 87 87 86 86 85 85 85 86 86 86 89 71 65 63 62 62 62 74 80 81 83 85 86 86 86 85 86 86
78 79 80 80 81 81 81 83 82 82 83 84 84 85 87 87 86 87 85 86 86 85 85 85 88 76 64 62 61 61 64 78 80 82 82 84 85 85 86 86 86 86
75 75 76 78 79 80 81 82 84 85 85 85 85 85 86 88 88 87 87 87 87 86 87 86 87 79 64 61 59 59 67 79 80 81 82 82 84 85 85 85 85 81
73 75 76 76 75 78 80 80 82 83 85 86 87 87 86 87 87 87 88 87 90 89 80 84 88 82 65 61 59 58 66 79 81 82 81 82 84 84 85 86 85 82
73 72 74 74 75 76 78 79 81 82 83 85 85 87 87 88 88 87 87 88 89 89 90 88 88 88 80 60 59 57 59 77 81 81 81 81 83 83 84 84 85 85

ECMWFNIL_sfc_temp_078.txt.gz
Temp
88 89 89 89 89 90 90 90 91 91 90 92 92 92 91 91 91 91 91 91 90 90 90 89 89 88 90 89 88 89 89 88 90 90 89 90 90 92 92 91 91 91
88 88 88 90 89 89 89 91 90 90 90 90 92 92 91 91 92 92 91 91 90 91 90 90 90 89 89 90 89 89 88 89 88 92 89 89 90 91 92 91 91 92
89 89 89 89 91 90 93 91 90 91 92 92 92 92 93 93 92 91 91 91 91 93 91 90 90 89 90 89 88 89 90 87 88 92 89 89 91 90 91 94 93 92
88 89 91 91 92 92 92 91 91 90 92 92 92 94 93 95 93 92 91 90 91 91 92 91 91 92 90 90 89 90 89 88 90 90 89 89 90 91 91 91 93 93
89 90 91 91 92 91 92 91 92 92 92 92 94 93 92 91 91 92 91 91 90 91 91 91 91 91 90 90 90 89 90 90 90 89 88 88 89 90 91 91 90 90
90 89 89 90 91 91 91 92 91 93 93 94 93 94 93 92 92 92 92 93 93 93 93 93 92 93 92 91 90 90 91 93 92 89 88 88 90 92 94 92 90 89
91 90 91 92 92 92 91 91 92 92 94 94 93 92 93 93 92 92 92 92 93 93 94 92 91 91 92 91 89 89 89 90 90 89 88 89 89 89 92 91 89 89
92 93 92 92 93 93 91 92 92 92 92 92 93 93 93 94 93 94 93 92 94 93 92 93 91 90 93 92 90 89 89 93 91 89 88 88 89 88 89 91 89 88
93 93 92 92 93 94 95 95 94 93 93 92 94 95 93 93 94 94 92 92 92 92 91 92 91 92 92 92 91 90 90 92 93 91 89 89 89 89 90 90 90 89
91 93 95 94 94 95 95 96 97 96 94 93 94 96 96 93 93 94 93 90 91 90 91 90 91 92 92 93 91 91 90 89 90 91 91 91 91 91 91 90 90 89
93 94 94 94 95 97 97 97 98 98 96 95 95 95 96 95 92 93 91 90 91 91 90 90 91 91 91 93 93 93 92 92 91 91 91 91 91 91 90 91 91 91
93 94 94 95 95 96 97 98 98 98 98 96 96 95 95 96 94 93 92 90 90 91 91 91 90 91 91 91 94 95 93 93 93 92 92 92 92 92 92 92 92 91
95 94 93 95 95 95 97 97 98 99 99 98 96 96 95 96 96 93 92 92 91 91 92 91 91 92 90 90 92 93 93 92 94 93 93 93 93 93 95 94 94 93
94 94 93 93 94 93 93 96 97 97 97 97 96 94 96 96 96 95 94 94 93 93 92 92 91 92 91 90 91 92 93 93 92 93 94 93 94 94 95 96 95 95
90 93 93 93 92 91 92 92 94 94 94 95 94 94 96 97 97 97 95 93 94 93 93 94 95 94 94 92 91 91 92 93 93 93 93 92 93 95 95 94 95 97
88 88 90 90 90 89 89 90 92 92 93 92 93 93 93 93 93 94 96 95 93 93 93 95 95 96 88 79 82 92 92 94 94 92 91 92 91 91 94 95 96 97
88 88 87 87 88 88 88 88 89 91 90 90 90 91 91 90 91 93 94 95 95 94 94 95 97 96 79 71 72 75 89 92 92 91 91 90 92 90 89 92 95 96
88 88 87 87 87 86 87 87 88 89 88 89 90 91 89 91 91 91 91 94 95 95 95 96 96 83 72 69 69 69 75 90 94 93 93 92 91 92 92 92 93 95
86 87 86 86 86 86 87 87 87 87 88 89 90 90 91 88 88 90 90 91 92 92 94 95 96 81 70 67 67 67 67 78 93 93 94 94 93 91 92 91 91 92
82 84 86 86 87 87 87 86 86 86 88 91 91 90 88 89 90 89 89 88 90 90 90 93 94 83 69 66 65 65 65 71 90 92 92 93 92 93 93 92 91 90
83 82 82 84 86 87 86 86 86 86 88 89 92 91 89 88 89 89 89 90 91 91 91 93 96 77 69 64 63 63 64 68 87 90 90 91 91 92 91 92 91 91
81 82 83 84 85 86 86 85 86 85 86 88 89 92 93 93 91 91 91 91 91 91 92 91 95 74 68 64 62 62 63 79 85 85 87 89 90 90 91 90 91 90
78 78 80 82 83 83 84 85 85 85 86 88 88 90 91 93 92 93 91 92 91 91 90 90 93 79 66 63 61 60 66 83 85 86 86 86 88 89 90 90 90 90
76 78 80 82 82 82 82 82 82 80 81 88 88 89 90 93 93 93 93 93 93 92 93 91 92 82 65 62 60 59 70 84 85 85 86 86 87 88 89 89 90 84
77 77 78 80 81 82 84 83 81 79 78 77 81 88 89 88 87 86 91 92 97 95 85 89 93 86 66 62 60 58 69 85 86 86 85 85 88 87 88 90 89 86
78 76 77 78 79 80 81 80 78 77 78 82 85 87 88 89 90 88 87 89 91 93 96 95 94 93 84 60 60 57 61 82 86 86 85 85 87 86 88 88 89 90

ECMWFNIL_sfc_temp_081.txt.gz
Temp
90 90 90 90 90 91 91 91 92 92 89 91 92 92 92 92 92 92 92 92 91 91 90 90 89 89 91 90 89 89 89 89 91 90 90 91 91 92 93 92 92 92
90 90 90 91 90 91 91 93 92 92 91 91 93 93 93 92 93 93 92 92 92 92 91 91 90 89 89 90 89 89 89 89 88 93 89 90 90 92 93 93 93 93
91 91 91 91 93 92 95 93 92 92 93 94 93 92 94 94 93 92 92 92 92 94 91 91 90 90 90 90 89 90 89 88 89 93 90 89 91 91 92 94 94 93
90 91 93 93 94 94 94 93 93 92 94 93 93 95 94 97 93 93 92 92 92 92 93 92 92 92 91 91 89 90 89 89 91 91 89 90 91 92 92 93 94 94
91 92 93 93 94 94 93 93 94 94 94 94 95 94 93 92 92 93 92 92 91 92 92 91 92 92 91 90 90 89 90 90 91 90 89 89 90 91 93 92 91 91
92 91 91 93 93 93 94 94 94 95 94 96 95 96 95 94 94 94 93 93 94 94 94 94 93 93 93 91 90 90 91 92 92 89 89 89 91 93 95 93 91 90
93 92 93 94 95 94 94 94 94 94 96 96 95 95 95 95 93 93 93 93 94 93 95 92 91 92 92 91 90 89 90 90 91 89 88 89 89 90 93 92 90 90
95 95 94 94 95 95 94 95 95 94 95 95 96 95 95 96 94 94 94 94 94 94 93 94 92 91 94 93 90 90 90 94 93 89 88 89 90 89 90 92 91 89
96 95 94 95 95 96 97 97 96 96 95 95 97 97 95 95 96 96 93 93 93 93 92 93 92 92 93 93 91 90 90 92 94 91 90 90 90 89 90 91 90 89
94 95 96 96 97 97 97 98 99 97 96 96 97 99 98 95 95 95 94 92 92 92 92 92 92 93 93 93 92 92 91 90 91 92 91 91 90 91 92 91 91 90
96 96 96 96 97 99 99 99 100 100 98 97 97 98 99 97 94 95 93 92 93 92 92 92 93 93 92 94 94 94 93 93 92 91 92 92 92 91 91 91 91 91
95 96 97 97 97 98 99 100 100 100 100 98 98 97 97 99 96 95 94 92 92 93 93 92 92 92 92 92 95 96 94 94 93 93 93 92 93 93 93 93 92 91
96 96 95 97 97 97 99 99 100 101 101 100 98 98 98 98 99 95 94 94 92 93 94 92 92 93 91 91 93 94 94 94 95 94 93 93 94 94 95 95 94 94
96 96 95 95 96 94 95 98 99 100 99 99 98 97 98 98 99 98 96 96 94 94 93 93 93 93 92 91 92 93 94 94 94 94 95 94 95 95 96 97 96 96
94 96 95 95 94 94 94 95 96 97 97 97 96 97 99 99 99 100 97 95 95 94 94 95 96 95 95 93 92 92 94 95 94 94 94 94 94 96 96 95 96 98
91 90 93 93 93 91 92 93 94 94 96 96 96 97 96 95 95 97 99 97 95 95 95 97 97 98 89 82 84 93 93 96 95 93 93 93 92 93 95 96 97 99
79 85 90 90 91 91 91 91 91 93 93 93 94 95 94 93 94 96 98 98 98 96 96 98 99 99 82 74 75 78 91 93 93 92 93 92 93 91 91 94 96 97
77 78 77 79 83 86 90 90 91 91 90 91 93 94 92 95 94 94 94 97 98 98 98 98 98 87 74 72 73 72 79 92 95 94 95 94 93 93 93 94 94 96
76 78 80 80 82 85 86 86 88 88 89 90 92 93 94 91 90 93 92 94 95 94 97 98 99 84 71 70 71 71 71 82 96 95 95 96 95 93 93 92 93 93
76 77 80 81 82 82 83 84 83 85 85 90 91 91 90 91 93 91 92 91 92 92 92 96 97 86 69 68 68 69 69 75 93 94 95 95 94 95 96 94 92 92
76 78 80 81 81 79 77 78 79 80 81 83 82 82 86 90 91 91 91 92 93 94 93 95 98 81 68 65 65 66 67 73 91 93 93 93 93 94 93 94 93 93
75 76 77 79 79 77 76 78 79 79 77 77 76 78 84 82 86 92 92 92 92 93 94 92 97 77 69 63 63 63 65 82 88 89 89 91 92 92 93 91 93 92
76 76 76 77 78 76 75 77 77 76 76 77 77 79 80 84 85 89 91 93 92 92 92 92 95 81 66 62 61 61 67 85 87 89 88 89 89 91 91 92 92 92
77 77 77 78 79 77 76 76 76 77 77 77 76 78 82 86 88 88 89 91 94 93 95 93 94 84 65 61 60 60 71 86 87 88 88 87 88 89 90 90 91 86
79 78 78 77 77 77 77 75 75 76 78 79 81 83 84 85 87 89 91 92 95 95 88 92 95 88 67 61 59 58 70 87 88 88 86 87 89 88 89 91 90 87
79 78 78 79 78 78 78 76 75 75 76 80 82 84 84 85 88 88 90 91 94 95 98 96 95 94 84 60 60 57 62 84 88 87 86 86 88 87 89 89 90 90

ECMWFNIL_sfc_temp_084.txt.gz
Temp
87 87 87 86 87 87 86 87 88 88 86 87 87 86 86 86 87 86 88 88 88 87 87 86 86 84 86 86 86 85 84 86 86 87 87 87 86 88 90 89 88 87
87 87 86 87 86 87 87 88 87 87 86 86 88 88 88 87 87 87 87 88 88 88 87 88 87 87 87 87 86 86 83 85 84 90 86 87 87 88 89 89 89 88
88 87 88 88 89 89 91 90 88 89 89 89 88 88 90 90 89 89 88 88 88 90 87 87 87 87 87 85 85 85 84 84 84 88 86 86 87 87 88 91 89 89
87 88 89 90 90 90 91 89 89 88 90 89 89 90 92 93 90 89 88 88 88 88 88 88 88 88 87 87 85 85 85 84 86 85 86 86 86 88 88 88 89 89
89 89 89 90 90 89 90 90 91 90 91 89 91 89 89 89 88 90 89 88 88 89 88 88 88 88 87 86 85 85 85 85 86 86 84 84 86 87 88 87 87 88
88 88 88 89 90 89 90 91 90 91 91 92 91 92 91 91 90 90 89 89 91 91 91 90 89 90 89 87 87 86 87 87 87 86 86 85 86 88 91 88 87 86
90 89 90 91 92 92 90 90 90 90 91 92 91 90 91 91 90 89 89 90 90 89 91 88 87 88 88 87 86 86 86 86 86 86 85 86 86 87 90 89 86 86
90 91 91 91 92 92 91 92 91 91 91 91 92 91 91 92 90 92 90 90 91 90 89 90 88 87 90 89 86 86 87 90 89 85 85 85 86 85 86 89 87 85
91 91 91 91 92 93 94 94 93 93 92 91 93 94 92 92 91 92 89 89 89 89 88 89 87 89 89 88 87 86 86 88 90 87 86 86 86 85 87 87 87 86
90 92 92 93 93 94 94 94 95 94 93 94 94 95 94 92 92 91 90 87 89 88 88 88 88 89 89 89 88 88 87 86 87 87 87 87 87 87 88 87 87 86
85 94 92 92 93 95 95 95 96 96 94 94 95 95 95 93 90 91 88 88 90 89 88 88 89 89 88 90 90 90 88 89 87 87 87 87 87 87 88 87 87 87
77 86 92 93 94 95 96 96 96 96 95 94 95 94 93 95 91 92 90 88 88 89 89 88 88 88 87 88 91 91 90 89 88 88 88 88 88 89 88 88 88 87
78 75 77 94 95 95 97 96 96 98 97 96 95 94 94 95 94 91 90 90 88 90 90 89 88 89 87 87 89 90 89 88 90 89 88 88 89 89 91 90 90 89
77 77 75 73 79 87 92 96 96 96 95 95 94 93 95 95 96 93 92 92 91 90 90 89 88 89 88 87 88 89 90 89 89 89 90 89 90 89 91 92 91 91
78 78 77 77 79 77 77 87 92 92 92 92 91 93 96 95 96 97 93 92 92 90 90 91 92 91 91 90 88 88 89 90 89 89 89 88 88 91 90 90 92 93
79 77 78 78 78 79 79 79 84 89 92 91 92 92 91 90 91 92 95 93 91 91 91 93 92 93 87 81 83 89 88 91 91 88 88 87 87 87 90 91 93 94
79 79 79 77 76 77 79 80 80 78 78 77 81 88 91 89 90 92 94 95 94 93 92 93 94 94 80 73 74 78 88 88 87 86 87 87 88 86 85 89 91 91
77 78 79 80 81 81 79 80 79 78 78 78 78 79 78 85 91 91 90 93 95 95 94 93 94 85 75 71 73 73 78 88 90 89 90 88 88 88 88 89 89 91
76 78 78 80 81 81 81 79 79 79 78 78 78 79 80 79 77 82 88 91 91 90 93 94 94 83 73 70 71 71 72 81 91 90 90 91 89 88 88 87 87 87
74 74 75 78 79 80 79 79 79 78 78 79 78 79 79 79 81 81 80 83 88 89 88 91 93 85 73 68 69 70 71 75 90 90 90 90 88 89 91 89 87 87
75 75 75 76 78 78 78 78 78 79 80 80 80 79 78 78 78 80 82 83 86 90 91 92 94 81 71 66 67 67 69 73 87 91 90 89 88 88 87 89 87 88
74 74 76 76 77 77 77 77 78 78 79 80 79 80 80 80 80 81 81 82 84 87 90 90 93 77 71 63 64 65 67 78 84 86 87 88 88 87 87 85 87 86
76 76 76 76 76 76 75 76 76 77 78 78 77 79 80 81 82 83 82 83 84 86 87 89 91 81 71 63 62 63 67 78 83 85 85 86 87 87 87 87 87 87
76 76 76 77 77 76 75 75 76 76 76 77 77 78 80 82 83 83 84 85 86 87 89 88 90 84 71 62 60 61 69 80 81 84 84 84 85 86 86 86 87 87
76 76 77 77 76 76 76 76 75 75 76 77 78 79 79 81 82 82 83 84 87 88 84 86 88 83 72 62 59 59 67 81 83 83 83 84 86 85 86 86 85 86
77 75 75 75 75 76 76 76 75 74 75 76 77 77 78 79 80 81 81 83 85 86 87 88 87 86 81 63 57 57 61 80 83 82 82 83 85 84 84 85 85 86

ECMWFNIL_sfc_temp_087.txt.gz
Temp
79 80 79 80 80 81 81 80 81 81 80 80 79 79 79 80 81 80 82 81 81 81 81 80 79 79 82 80 80 79 80 80 80 81 80 80 80 81 84 82 81 80
80 80 81 81 80 81 81 82 81 81 80 80 81 80 81 81 82 81 81 81 82 81 81 81 80 79 80 80 80 79 79 80 79 84 81 79 80 81 82 81 81 80
81 80 81 80 81 81 83 83 81 82 82 82 83 82 82 83 82 81 82 81 82 82 81 81 81 80 81 80 80 80 80 78 79 81 81 79 80 80 80 83 81 82
80 81 82 83 82 82 83 82 82 81 83 82 83 84 85 86 83 82 82 83 81 81 82 82 82 82 81 80 79 79 79 78 79 80 79 80 80 81 81 80 80 81
82 82 83 83 83 82 82 82 83 82 83 83 85 83 83 83 83 83 82 82 82 81 82 81 81 81 80 80 79 79 79 79 79 79 79 79 80 81 82 81 79 80
82 82 82 83 82 82 83 82 82 83 83 84 84 85 84 83 83 84 82 83 84 83 83 83 82 82 82 80 80 80 80 80 81 79 79 78 80 82 85 83 79 79
84 82 83 84 84 83 84 82 83 84 84 84 84 84 85 84 83 84 83 83 84 83 84 82 81 81 82 81 80 79 80 80 80 79 79 79 79 80 83 82 81 80
85 84 84 84 85 83 84 83 83 82 85 82 85 84 85 85 84 85 84 84 84 83 82 83 82 81 83 82 80 79 80 83 82 79 79 79 79 79 80 82 81 79
86 85 84 84 85 84 85 86 85 84 85 84 84 86 85 86 85 86 83 83 84 82 82 82 82 83 82 82 81 80 80 82 83 81 80 80 79 79 80 80 80 79
80 82 86 86 85 86 86 87 87 87 84 86 85 86 86 84 85 86 83 82 83 81 82 81 82 83 82 82 81 82 81 80 80 80 81 81 81 80 81 80 80 78
80 79 78 79 82 86 87 88 88 88 86 87 87 86 87 85 83 85 83 81 84 83 81 81 82 82 82 83 82 83 82 83 82 80 80 81 81 81 82 81 80 80
77 77 77 77 77 76 79 86 89 88 89 87 88 87 85 88 84 84 84 82 82 83 82 81 81 82 81 83 84 83 82 83 83 82 81 81 82 82 82 81 81 81
75 75 74 76 78 78 78 78 84 90 89 89 89 89 87 86 87 84 84 84 83 83 83 81 81 81 81 81 83 83 82 82 83 82 82 81 81 82 83 83 82 82
75 75 75 74 76 76 77 79 80 82 86 89 88 88 89 86 87 86 84 84 84 84 84 83 82 82 80 81 82 83 82 82 82 82 82 82 83 81 83 83 83 84
74 75 75 76 77 76 77 78 79 78 79 80 84 88 89 89 87 88 86 84 85 84 84 85 85 84 84 82 82 82 83 81 82 83 82 81 81 83 82 83 84 85
75 75 75 75 75 75 75 77 78 77 77 76 76 78 81 82 85 85 88 86 85 84 85 86 86 87 84 79 80 83 83 85 83 81 82 81 80 80 82 82 85 86
73 74 75 74 75 75 75 76 76 77 76 75 76 76 75 76 78 80 83 88 87 86 85 87 88 89 78 72 73 76 84 83 83 80 79 81 81 79 79 81 83 84
73 74 74 74 75 75 76 76 76 76 75 75 77 77 76 78 78 78 77 80 86 87 86 87 87 82 73 70 71 71 76 84 83 83 82 79 80 81 81 81 81 83
72 72 73 73 73 75 76 76 76 76 75 75 76 76 76 75 75 77 78 78 79 79 83 86 87 78 72 69 69 70 70 78 85 84 83 83 80 80 81 81 80 80
72 72 73 73 74 74 75 75 75 75 76 76 76 75 75 75 76 77 77 77 78 78 77 81 82 81 70 68 66 67 69 72 84 84 84 84 83 82 82 81 80 80
72 72 73 73 74 75 74 74 74 75 75 76 77 76 75 75 75 75 77 78 79 80 80 82 87 78 72 66 64 63 65 69 82 85 85 84 83 83 81 81 80 81
72 72 72 72 73 74 74 74 74 74 74 75 75 76 76 76 76 76 77 77 78 79 79 80 84 70 65 65 61 61 63 71 77 80 82 83 83 81 81 80 80 80
72 71 72 72 72 73 73 73 73 73 74 75 73 74 75 77 77 78 78 79 78 78 78 78 82 66 61 60 61 61 65 72 74 77 79 80 82 81 80 80 79 79
73 73 72 73 73 72 72 73 74 74 73 75 74 74 75 77 78 78 79 79 79 79 81 80 81 67 59 57 62 61 66 73 72 73 76 77 80 81 80 79 80 84
73 73 72 71 71 72 73 72 72 72 74 74 75 76 75 76 77 77 78 78 81 81 80 80 77 70 62 61 59 60 65 70 72 73 75 76 79 80 81 81 80 82
72 72 72 71 70 71 72 72 73 73 73 73 74 75 75 76 76 76 76 77 78 78 80 80 76 74 73 63 62 60 59 69 70 71 73 75 77 78 79 80 81 81

ECMWFNIL_sfc_temp_090.txt.gz
Temp
77 77 76 77 77 78 78 77 78 78 77 77 77 77 78 78 79 79 79 79 79 79 78 77 77 77 79 77 78 77 78 77 77 77 76 77 76 77 80 78 77 76
77 77 78 78 77 78 78 79 78 79 77 77 78 78 78 79 79 79 79 79 79 79 78 78 77 77 77 77 77 77 77 77 76 80 77 77 76 77 79 78 78 77
77 77 77 77 78 78 80 79 79 79 79 79 79 78 79 80 79 78 79 79 78 79 78 78 77 77 77 77 77 78 77 76 76 78 77 76 77 77 77 79 78 78
78 78 78 79 79 79 80 79 78 78 79 78 79 80 81 82 80 79 78 80 78 78 78 78 78 78 77 77 77 77 77 76 77 77 77 77 77 77 78 76 77 78
79 78 78 79 79 79 79 79 79 79 79 79 81 80 79 79 79 79 78 78 77 78 78 78 78 78 78 77 77 77 76 77 77 77 76 76 77 77 78 77 76 77
79 78 78 78 78 78 79 79 80 79 80 80 80 81 80 80 79 79 79 79 79 79 79 79 78 79 79 77 77 77 77 78 78 76 76 76 77 78 81 79 77 76
79 78 79 80 80 79 78 78 79 80 80 81 80 80 81 81 80 80 79 80 80 79 80 79 78 78 78 78 77 77 77 77 76 76 76 76 76 77 79 79 77 77
80 80 80 80 81 80 79 79 79 79 80 80 81 81 81 82 81 82 81 80 81 80 79 80 78 78 79 78 77 76 77 80 78 76 76 76 76 76 77 78 78 76
81 80 79 80 81 81 81 82 81 80 80 80 81 82 81 82 81 82 80 80 81 80 78 79 79 79 79 78 78 77 77 78 79 77 77 77 76 76 77 77 77 76
79 80 81 81 81 82 82 83 83 82 81 82 81 82 82 81 81 82 81 80 80 80 79 79 79 79 79 79 79 78 78 78 78 77 78 78 78 78 78 78 77 76
76 78 81 81 82 83 83 83 84 84 82 83 83 82 83 81 80 81 80 79 81 80 79 79 79 79 79 79 80 80 79 79 79 78 77 78 78 78 80 78 78 77
71 70 72 76 80 79 79 80 81 82 83 83 84 82 81 82 81 80 81 79 80 80 80 80 79 79 79 80 80 80 80 80 79 79 79 78 78 79 79 79 79 78
72 72 71 73 75 77 77 77 79 81 82 82 84 84 82 82 82 80 80 80 80 80 81 80 79 79 79 79 80 80 80 79 79 79 79 78 78 79 80 80 79 79
72 73 74 73 73 74 75 76 77 77 77 78 80 83 84 83 83 81 81 81 81 80 81 80 79 78 78 78 79 80 79 79 79 79 79 79 79 78 80 81 80 80
73 74 74 75 75 74 74 75 75 76 76 76 75 78 85 84 84 84 82 81 81 81 81 81 81 80 80 79 78 78 79 79 78 78 79 79 79 79 78 78 80 81
73 74 74 73 73 73 73 74 75 74 76 74 75 74 76 80 79 81 83 82 81 81 81 82 82 83 80 76 78 80 79 81 79 78 78 77 77 77 78 79 80 81
73 73 74 73 73 73 73 74 74 75 73 73 73 74 73 74 78 81 82 82 82 82 81 82 84 85 77 70 71 75 81 79 79 77 76 76 77 76 76 78 79 79
72 72 72 73 73 73 74 74 75 74 73 73 74 74 74 75 74 74 75 78 82 81 81 82 83 79 72 69 69 69 75 81 79 79 79 77 77 77 77 77 78 79
71 72 72 72 73 73 73 73 73 73 73 73 74 74 74 73 73 75 75 75 75 75 77 79 81 78 71 68 67 67 67 75 81 81 80 80 78 77 77 77 77 77
71 72 72 72 73 73 73 73 73 72 74 74 74 74 73 73 74 73 73 74 75 75 75 77 77 70 69 66 65 65 66 68 79 82 81 81 81 80 80 79 78 77
71 71 72 72 73 73 72 72 73 73 74 74 74 74 74 73 73 73 74 74 75 76 75 78 78 65 65 63 63 64 65 67 73 76 79 79 80 80 79 80 79 78
70 70 71 71 72 72 72 72 72 72 72 73 74 74 74 74 74 74 74 74 75 76 76 75 74 62 64 62 61 60 63 71 72 73 75 77 77 77 77 77 78 78
70 69 70 69 70 71 71 71 71 71 71 73 72 72 73 74 74 75 75 75 75 75 75 74 74 64 62 62 60 59 64 70 70 72 73 75 77 78 78 77 77 77
71 70 70 70 69 70 70 71 71 71 71 73 72 72 73 74 75 75 75 75 75 76 77 75 74 67 58 57 58 60 68 70 70 70 72 73 75 76 77 77 78 81
70 71 71 70 70 70 71 71 71 71 72 72 72 73 73 73 73 73 73 73 75 75 77 76 75 69 56 57 57 57 65 71 70 71 72 72 73 74 75 76 77 79
69 69 70 70 69 69 70 70 71 71 70 71 72 72 72 72 73 73 73 73 75 76 77 77 76 75 71 60 57 56 58 70 70 70 71 72 73 74 74 75 76 77

ECMWFNIL_sfc_temp_093.txt.gz
Temp
75 75 75 75 75 76 75 75 75 75 75 75 75 75 75 76 77 77 77 77 77 77 77 76 76 76 78 75 76 75 76 76 76 74 74 74 74 74 77 76 75 74
75 75 77 76 75 76 75 76 76 76 75 75 76 75 76 76 77 77 77 77 77 77 77 77 76 76 76 76 75 75 75 75 75 78 75 75 74 74 75 75 75 74
75 75 75 75 75 75 77 76 76 76 76 77 77 76 77 77 77 76 77 77 77 77 77 76 76 76 76 76 75 76 76 74 75 75 76 74 74 74 74 75 75 75
75 75 76 76 76 76 77 76 76 76 76 76 76 78 78 79 78 77 76 79 76 77 77 76 77 76 76 76 76 75 75 74 75 75 75 75 75 75 75 74 75 75
77 75 75 76 76 76 76 76 77 76 77 77 78 77 77 77 77 77 76 77 76 76 76 77 76 77 76 76 75 75 75 75 75 74 74 74 74 75 75 75 74 74
76 76 75 76 76 76 76 77 77 77 77 77 78 78 78 77 77 77 77 77 77 77 77 76 77 77 77 76 76 76 76 76 76 74 74 74 75 75 77 76 75 74
77 76 76 76 76 76 77 77 77 78 78 79 78 77 78 78 77 77 77 77 77 77 77 76 76 77 77 76 76 75 75 76 75 74 74 74 74 75 76 76 75 74
77 77 77 77 77 76 77 77 77 77 78 77 77 78 78 79 78 78 78 78 78 77 77 77 77 76 77 76 76 75 75 77 76 75 74 74 73 74 75 76 75 74
78 77 77 77 77 77 77 78 77 77 77 77 78 78 78 79 79 79 78 77 77 77 76 77 76 76 76 76 76 76 75 76 77 76 75 75 74 74 75 75 74 74
76 77 78 78 78 78 78 79 79 78 77 78 78 78 78 78 78 79 78 77 77 77 76 76 76 76 76 76 76 76 76 76 76 76 76 76 75 75 75 75 75 74
77 76 77 77 78 79 79 80 80 80 79 79 79 78 79 78 77 78 77 77 78 77 77 76 76 76 76 76 76 76 76 76 76 76 76 76 76 76 78 76 75 75
74 75 76 76 77 78 79 80 80 80 80 79 79 79 78 79 78 78 78 77 77 78 78 77 77 76 76 77 77 77 76 77 77 76 76 76 76 76 76 76 76 76
72 73 73 74 76 76 77 77 79 80 80 80 80 80 79 79 79 77 77 78 78 78 78 78 77 77 76 76 77 77 77 76 77 76 76 76 76 76 77 77 77 77
72 72 72 72 73 73 74 75 76 76 76 75 76 78 80 79 79 78 78 78 78 78 78 78 77 77 76 76 77 77 77 77 76 77 76 76 76 76 77 77 77 78
72 72 73 73 74 73 73 74 73 73 73 73 73 74 78 79 80 80 79 78 78 78 78 79 79 78 78 77 77 76 77 77 77 77 77 76 76 76 76 76 77 78
71 72 73 72 73 73 73 73 73 72 73 72 72 72 72 73 75 77 79 79 78 78 78 79 79 80 79 75 76 79 77 78 77 76 76 76 76 75 76 76 77 77
72 72 72 72 72 72 73 73 74 74 73 72 71 72 71 73 74 75 78 79 79 79 78 79 81 82 76 70 70 72 79 77 77 76 75 75 75 75 75 76 76 76
71 71 71 72 72 72 73 73 74 74 73 72 72 72 72 73 73 73 74 77 79 79 79 80 80 78 71 69 68 68 72 78 77 77 77 75 75 75 76 76 76 76
71 71 71 71 72 72 73 72 73 72 72 72 72 72 72 72 72 72 73 73 76 76 78 79 80 76 70 68 67 66 66 72 78 77 77 77 76 75 75 75 75 75
71 71 72 71 72 72 72 72 72 71 72 72 72 72 71 71 72 71 71 71 72 73 74 76 78 77 70 67 66 65 65 68 76 78 78 77 77 76 77 76 75 75
70 70 70 70 71 71 71 71 71 71 72 73 73 72 71 71 71 71 72 73 73 73 74 75 77 62 61 63 63 63 64 66 74 76 77 77 77 76 76 77 76 76
68 68 69 70 71 71 71 70 70 70 70 72 72 72 72 72 73 73 72 72 73 73 73 73 73 60 60 60 61 61 62 69 71 72 73 75 76 76 77 76 76 76
68 68 68 68 69 70 69 70 70 69 70 71 70 71 72 72 73 73 72 72 73 73 73 72 73 63 59 58 59 59 64 69 69 71 71 72 74 74 75 75 75 75
67 68 68 68 68 69 69 69 69 69 69 71 71 71 71 72 72 72 72 72 72 72 75 73 73 67 59 59 59 60 66 70 69 69 70 70 71 72 73 73 75 79
67 67 67 67 67 67 68 69 69 69 71 70 70 71 71 72 72 71 72 72 73 74 76 74 73 70 61 58 58 58 63 69 69 69 70 70 71 72 73 73 73 75
67 67 67 67 66 67 68 68 69 69 69 70 70 71 70 70 72 72 71 71 72 73 74 74 72 72 70 60 57 57 57 66 69 68 69 70 70 71 71 72 72 73

ECMWFNIL_sfc_temp_096.txt.gz
Temp
76 75 76 75 75 75 75 75 76 76 75 76 76 76 76 77 77 77 78 78 78 78 78 78 78 78 79 78 77 77 78 78 79 78 78 78 78 78 79 78 77 78
75 76 77 76 75 76 76 76 76 76 76 76 76 77 77 77 77 78 78 78 79 79 78 78 78 78 78 78 76 77 77 78 78 80 78 78 78 78 79 78 78 77
75 76 76 76 76 76 78 77 77 77 77 77 77 77 77 78 78 77 78 78 78 79 78 78 78 78 78 78 77 78 79 77 78 79 79 78 78 78 79 80 79 79
75 76 77 77 77 77 77 76 76 76 77 77 77 78 78 79 78 78 77 79 78 78 79 78 79 79 78 78 78 78 78 78 79 78 79 78 78 79 79 78 79 79
76 76 77 77 77 77 77 77 77 77 77 78 78 78 78 78 78 78 77 78 78 78 78 78 78 79 78 78 78 78 78 78 78 78 78 78 78 78 79 78 78 78
76 76 76 77 77 77 77 77 77 78 78 78 78 79 79 78 78 78 78 78 79 79 79 79 79 79 79 78 78 78 79 79 78 77 78 78 79 79 80 79 78 78
77 76 76 77 77 77 77 77 78 78 78 79 79 78 79 78 78 78 78 78 79 78 79 78 78 78 78 78 78 78 78 78 78 77 78 78 78 78 79 79 78 78
77 77 77 77 77 77 77 77 78 78 78 78 79 79 79 79 78 79 79 78 79 78 78 79 78 78 79 79 78 77 78 79 79 77 77 77 77 77 78 78 79 78
78 77 77 77 78 77 78 78 78 78 78 78 79 80 79 79 79 80 78 78 78 78 78 78 78 78 78 78 78 78 78 79 79 78 78 78 77 77 78 78 78 78
77 77 78 78 78 78 78 79 79 79 79 79 79 80 79 79 80 80 79 78 78 78 78 78 78 78 78 78 78 78 78 78 78 78 78 78 78 78 78 78 78 78
78 78 78 78 78 79 79 79 80 80 79 79 80 80 80 79 79 79 79 78 78 78 78 78 78 78 78 78 79 79 79 79 78 78 78 78 78 78 79 78 78 79
76 76 77 77 79 79 80 80 80 80 80 80 80 80 79 80 79 79 79 78 78 79 79 79 78 79 78 79 79 79 79 79 79 79 79 79 79 79 79 79 79 79
75 75 75 76 78 79 80 80 80 81 81 80 80 80 80 80 80 79 79 79 79 79 79 79 79 79 78 78 79 79 79 79 79 78 79 79 79 79 80 80 80 80
75 75 75 75 76 77 78 79 80 80 80 80 80 80 80 80 80 79 79 80 80 79 80 80 79 79 78 78 79 79 79 79 79 79 79 79 79 79 80 81 80 81
71 71 71 73 75 75 76 77 77 78 78 78 78 79 81 81 81 81 80 79 79 79 79 80 80 80 80 79 78 78 79 79 79 79 79 78 79 79 79 79 80 81
71 71 70 70 71 72 73 75 77 76 77 76 77 77 78 78 78 79 80 80 79 79 79 80 80 81 79 75 76 80 79 80 79 79 79 78 78 78 79 79 80 81
70 71 71 70 70 70 71 72 73 75 76 75 75 75 75 76 77 78 79 80 80 80 79 80 81 82 75 69 69 72 80 79 79 78 78 78 78 78 78 79 80 80
71 71 71 70 70 70 71 72 73 74 74 74 75 75 75 76 76 76 76 79 80 80 80 81 81 77 70 68 68 67 73 79 80 79 79 78 78 78 79 79 79 80
71 71 71 71 71 71 71 72 73 72 72 71 72 74 74 74 74 75 75 75 77 77 79 80 81 75 68 67 67 66 66 74 80 80 80 80 79 78 79 78 78 78
71 71 71 71 71 71 71 71 71 70 70 71 72 72 71 73 75 74 73 74 76 76 77 78 80 73 68 66 65 64 64 69 78 79 79 80 79 79 80 79 78 78
69 70 70 70 71 71 71 70 70 70 70 70 70 71 71 73 74 74 75 75 75 76 77 77 75 60 62 63 64 62 63 67 76 78 79 79 79 79 79 79 79 78
68 68 69 69 69 70 70 69 69 70 70 71 71 70 71 72 73 74 74 74 75 76 77 76 73 59 60 60 60 61 62 71 73 74 75 76 77 78 78 78 78 78
66 67 67 68 68 68 67 68 69 69 70 72 71 71 72 72 72 73 73 73 73 75 75 75 74 63 58 58 58 60 68 72 73 73 74 74 75 75 76 77 77 77
65 65 65 65 66 67 68 67 68 69 69 71 71 71 71 72 72 72 73 73 74 74 76 75 74 67 59 58 58 58 67 73 72 73 73 73 74 74 75 75 76 77
66 65 65 65 65 65 66 67 68 68 70 69 69 69 69 71 72 71 71 72 74 75 75 74 75 70 60 57 57 56 64 71 72 73 73 73 74 74 75 75 75 76
66 66 66 65 65 65 66 66 67 67 68 69 69 69 68 69 71 70 70 71 73 73 74 73 70 69 65 58 57 57 57 68 71 72 72 73 73 74 74 75 76 76

ECMWFNIL_sfc_temp_099.txt.gz
Temp
84 84 84 84 84 85 84 84 86 85 84 86 86 86 85 85 85 85 86 86 85 86 86 85 85 85 87 86 86 86 86 86 87 87 87 87 88 88 89 87 87 88
83 84 84 85 84 83 84 85 85 85 84 84 85 86 86 85 86 86 86 85 86 86 86 86 86 86 86 87 86 86 85 86 86 90 86 86 87 88 88 88 88 88
84 84 84 85 86 85 87 86 85 85 86 87 86 85 87 87 86 85 86 86 86 88 86 86 86 85 86 86 85 86 86 85 86 89 87 86 88 87 88 90 90 88
83 84 86 87 88 87 87 85 85 84 86 85 86 88 87 88 86 86 85 85 86 86 87 87 86 87 86 86 85 86 86 86 87 87 86 87 87 88 88 88 89 89
85 85 86 87 87 87 87 86 87 87 87 87 88 86 85 85 85 87 86 86 85 86 86 86 86 87 86 85 85 85 86 87 87 86 85 86 87 87 88 88 87 87
85 84 85 86 86 86 87 87 86 87 87 88 87 88 87 86 86 87 87 87 88 88 88 88 87 87 88 86 85 86 87 88 88 86 85 85 87 88 90 88 87 86
86 85 85 87 87 87 86 86 87 87 89 89 88 87 88 87 86 86 86 87 88 87 88 87 86 86 87 86 85 85 85 85 86 85 85 86 86 86 88 87 86 86
86 87 86 86 87 87 86 87 88 87 88 87 88 88 88 88 87 88 87 87 88 87 87 88 86 85 88 87 86 85 86 89 87 85 84 85 85 85 86 87 87 85
86 86 86 86 87 88 89 90 89 88 88 88 89 90 88 88 88 89 86 86 86 86 86 87 86 87 87 87 86 85 85 87 89 87 85 85 85 85 86 87 86 86
85 86 87 87 88 89 89 90 91 90 89 89 90 91 90 88 88 88 87 85 86 86 86 86 86 87 87 87 86 86 86 86 86 86 87 86 86 86 87 87 86 86
86 87 87 87 88 89 90 90 90 91 90 90 90 90 90 90 87 87 86 85 87 86 86 86 87 87 86 88 88 88 87 88 87 86 87 86 86 86 86 86 86 86
85 86 87 86 87 89 90 90 91 90 90 90 90 89 89 90 89 88 87 86 86 87 87 87 87 87 86 87 89 89 89 88 88 87 87 87 87 88 87 88 88 87
82 83 84 85 86 88 89 89 90 91 90 90 90 90 89 90 90 88 87 88 87 88 88 87 87 87 86 86 87 88 88 88 89 88 88 88 88 89 90 89 89 89
82 83 83 83 85 85 86 88 89 89 89 89 89 88 89 90 90 89 89 89 89 89 88 88 87 87 86 86 87 88 88 88 88 88 88 89 89 89 90 91 90 90
81 82 82 82 82 82 83 84 86 87 87 87 87 88 90 90 90 91 89 89 89 88 88 89 90 89 89 88 87 86 87 88 88 88 88 88 88 90 90 89 90 91
76 79 80 81 80 81 81 82 84 84 85 85 86 86 87 87 87 88 89 89 88 88 89 90 90 91 85 78 80 87 88 89 89 87 87 87 87 87 89 90 91 92
72 73 76 78 79 79 80 79 80 82 82 81 82 83 84 84 86 87 88 90 90 90 89 91 91 91 78 71 70 73 85 87 87 86 86 86 87 86 86 89 90 90
72 72 72 73 74 76 78 78 79 79 80 80 81 81 81 84 85 86 86 89 90 90 90 91 92 83 72 69 68 68 73 85 89 88 89 88 88 88 88 89 89 90
73 72 72 72 73 74 75 78 78 78 78 79 80 81 82 82 82 84 85 86 88 87 88 90 91 81 71 68 67 66 66 76 88 88 89 89 89 88 88 87 87 87
73 73 71 71 72 73 74 76 77 76 76 77 79 80 80 82 85 84 84 84 85 85 86 88 91 71 66 68 66 65 66 70 85 87 88 88 87 88 89 88 86 86
73 73 72 72 72 72 72 73 74 75 75 75 76 77 79 80 83 83 84 85 86 87 87 88 81 60 63 63 65 64 64 70 84 87 87 87 87 87 86 86 86 86
68 70 71 72 72 72 72 72 72 73 73 73 75 76 78 80 82 83 83 81 80 82 84 81 76 60 60 61 61 63 64 80 83 83 84 85 85 85 85 84 85 84
66 67 67 68 70 71 71 71 71 71 71 73 74 75 77 80 81 81 78 76 76 77 77 77 76 64 58 58 59 61 72 84 83 83 83 83 83 83 83 83 84 83
66 66 66 67 67 68 69 70 70 70 71 73 73 75 75 77 77 75 75 74 75 76 77 76 74 65 57 57 58 60 73 82 82 82 82 82 83 82 83 83 81 78
67 66 66 66 66 66 67 68 69 69 69 69 70 71 74 75 75 75 74 75 75 73 74 72 71 67 58 56 56 56 69 81 81 83 83 83 85 84 85 85 83 81
68 67 67 67 66 66 66 65 67 68 69 68 68 69 69 70 71 71 71 70 70 72 73 72 71 69 63 55 54 56 59 75 79 79 80 80 81 81 81 82 82 82

ECMWFNIL_sfc_temp_102.txt.gz
Temp
89 90 89 89 90 90 89 89 91 91 89 91 92 91 90 90 90 91 91 91 90 90 90 89 89 89 91 90 89 89 90 90 92 91 91 91 92 93 94 93 92 93
89 89 89 90 89 89 89 90 89 90 89 88 91 91 91 91 91 91 90 90 90 90 89 90 89 89 89 91 89 89 89 90 89 95 90 89 91 92 93 92 93 93
89 89 90 90 92 91 93 92 90 90 91 92 92 91 93 92 91 90 90 91 90 92 90 89 89 89 89 89 88 90 90 88 89 93 90 89 92 91 92 96 95 93
89 89 91 92 93 93 94 92 91 90 92 91 92 94 93 96 92 91 90 89 90 89 90 90 90 91 90 89 88 90 90 89 91 90 89 90 91 92 93 93 95 95
90 90 91 92 93 92 93 92 93 93 93 92 94 93 91 90 91 92 91 90 89 91 90 89 90 90 89 89 89 89 90 90 90 89 88 88 89 91 93 93 91 92
91 90 90 91 91 92 93 93 93 94 94 94 93 94 94 92 92 92 92 92 93 93 93 93 92 92 92 90 89 89 91 92 92 88 88 88 90 93 95 93 90 90
92 91 91 92 93 93 92 92 93 93 95 95 94 93 94 93 92 92 92 92 93 92 94 91 90 90 91 90 88 88 89 88 89 88 87 89 89 89 92 91 89 89
93 94 93 92 93 93 93 94 94 93 93 93 94 93 94 94 93 94 93 92 93 92 91 93 90 89 92 92 90 88 89 94 92 88 87 87 88 88 88 91 89 88
93 94 94 93 94 94 96 96 95 94 94 94 95 96 94 94 94 95 91 92 92 91 90 91 89 91 92 91 90 89 89 92 93 91 89 89 89 88 89 90 89 89
92 93 95 95 94 95 95 96 98 97 95 95 96 97 97 94 94 94 92 89 90 90 90 90 90 91 91 92 90 90 90 89 90 90 90 90 90 90 91 90 90 89
93 94 93 93 94 96 96 97 97 98 96 96 96 96 97 96 93 93 91 89 92 91 90 90 91 91 90 92 93 93 92 92 91 91 90 90 90 90 89 89 90 90
92 93 93 93 94 95 96 97 97 97 97 97 97 95 95 97 94 94 92 90 91 91 91 91 91 91 90 91 93 94 93 93 93 92 92 91 92 92 92 92 92 91
88 89 91 92 93 94 96 96 97 98 97 97 96 96 96 96 96 93 93 92 91 92 93 91 91 92 90 91 92 92 92 92 93 93 93 93 93 93 95 94 94 93
88 89 89 90 92 91 92 95 96 96 95 95 95 94 95 96 96 95 94 94 93 93 93 92 91 92 91 91 91 93 93 92 92 92 93 93 94 94 95 96 95 96
86 87 87 89 89 89 90 91 92 93 93 93 92 93 97 96 97 97 95 94 94 93 93 94 95 94 95 93 92 91 92 93 93 93 93 92 93 95 95 94 95 96
85 84 84 86 86 87 87 89 90 91 92 91 91 92 92 92 93 94 96 95 94 93 93 96 96 97 91 85 86 93 93 95 94 92 92 92 91 91 94 95 96 97
83 84 83 82 84 85 86 86 87 89 89 88 89 90 89 90 91 92 94 95 95 94 94 96 97 98 80 74 75 77 89 92 92 91 91 91 92 90 90 93 95 96
79 78 78 79 81 83 84 84 86 86 86 87 88 89 88 91 91 91 91 94 95 96 96 97 98 85 71 72 72 72 78 89 94 94 94 93 93 92 93 93 94 96
76 78 78 78 77 78 80 82 83 83 83 84 86 88 89 88 88 90 90 91 93 92 94 96 95 66 70 69 70 69 69 79 92 93 94 94 94 93 93 92 92 93
77 78 77 77 76 76 75 78 79 80 81 82 84 86 86 87 89 89 89 88 90 91 91 94 88 68 63 66 68 66 67 74 90 92 93 93 92 93 94 93 92 91
76 76 76 75 76 76 75 75 75 77 79 81 83 84 85 85 87 87 88 89 90 92 91 93 81 61 63 63 63 64 66 73 89 92 93 93 93 93 91 92 92 91
72 74 75 75 75 75 74 74 74 75 75 77 78 81 83 86 87 89 88 89 90 92 92 85 78 59 60 61 62 65 65 83 88 88 89 92 92 92 91 90 91 90
70 71 71 72 74 74 73 73 73 73 73 74 73 76 79 81 84 86 86 85 85 87 88 82 79 64 57 58 59 61 71 88 89 90 89 90 91 91 89 89 90 89
70 70 70 70 69 69 71 73 74 73 72 73 72 73 75 78 79 77 80 78 79 81 79 79 78 65 56 57 57 58 69 87 88 89 88 88 89 88 89 89 86 80
70 70 70 69 68 68 68 68 70 70 71 73 73 73 74 74 74 72 69 70 70 72 77 78 79 69 56 55 55 57 68 83 87 88 87 87 89 88 89 90 84 82
71 71 72 72 71 70 69 69 70 70 71 71 71 71 71 70 70 70 69 69 71 73 75 76 75 72 63 54 54 56 58 76 84 84 85 85 86 85 84 86 84 79

ECMWFNIL_sfc_temp_105.txt.gz
Temp
89 90 90 90 90 91 90 90 87 92 90 91 91 91 91 92 92 93 93 92 91 91 91 89 90 90 92 91 90 90 90 91 92 92 92 93 93 94 96 95 94 94
90 90 90 91 89 89 90 92 91 91 89 89 91 88 92 91 93 92 92 92 91 91 91 91 90 90 90 91 90 90 90 90 90 96 92 91 91 94 94 94 94 94
91 91 91 91 92 90 94 92 91 91 87 92 93 88 90 94 93 92 92 92 92 93 91 91 90 90 90 90 89 90 91 89 89 94 92 90 92 93 93 97 97 96
90 91 93 94 92 88 94 92 91 91 94 93 93 95 94 98 93 92 91 91 91 91 92 92 91 92 90 90 89 90 90 89 91 91 90 90 91 93 94 94 95 96
92 91 93 94 94 93 90 93 88 93 94 91 94 94 92 92 92 93 92 91 90 92 91 91 91 92 90 89 89 89 90 91 91 90 89 89 90 91 94 94 92 93
92 91 92 93 93 93 94 94 94 91 94 95 94 94 93 93 93 92 92 93 93 94 94 93 92 93 92 91 90 89 89 91 86 88 89 89 90 93 96 94 91 91
94 93 93 94 95 95 94 94 94 94 95 96 91 94 94 94 93 93 92 93 94 93 94 90 90 90 92 90 89 89 89 89 85 85 85 88 89 90 93 93 90 90
94 94 94 94 95 96 94 95 95 94 94 95 94 94 95 95 94 95 94 94 94 93 93 94 91 89 89 88 89 89 90 94 89 85 85 87 89 88 89 92 91 89
95 95 95 95 95 96 97 97 97 96 95 95 97 97 95 95 95 96 93 93 93 92 91 92 91 92 91 90 91 89 90 91 94 88 88 89 89 89 90 91 90 90
94 95 97 97 96 96 97 98 99 98 96 96 97 98 97 94 96 96 94 91 92 91 91 91 91 92 92 93 91 91 90 89 91 91 92 91 91 91 92 91 91 90
95 96 96 96 96 98 98 99 99 99 98 97 97 96 98 97 94 95 92 91 93 92 91 91 92 92 91 93 93 93 91 92 91 91 90 91 91 91 91 91 91 91
93 95 96 95 96 97 99 99 99 99 99 98 98 96 96 98 96 95 94 91 91 92 93 91 91 92 91 92 94 94 93 93 92 92 92 92 92 93 93 92 92 92
90 90 92 94 95 96 98 98 99 100 100 99 98 97 97 97 98 95 94 93 92 93 94 92 92 92 91 90 93 93 93 93 94 93 93 93 94 94 95 95 94 94
90 90 90 92 94 94 95 97 99 99 98 98 97 96 96 97 98 97 96 96 94 94 93 93 91 90 89 90 91 93 93 93 93 93 94 94 95 95 96 97 96 97
89 90 90 91 91 92 93 94 95 96 96 95 95 96 99 98 98 98 96 95 95 94 93 95 96 94 92 92 92 92 94 94 93 94 93 93 93 96 95 95 96 97
88 88 88 88 89 89 89 91 92 93 94 94 94 95 94 94 94 96 97 96 95 95 95 96 97 95 89 85 87 91 90 95 95 92 92 92 91 91 93 96 97 98
85 85 85 86 86 87 88 88 89 91 91 91 92 93 92 91 93 94 96 97 96 96 95 97 97 98 82 77 78 82 91 93 92 91 92 91 92 90 90 93 95 97
77 79 83 84 84 84 85 87 87 88 88 89 91 91 90 93 93 92 92 95 96 96 96 97 97 77 71 74 77 77 83 91 94 94 94 93 92 93 93 93 94 96
78 76 74 78 83 83 83 84 84 85 86 87 89 91 91 90 89 91 91 93 94 93 94 95 90 67 68 73 74 73 74 85 94 94 94 94 94 93 93 92 92 93
76 76 76 77 79 81 80 78 80 81 82 83 84 87 87 88 90 89 90 89 91 91 90 88 81 66 64 66 68 69 69 77 92 93 94 94 93 94 95 93 91 92
74 73 73 76 77 79 80 79 78 78 80 81 82 81 81 82 84 85 86 87 89 91 90 83 74 59 62 63 64 66 66 76 90 94 93 93 93 93 92 92 89 89
73 73 73 74 76 77 77 77 78 77 78 79 79 80 81 82 84 85 85 84 79 78 78 79 74 59 59 60 61 64 65 84 89 89 90 91 92 93 92 90 93 92
74 73 73 73 74 75 75 75 76 76 77 77 77 79 80 82 82 75 73 73 75 76 76 76 77 62 57 57 59 61 71 86 88 89 89 90 90 92 92 92 86 84
73 73 72 72 72 71 71 73 74 75 74 74 74 75 76 77 74 73 74 73 75 76 77 77 76 64 55 56 57 57 69 84 87 88 89 89 90 88 92 81 80 81
74 73 73 71 70 70 71 71 71 72 74 74 73 74 74 75 73 72 70 70 72 75 77 77 75 67 56 55 54 56 68 84 85 85 84 79 73 74 75 76 76 75
77 76 75 74 73 73 72 71 72 72 71 71 73 73 74 74 73 71 70 71 72 73 72 71 68 65 60 54 53 56 57 76 86 85 79 74 73 72 70 74 76 78

ECMWFNIL_sfc_temp_108.txt.gz
Temp
82 83 82 80 80 80 81 82 84 85 84 86 87 87 86 88 89 89 90 88 88 88 88 87 87 87 89 88 88 87 85 84 85 84 87 88 88 90 91 89 89 89
82 83 83 82 80 80 80 83 85 83 85 84 86 85 87 88 91 89 89 89 88 89 88 88 87 87 87 88 87 87 87 87 86 91 86 88 88 89 90 90 90 89
84 83 85 83 83 81 81 81 83 81 85 87 87 85 88 89 90 89 89 89 88 90 88 88 87 87 88 87 86 87 86 86 85 88 84 83 87 87 88 91 89 89
83 83 84 84 85 83 83 83 80 83 87 86 87 88 90 89 89 89 88 89 88 88 89 88 88 89 88 87 85 85 87 85 86 87 84 83 85 88 88 87 90 89
89 86 84 86 87 86 87 85 87 87 89 86 88 88 86 83 85 89 88 88 87 89 88 88 88 88 87 87 86 86 87 87 87 86 83 83 85 87 90 88 88 88
89 88 89 89 87 87 88 88 88 89 89 87 87 89 89 86 87 88 88 89 90 90 89 89 89 89 89 87 86 86 87 88 88 86 86 85 87 88 92 90 90 88
91 90 91 92 91 88 87 88 89 89 90 89 88 89 89 89 88 88 88 89 90 89 90 88 86 87 87 87 86 85 86 85 86 85 85 86 86 86 90 88 87 87
92 92 91 91 92 92 89 89 89 88 89 89 90 89 90 91 89 91 90 90 90 90 88 88 87 85 89 88 86 85 86 89 87 85 83 84 85 85 86 89 88 87
92 92 92 92 92 93 93 93 92 91 91 89 90 91 91 90 90 91 88 88 88 88 87 86 84 87 88 87 86 85 86 88 89 86 85 85 85 85 86 87 87 86
92 92 93 92 93 94 94 95 95 93 93 93 92 92 91 89 90 89 87 87 89 88 88 86 85 86 88 87 86 85 85 85 87 86 87 87 87 87 88 87 87 86
93 94 93 92 92 94 95 96 96 96 94 94 94 91 90 90 89 89 87 87 90 89 88 88 87 87 87 89 88 87 87 87 87 86 86 86 87 86 88 87 87 87
92 93 94 93 94 95 96 96 96 96 96 95 95 94 91 92 90 90 88 87 87 89 88 87 88 88 87 88 90 90 88 88 88 87 87 87 88 89 89 89 89 87
89 89 90 93 94 94 96 95 96 97 97 96 96 94 94 93 91 88 88 88 88 89 89 88 87 89 87 87 89 90 89 88 89 88 89 88 89 90 91 91 91 90
88 88 89 89 90 91 92 95 95 96 95 95 94 94 94 94 94 90 90 90 89 90 89 88 88 88 87 87 88 89 89 89 89 89 89 89 89 90 92 93 92 92
83 81 80 86 90 89 89 91 92 92 92 92 93 92 96 95 95 96 92 89 91 89 89 89 88 89 89 88 87 88 88 89 89 89 89 89 90 92 91 89 91 92
81 80 80 80 80 81 81 85 88 90 92 91 91 93 91 92 91 92 94 92 89 89 90 91 89 88 87 85 85 88 87 89 90 88 87 87 88 88 89 89 91 93
80 79 78 77 76 76 76 76 75 78 80 82 88 90 89 89 89 91 93 95 93 88 88 89 88 87 79 73 75 79 88 88 87 86 86 87 87 87 86 89 91 91
80 79 78 76 75 75 74 74 72 73 73 74 76 81 85 90 91 90 89 92 93 94 91 85 84 69 63 67 72 74 82 88 89 87 88 85 86 88 88 89 89 91
79 79 78 76 75 75 75 74 73 73 73 73 75 76 77 80 79 80 82 86 90 87 83 85 81 64 63 66 68 70 75 88 90 89 88 87 87 86 88 86 87 87
78 77 77 76 75 75 75 74 73 73 73 75 77 79 79 78 80 80 81 80 81 78 79 80 77 65 63 64 65 66 67 75 90 90 90 90 87 89 87 85 79 78
75 76 75 76 76 76 76 75 74 73 76 76 75 75 78 78 79 79 78 78 79 82 81 80 73 60 61 62 62 63 65 74 85 90 90 89 89 85 78 77 76 78
74 75 75 76 77 76 75 75 75 76 76 77 77 77 77 77 76 74 76 77 78 79 81 76 69 58 59 60 60 63 67 81 84 85 86 87 85 76 78 78 78 78
73 74 74 73 73 73 73 74 74 74 74 75 76 77 76 75 76 75 74 75 76 76 77 75 70 60 57 57 58 59 70 81 83 84 85 83 75 78 77 77 78 78
73 72 72 73 72 71 71 72 73 74 74 74 74 74 73 73 72 73 73 74 75 75 76 72 69 61 56 56 57 57 67 79 82 81 77 77 77 76 76 74 78 81
73 73 72 71 71 70 71 71 71 71 72 73 73 73 74 74 73 70 70 72 73 72 73 69 67 64 56 55 56 57 66 79 79 76 76 76 75 75 75 75 73 73
75 73 73 72 72 71 71 71 71 72 71 72 72 72 73 73 72 71 70 70 70 70 70 68 65 63 59 54 54 57 61 77 77 76 74 74 75 74 74 76 74 71

ECMWFNIL_sfc_temp_111.txt.gz
Temp
78 77 77 77 77 78 78 78 78 79 79 80 79 80 80 81 83 83 83 82 82 81 81 81 81 82 84 82 81 81 80 79 81 80 81 81 81 83 86 84 82 81
78 78 79 78 77 78 77 78 78 79 79 79 81 80 81 82 83 82 82 82 82 82 81 82 81 81 81 81 80 80 80 80 79 86 81 81 79 82 83 83 83 81
79 79 78 77 77 77 78 79 79 79 80 81 81 80 82 84 82 82 81 83 83 83 81 81 81 80 81 81 80 80 80 79 79 81 78 79 79 79 81 84 83 84
79 80 80 80 79 79 79 78 78 78 80 81 81 83 85 85 83 83 82 84 82 82 82 82 82 83 81 80 80 80 80 79 80 80 79 79 80 80 81 82 82 82
81 81 81 81 81 80 79 79 80 79 81 81 83 82 82 79 82 83 81 82 81 81 82 82 82 82 82 80 80 79 80 80 80 79 78 78 78 80 83 83 81 82
81 81 81 81 81 80 80 80 81 81 82 82 82 82 83 81 81 82 82 83 83 83 83 83 83 83 83 82 81 81 81 81 82 80 79 78 79 81 86 84 81 80
82 81 81 82 83 82 82 81 82 83 84 83 82 82 83 83 82 82 82 83 84 83 84 82 81 82 82 82 80 80 80 80 79 79 79 79 79 79 82 83 81 81
84 84 83 83 84 83 83 83 83 83 83 83 83 83 84 85 83 85 83 84 84 84 83 83 82 80 83 82 81 80 80 85 81 78 78 78 78 78 79 83 82 80
86 85 85 85 85 85 85 86 85 85 84 84 84 84 85 85 84 85 83 83 84 83 81 82 81 82 82 81 80 80 80 82 83 81 79 79 79 79 80 80 80 80
85 86 87 87 86 86 85 86 87 86 85 86 86 86 85 84 85 84 83 82 82 82 81 81 81 82 82 82 81 81 80 80 80 80 81 80 80 80 81 81 81 79
86 87 87 87 87 87 87 88 88 88 87 87 87 87 86 85 83 82 81 81 84 82 81 81 81 82 81 83 83 82 81 81 81 80 80 80 81 80 83 81 81 81
86 87 87 87 87 87 88 89 89 89 88 88 88 87 86 86 84 84 83 81 82 82 82 82 82 82 81 82 84 84 82 82 83 82 81 81 82 82 82 82 82 81
81 81 82 85 87 88 89 88 89 90 89 89 89 88 87 86 86 83 83 83 83 83 83 82 82 82 81 82 83 84 83 82 83 82 82 82 82 83 84 84 84 84
79 78 79 80 82 82 84 86 86 87 88 87 88 87 87 87 87 85 83 84 84 84 83 83 82 83 81 82 82 84 82 83 83 83 83 83 84 84 85 86 85 85
75 76 75 77 78 77 77 78 79 80 80 81 82 84 87 86 88 87 85 84 84 84 83 84 84 84 84 83 82 81 82 82 81 83 83 82 83 84 84 83 84 83
76 76 75 75 75 74 74 76 76 76 77 78 78 79 79 80 81 82 85 84 83 84 83 85 84 85 84 80 80 82 81 84 84 81 81 81 81 81 81 81 80 79
75 74 74 73 73 73 73 73 72 75 74 74 76 77 76 77 79 80 80 82 83 82 81 80 83 80 69 66 69 73 81 80 81 80 80 80 81 80 79 76 74 77
75 74 73 72 72 72 72 72 72 72 72 73 74 74 74 76 76 76 76 78 82 80 79 80 77 67 64 65 67 70 75 78 80 81 82 79 80 78 78 77 77 79
74 74 73 72 71 72 72 72 71 71 71 72 73 74 75 76 74 75 75 75 79 78 80 78 74 64 63 65 65 68 72 79 79 82 81 79 80 77 76 76 77 77
73 73 73 72 72 72 72 72 71 71 71 72 73 74 74 75 76 76 77 77 78 77 75 74 70 63 62 62 63 64 67 74 80 75 72 75 78 76 77 76 76 76
72 72 73 72 73 72 72 72 71 71 72 73 73 73 73 72 73 74 76 77 77 77 75 72 68 60 60 61 61 62 64 73 77 74 75 77 78 77 75 75 75 76
71 71 72 72 72 73 72 72 72 72 72 74 74 73 73 73 73 73 74 75 75 75 73 70 64 57 58 59 59 61 65 76 76 74 74 77 76 76 76 74 74 74
70 71 71 71 71 71 71 72 72 72 72 73 72 73 73 72 72 72 72 73 73 73 71 68 65 59 57 57 58 59 69 77 78 77 76 76 76 75 75 75 74 74
69 69 69 70 70 70 70 71 71 71 71 73 72 72 72 72 71 71 71 72 73 71 70 67 65 61 55 55 56 57 66 75 77 75 75 75 74 74 73 72 76 80
69 69 69 69 68 69 70 69 70 70 70 72 71 72 72 71 71 70 70 70 70 69 70 66 65 63 56 55 55 56 65 74 76 74 74 73 72 71 71 70 71 74
71 70 70 70 69 70 70 70 70 70 69 70 70 70 71 71 70 69 69 68 67 66 66 65 63 62 59 54 54 56 61 74 74 73 72 72 72 72 70 69 68 68

ECMWFNIL_sfc_temp_114.txt.gz
Temp
77 77 76 76 76 76 76 76 76 77 76 77 77 77 77 78 79 79 79 80 79 79 78 78 78 78 80 78 78 78 78 77 77 77 77 77 77 78 81 79 79 77
76 77 78 77 76 77 76 77 77 77 76 76 77 77 78 78 80 80 79 79 80 79 78 79 78 78 77 77 77 77 77 78 77 82 78 79 77 77 79 79 79 78
76 76 76 76 77 76 77 77 77 76 77 78 78 78 79 81 80 79 79 80 80 80 78 78 78 78 78 77 76 77 77 76 76 77 77 78 77 77 77 79 79 79
76 77 77 77 77 77 77 76 76 77 78 78 78 80 81 83 81 79 79 81 79 79 79 79 79 79 78 77 77 77 76 76 77 77 78 77 77 78 77 78 79 80
77 77 77 78 77 77 77 76 77 77 78 78 79 79 80 78 79 79 78 79 79 79 78 79 79 79 78 77 77 77 77 76 77 76 76 76 76 78 79 79 77 78
78 78 78 78 77 77 77 77 78 78 78 79 79 80 80 79 79 79 79 80 80 80 79 79 79 80 80 78 77 77 78 78 77 76 76 75 77 77 81 80 78 77
78 78 78 79 79 78 78 78 78 79 79 80 79 79 80 80 79 79 79 80 81 80 80 79 79 79 79 78 78 77 77 77 76 76 76 76 76 77 78 78 78 77
79 79 79 79 79 79 78 78 78 79 79 79 80 80 80 81 80 81 79 80 81 80 79 80 79 78 80 79 78 77 78 81 78 75 76 76 75 76 76 79 78 76
80 79 79 79 80 80 80 81 80 80 80 80 81 81 81 81 81 81 80 79 80 79 79 79 78 79 79 79 78 78 78 80 80 77 77 77 76 76 77 77 77 76
80 80 80 80 80 81 81 82 82 82 82 82 82 82 81 81 81 81 80 79 80 79 78 79 79 79 79 79 79 78 78 78 78 78 78 78 78 78 78 77 77 76
81 81 81 81 81 82 82 83 83 83 83 83 83 82 82 81 80 81 79 79 81 80 79 78 79 79 79 80 79 79 79 79 79 77 77 78 78 78 80 78 77 77
76 76 80 82 82 83 83 84 84 84 84 84 84 83 83 83 82 81 81 79 80 80 80 79 79 79 79 79 80 80 79 79 79 78 78 78 78 79 79 79 79 78
72 72 71 77 83 84 84 84 84 85 85 84 84 84 83 83 83 81 80 80 80 80 81 80 79 79 78 79 80 80 80 79 80 79 79 79 79 80 81 80 80 80
74 74 74 75 80 82 82 84 85 85 85 85 84 84 84 84 83 82 81 81 81 81 80 81 80 80 78 78 79 80 80 79 79 79 79 79 80 80 81 81 79 79
73 73 73 75 75 75 75 75 76 78 80 82 82 83 85 83 84 83 81 81 81 81 80 81 81 81 81 79 79 79 80 79 79 79 79 79 79 79 78 77 76 77
74 74 73 73 73 74 73 73 74 74 74 75 77 80 80 80 80 81 82 81 80 80 79 82 82 82 81 82 81 81 78 81 79 79 76 75 75 74 74 76 76 77
74 73 73 72 72 72 72 72 72 72 72 72 73 73 74 77 79 79 79 80 81 80 79 79 79 77 70 66 69 74 80 77 78 75 73 74 74 75 74 75 75 75
73 73 72 71 71 71 71 71 71 71 72 72 72 72 74 75 75 76 77 79 81 80 79 78 75 69 64 66 66 68 75 77 76 75 73 73 74 74 74 75 75 76
73 73 72 71 71 71 71 71 70 70 71 72 73 73 73 72 73 73 75 75 79 78 78 78 73 63 64 66 66 66 70 77 74 74 72 73 74 75 74 74 75 75
71 70 70 70 70 71 71 70 70 70 70 71 73 73 73 72 72 72 73 73 75 76 75 73 70 63 62 63 63 65 69 75 76 74 74 74 75 75 75 75 75 75
71 71 71 71 71 71 71 71 70 70 71 72 72 72 72 72 72 73 73 74 75 74 73 71 67 60 60 62 61 63 66 75 75 75 74 75 76 75 75 75 75 75
70 70 71 71 71 71 71 71 70 70 71 72 72 71 71 71 72 72 73 73 73 73 71 66 63 57 58 59 60 62 70 75 73 73 73 75 74 74 74 74 74 74
69 69 69 69 69 70 69 69 70 70 71 72 71 71 71 71 71 71 71 71 72 70 68 65 64 59 56 57 58 58 69 73 74 73 74 75 74 74 74 74 74 74
68 69 69 69 69 69 69 70 70 70 70 72 71 71 71 71 70 70 70 70 71 69 68 66 64 61 55 55 56 57 64 74 74 74 74 74 73 73 72 73 75 79
68 68 68 68 68 68 69 69 69 70 71 70 70 71 71 70 70 69 69 69 69 68 70 65 64 62 56 54 55 56 63 71 74 73 73 72 72 70 70 70 73 77
69 69 68 68 68 69 69 69 70 69 69 70 70 70 70 69 69 68 67 66 65 65 64 64 62 61 59 53 53 55 58 69 74 73 72 71 71 70 69 69 68 68

ECMWFNIL_sfc_temp_117.txt.gz
Temp
75 75 75 75 75 75 75 74 75 76 75 75 76 76 75 77 77 77 77 77 77 77 76 76 76 76 78 76 76 75 76 74 75 74 74 74 75 76 78 76 76 75
75 75 76 76 75 76 75 76 75 76 76 75 76 76 76 77 77 77 77 77 77 77 76 77 77 76 76 76 75 75 75 76 74 79 76 77 74 75 76 76 76 75
75 75 75 75 75 75 76 76 76 75 76 76 76 76 77 78 77 77 77 77 77 78 77 76 76 76 76 76 75 76 76 74 75 75 76 76 75 75 75 76 75 76
75 76 76 76 76 76 76 75 75 75 76 76 76 77 78 80 78 77 76 79 77 77 77 77 77 77 76 76 75 75 75 74 75 75 76 75 75 75 75 75 76 76
76 75 76 76 76 76 76 75 76 75 76 76 77 77 77 77 77 77 76 77 77 77 77 77 76 77 77 76 75 75 75 75 74 74 75 75 74 76 77 76 75 76
76 76 76 76 76 75 75 75 76 76 76 77 76 77 77 77 77 77 77 77 78 78 78 77 77 77 77 76 76 76 76 76 75 74 74 73 75 74 78 77 75 75
76 75 76 76 76 76 76 76 76 77 77 77 76 77 77 77 77 77 77 78 78 78 78 77 76 77 77 76 75 75 75 75 74 74 74 74 74 75 76 76 76 75
76 76 76 76 76 76 76 76 76 76 77 77 77 78 78 78 78 78 77 78 78 78 78 78 77 76 77 77 76 75 75 77 76 74 73 73 73 73 74 76 76 75
77 77 76 76 77 77 77 77 77 77 77 77 78 78 78 78 79 79 77 77 78 77 77 77 77 77 77 77 76 76 76 77 77 75 74 74 74 74 74 74 74 74
76 77 77 77 77 77 77 78 79 78 78 78 79 79 79 78 79 79 78 77 77 77 76 77 76 77 77 77 77 76 76 76 76 76 76 75 75 75 75 74 74 73
77 77 77 77 77 78 78 79 79 80 79 79 79 79 80 79 78 78 77 77 78 77 77 76 77 77 77 77 77 77 77 77 76 76 76 75 76 76 78 76 75 75
76 76 77 77 78 78 79 80 80 80 80 80 80 80 80 80 79 78 78 77 77 78 78 78 77 77 77 78 78 78 77 77 77 76 76 76 76 76 76 76 76 75
74 75 75 76 78 79 80 80 80 81 81 81 81 81 80 80 80 79 78 78 78 78 79 78 78 78 77 77 78 78 77 77 77 76 76 76 76 77 77 77 77 77
74 75 75 76 77 77 78 80 81 81 81 81 81 80 81 81 81 80 79 79 79 79 79 78 78 77 77 77 77 78 77 77 77 77 77 76 76 76 77 77 77 78
73 73 74 75 76 75 76 78 79 79 80 80 80 80 82 81 82 81 80 78 79 78 78 78 79 78 78 78 77 77 77 77 77 76 75 74 74 75 76 76 76 76
71 71 72 74 74 75 74 75 77 77 78 78 79 79 80 80 79 80 80 79 78 78 77 79 79 80 80 81 80 79 77 78 77 74 74 74 74 73 74 74 76 76
70 69 69 69 70 70 70 71 72 75 75 76 77 78 78 78 78 78 79 80 79 79 78 78 79 80 79 73 74 78 79 76 75 73 73 73 74 73 73 74 75 75
70 71 69 69 69 69 70 70 70 70 71 72 74 74 75 76 77 78 78 79 80 79 78 78 78 76 68 69 70 72 79 76 75 74 73 73 73 74 74 74 73 75
71 71 70 70 69 70 69 70 70 70 70 71 71 72 73 73 74 75 76 75 78 77 78 77 75 65 66 68 68 69 73 78 73 74 73 73 74 74 73 73 74 74
70 70 70 69 69 69 69 69 69 69 69 70 71 72 71 71 71 72 73 73 75 75 75 73 69 63 63 65 65 66 70 75 74 73 73 73 74 74 74 74 74 74
70 70 69 70 69 69 69 69 69 69 70 71 70 71 71 71 71 71 71 72 73 73 71 68 65 59 60 62 62 63 65 73 74 74 73 73 74 74 74 74 74 74
69 70 70 70 70 70 70 70 70 70 70 71 71 70 70 69 70 71 71 70 70 70 69 64 62 58 58 59 59 61 65 71 72 72 72 73 74 74 74 74 73 73
69 69 69 69 70 70 70 69 69 69 70 71 70 70 70 69 69 69 70 70 70 68 66 63 62 59 56 57 57 59 65 69 71 71 71 72 73 73 73 73 73 73
69 69 68 68 68 68 68 69 69 69 69 70 70 70 69 69 69 69 69 69 69 66 66 64 63 60 55 55 55 56 64 69 70 71 71 72 72 72 72 72 73 79
68 68 67 67 67 67 68 68 68 69 70 71 71 71 70 69 71 70 68 67 67 67 70 64 63 62 56 54 55 55 62 67 69 70 71 71 72 71 69 70 70 77
68 69 68 67 67 67 68 68 68 68 68 69 69 69 69 69 70 69 67 64 65 64 64 63 62 61 59 54 54 55 58 66 70 70 70 71 71 70 68 68 67 67